[[[{"header":{"parameterUnit":"kt","parameterCategory":2,"dx":1,"dy":1,"la1":29.764190673828125,"la2":30.86408042907715,"lo1":-88.46762084960938,"lo2":-86.9344482421875,"nx":47,"ny":34,"refTime":"2022-09-30T00:00:00:Z","depth":"0","parameterNumber":2,"parameterNumberName":"U-component_of_CURRENTS"},"data":[0.0614,0.1041,0.1495,0.1831,0.1933,0.1853,0.1789,0.1794,0.1847,0.1949,0.1991,0.1917,0.1847,0.1815,0.1842,0.1874,0.1874,0.1874,0.1949,0.2205,0.2627,0.3001,0.3294,0.354,0.3673,0.3636,0.3444,0.3305,0.3438,0.3769,0.4026,0.4026,0.3924,0.3796,0.3657,0.3481,0.3193,0.2915,0.2627,0.2328,0.2168,0.2061,0.1757,0.1196,0.04,-0.0432,-0.102,0.0459,0.0662,0.0908,0.1143,0.1361,0.1559,0.1741,0.1917,0.2082,0.2152,0.212,0.2061,0.1997,0.1959,0.1959,0.1991,0.2013,0.2029,0.2072,0.2194,0.2429,0.2739,0.3011,0.3129,0.3102,0.3118,0.3155,0.315,0.3353,0.3785,0.3994,0.3844,0.3668,0.3572,0.3513,0.3449,0.3305,0.3075,0.2883,0.2712,0.2547,0.2376,0.2088,0.1602,0.0924,0.0144,-0.0545,0.0491,0.0609,0.0763,0.0945,0.1148,0.1372,0.1602,0.1821,0.2002,0.2114,0.2157,0.2157,0.213,0.2104,0.2098,0.2109,0.2114,0.212,0.2152,0.2226,0.2333,0.2451,0.2568,0.267,0.275,0.292,0.3118,0.3225,0.338,0.3583,0.3524,0.3187,0.292,0.3017,0.3289,0.3385,0.3358,0.3246,0.3134,0.3038,0.2888,0.2712,0.2445,0.2024,0.142,0.0657,-0.0048,0.0587,0.0667,0.0774,0.0908,0.1084,0.1292,0.1527,0.1751,0.1938,0.2082,0.2178,0.2221,0.2232,0.2237,0.2248,0.2248,0.2232,0.2221,0.2232,0.228,0.236,0.2456,0.2552,0.2654,0.275,0.2926,0.3187,0.3401,0.354,0.3545,0.3289,0.2787,0.2344,0.2248,0.2589,0.3097,0.3353,0.3364,0.3337,0.3284,0.3182,0.3049,0.2819,0.244,0.1853,0.1148,0.0566,0.0667,0.0742,0.0844,0.0977,0.1143,0.1345,0.1564,0.1783,0.1975,0.2114,0.2194,0.2237,0.2274,0.2322,0.2371,0.2376,0.2349,0.2312,0.2296,0.2306,0.2333,0.2387,0.2472,0.26,0.275,0.2953,0.3316,0.3689,0.3914,0.3988,0.3887,0.3561,0.2974,0.2349,0.213,0.2403,0.2926,0.3385,0.3583,0.3545,0.3422,0.3316,0.3166,0.2883,0.2435,0.1895,0.1415,0.0742,0.0828,0.0945,0.1084,0.1249,0.1436,0.1628,0.1805,0.1949,0.2045,0.2093,0.2136,0.2216,0.2322,0.2408,0.2429,0.2403,0.2355,0.2312,0.229,0.228,0.2285,0.236,0.2509,0.2707,0.2894,0.3182,0.3689,0.4116,0.4245,0.4223,0.4132,0.3865,0.3332,0.2707,0.2381,0.2552,0.3107,0.3684,0.3887,0.3759,0.3604,0.3513,0.3364,0.3091,0.2739,0.2349,0.0801,0.0897,0.1014,0.1153,0.1303,0.1458,0.1612,0.1746,0.1842,0.1911,0.1959,0.2024,0.213,0.2248,0.2328,0.2355,0.2344,0.2312,0.2274,0.2242,0.2216,0.2216,0.2269,0.2397,0.2584,0.2766,0.2931,0.3262,0.3807,0.4271,0.4405,0.4287,0.4068,0.3732,0.3251,0.2712,0.2429,0.268,0.3316,0.3903,0.41,0.4015,0.3892,0.3855,0.3764,0.3545,0.3268,0.0828,0.0913,0.1025,0.1153,0.1287,0.1415,0.1538,0.1639,0.1719,0.1794,0.1869,0.1965,0.2066,0.2157,0.221,0.2237,0.2242,0.2221,0.2184,0.2152,0.2125,0.213,0.2184,0.2301,0.2467,0.2627,0.276,0.2904,0.3134,0.3497,0.3898,0.4159,0.4159,0.3908,0.3444,0.2872,0.2285,0.1981,0.2376,0.3198,0.3865,0.4218,0.4373,0.4415,0.4367,0.4309,0.4213,0.0892,0.0956,0.1046,0.1143,0.1244,0.134,0.1426,0.15,0.1586,0.1692,0.1826,0.197,0.2093,0.2178,0.2216,0.2221,0.2189,0.2136,0.2082,0.204,0.2018,0.2034,0.2098,0.221,0.2344,0.2477,0.2595,0.2707,0.2814,0.292,0.3033,0.3177,0.3358,0.3486,0.3438,0.3065,0.2467,0.1906,0.1703,0.2178,0.3065,0.3844,0.441,0.4875,0.5083,0.5045,0.5051,0.103,0.1041,0.1073,0.1132,0.1196,0.1244,0.1287,0.1345,0.1452,0.1607,0.181,0.2018,0.2178,0.2269,0.229,0.2253,0.2168,0.2077,0.1997,0.1943,0.1917,0.1927,0.1986,0.2082,0.2189,0.2296,0.2397,0.2499,0.2595,0.267,0.2707,0.2702,0.267,0.2664,0.2739,0.2851,0.2712,0.228,0.1885,0.1799,0.2205,0.3059,0.3967,0.4725,0.536,0.5723,0.5846,0.1132,0.102,0.1004,0.1084,0.1159,0.118,0.118,0.1233,0.1372,0.1586,0.1842,0.2088,0.221,0.2269,0.2301,0.2253,0.2157,0.204,0.1933,0.1863,0.1826,0.1831,0.1869,0.1922,0.1991,0.2072,0.2162,0.2248,0.2333,0.2403,0.2456,0.2477,0.2477,0.2461,0.244,0.2451,0.2568,0.2552,0.2274,0.2013,0.1991,0.2301,0.2974,0.3967,0.4944,0.5697,0.6156,0.1196,0.0838,0.0763,0.0945,0.1095,0.1111,0.103,0.1078,0.1276,0.1532,0.1799,0.2088,0.2098,0.2146,0.2322,0.2237,0.2093,0.1965,0.1853,0.1762,0.1714,0.1714,0.173,0.1751,0.1773,0.181,0.1869,0.1943,0.2024,0.2114,0.2205,0.2269,0.2312,0.2339,0.2355,0.2349,0.2344,0.2461,0.2509,0.236,0.2216,0.2242,0.2456,0.2931,0.3796,0.4794,0.5595,0.1073,0.0416,0.031,0.0769,0.1095,0.103,0.0657,0.0651,0.0956,0.1121,0.1303,0.1847,0.1527,0.173,0.2552,0.2274,0.2002,0.1863,0.1773,0.1687,0.1623,0.1591,0.1554,0.1516,0.1511,0.1516,0.1538,0.1586,0.1671,0.1799,0.1943,0.2056,0.2136,0.2184,0.2226,0.2237,0.2216,0.228,0.2467,0.2568,0.2525,0.2499,0.2541,0.2654,0.291,0.3481,0.4309,0,0,0.0208,0.0603,0.1271,0.1111,-0.0037,-0.0096,0.0571,0.0561,0.0267,0.0198,0,0.1628,0.2691,0.1981,0.1826,0.1826,0.1773,0.166,0.1564,0.1596,0.1511,0.1335,0.1297,0.1303,0.1297,0.1297,0.1335,0.1442,0.1602,0.1741,0.1853,0.1938,0.1991,0.2013,0.2002,0.2007,0.2168,0.2451,0.268,0.2824,0.2883,0.2904,0.2888,0.2915,0.3219,0.15,0.2445,0.2237,0.1025,0.0502,0,0,0.031,0.095,0.0368,-0.1794,-0.4442,-0.2472,0.0897,0,0,0,0,0,0,0,0,0.0352,0.0892,0.1137,0.1164,0.1121,0.1164,0.1175,0.1207,0.134,0.1452,0.1538,0.1575,0.1591,0.1607,0.1634,0.1703,0.1826,0.2056,0.2435,0.2798,0.3033,0.3171,0.323,0.3166,0.3139,0.2349,0.2248,0.1703,0.0443,-0.1287,-0.0977,0.1153,0.1265,0.0481,0,0,0,-0.1527,-0.4399,-0.4431,-0.2456,-0.1442,-0.086,-0.047,-0.0214,-0.0123,0,0,0,0,0,0,0,0.0192,0.0721,0.1116,0.1228,0.1372,0.1345,0.1175,0.1132,0.1313,0.1682,0.1927,0.1986,0.2098,0.228,0.2467,0.2659,0.2963,0.3262,0.339,0.2734,0.229,0.1463,0.0582,-0.0411,-0.0283,0.0144,-0.1228,-0.3636,-0.4704,-0.4474,-0.2953,-0.2066,-0.2942,-0.2942,-0.2082,-0.1196,-0.0699,-0.047,-0.039,-0.039,0,0,0,0,0,0,0,0,0,0,0,0,0.0267,0.0587,0.0641,0.0812,0.1452,0.2002,0.2024,0.2018,0.2109,0.2184,0.2258,0.2424,0.2744,0.3118,0,0.0448,0.1121,0.0876,-0.0214,-0.0838,0,0,0,0,0,-0.0689,-0.1954,-0.2611,-0.2355,-0.1714,-0.1046,-0.0587,-0.04,-0.0299,0,0,0,0,0,0,0,0,0,0,0,0,0,0,0,0,-0.0166,-0.0053,0,0,0.1468,0.1821,0.1917,0.1975,0.2093,0.2419,0.2563,0,0,0,0.024,0.0513,0.0545,0,0,0,0,0,-0.0331,-0.1351,-0.205,-0.1837,-0.1447,-0.0945,-0.0593,-0.0481,0,0,0,0,0,0,0,0,0,0,0,0,0,0,0,0,0,0,-0.2024,-0.2867,0,0,0,0,0,0,0,0.0534,0,0,0,0,0,0,0,0,0,0,0,-0.024,-0.0934,-0.1415,-0.134,-0.087,0.0107,0.0715,0,0,0,0,0,0,0,0,0,0,0,0,0,0,0,0,0,0,0,0,-0.1292,-0.1869,-0.0721,-0.0288,0,0,0,0,0,0,0,0,0,0,0,0,0,0,0,0,-0.0432,-0.0881,-0.0945,-0.1095,-0.0502,0.0198,0,0,0,0,0,0,0,0,0,0,0,0,0,0,0,0,0,0,0,0,0,0,-0.1137,-0.2392,-0.2942,-0.1735,-0.0064,-0.0048,0,0,0,0,0,0,0,0,0,0,0,0,0,0,-0.0812,-0.1596,-0.1655,-0.0625,0.0299,0,0,0,0,0,0,0,0,0,0,0,0,0,0,0,0,0,0,0,0,0,0,0,0,0,0,-0.0128,-0.0251,0,0,0,0,0,0,0,0,0,0,0,0,0,0,-0.1217,-0.2216,-0.1895,-0.086,0.008,0,0,0,0,0,0,0,0,0,0,0,0,0,0,0,0,0,0,0,0,0,0,0,0,0,0,0,0,0,0,0,0,0,0,0,0,0,0,0,0,0,0,-0.1212,-0.2162,-0.1943,-0.1009,-0.0032,0,0,0,0,0,0,0,0,0,0,0,0,0,0,0,0,0,0,0,0,0,0,0,0,0,0,0,0,0,0,0,0,0,0,0,0,0,0,0,0,0,0,-0.1495,-0.267,-0.212,-0.1233,-0.0577,0,0,0,0,0,0,0,0,0,0,0,0,0,0,0,0,0,0,0,0,0,0,0,0,0,0,0,0,0,0,0,0,0,0,0,0,0,0,0,0,0,0,0,-0.0876,-0.1057,-0.0246,-0.0128,0,0,0,0,0,0,0,0,0,0,0,0,0,0,0,0,0,0,0,0,0,0,0,0,0,0,0,0,0,0,0,0,0,0,0,0,0,0,0,0,0,0,0,-0.0507,0.0758,0.2178,0.1831,0,0,0,0,0,0,0,0,0,0,0,0,0,0,0,0,0,0,0,0,0,0,0,0,0,0,0,0,0,0,0,0,0,0,0,0,0,0,0,0,0,0,0,0,0.0208,0.0416,0,0,0,0,0,0,0,0,0,0,0,0,0,0,0,0,0,0,0,0,0,0,0,0,0,0,0,0,0,0,0,0,0,0,0,0,0,0,0,0,0,0,0,0,0,0,0,0,0,0,0,0,0,0,0,0,0,0,0,0,0,0,0,0,0,0,0,0,0,0,0,0,0,0,0,0,0,0,0,0,0,0,0,0,0,0,0,0,0,0,0,0,0,0,0,0,0,0,0,0,0,0,0,0,0,0,0,0,0,0,0,0,0,0,0,0,0,0,0,0,0,0,0,0,0,0,0,0,0,0,0,0,0,0,0,0,0,0,0,0,0,0,0,0,0,0,0,0,0,0,0,0,0,0,0,0,0,0,0,0,0,0,0,0,0,0,0,0,0,0,0,0,0,0,0,0,0,0,0,0,0,0,0,0,0,0,0,0,0,0,0,0,0,0,0,0,0,0,0,0,0,0,0,0,0,0,0,0,0,0,0,0,0,0,0,0,0,0,0,0,0,0,0,0,0,0,0,0,0,0,0,0,0,0,0,0,0,0,0,0,0,0,0,0,0,0,0,0,0,0,0,0,0,0,0,0,0,0,0,0,0,0,0,0,0,0,0,0,0,0,0,0,0,0,0,0,0,0,0,0,0,0,0,0,0,0,0,0,0,0,0,0,0,0,0,0,0,0,0,0,0,0,0,0,0,0,0,0,0,0,0,0,0]}],[{"header":{"parameterUnit":"kt","parameterCategory":2,"dx":1,"dy":1,"la1":29.764190673828125,"la2":30.86408042907715,"lo1":-88.46762084960938,"lo2":-86.9344482421875,"nx":47,"ny":34,"refTime":"2022-09-30T00:00:00:Z","depth":"0","parameterNumber":3,"parameterNumberName":"V-component_of_CURRENTS"},"data":[-0.0614,-0.0481,-0.0395,-0.0331,-0.0262,-0.0219,-0.0336,-0.0614,-0.1073,-0.142,-0.158,-0.1692,-0.1757,-0.1741,-0.1692,-0.1628,-0.1511,-0.1271,-0.0897,-0.0502,-0.0182,-0.0021,0.0011,0.0016,0.0171,0.0491,0.0598,0.0742,0.0603,0.0187,-0.0069,0.0342,0.1516,0.3129,0.4394,0.5019,0.5446,0.5921,0.6546,0.7565,0.8452,0.8842,0.9082,0.9199,0.921,0.9039,0.8612,-0.0769,-0.0614,-0.0534,-0.0427,-0.0299,-0.0283,-0.0411,-0.0705,-0.1132,-0.1356,-0.1458,-0.1554,-0.1628,-0.165,-0.1644,-0.1628,-0.1538,-0.1329,-0.102,-0.0646,-0.031,-0.0075,0.0096,0.0246,0.0454,0.0721,0.0619,0.0619,0.0358,-0.0379,-0.0924,-0.0577,0.0427,0.1965,0.3636,0.4869,0.5665,0.6268,0.6829,0.7533,0.8233,0.8596,0.8751,0.8767,0.8703,0.8505,0.8051,-0.0892,-0.0753,-0.0662,-0.0582,-0.0513,-0.0502,-0.0598,-0.0812,-0.1062,-0.1228,-0.1351,-0.1447,-0.1511,-0.1554,-0.1596,-0.1612,-0.1554,-0.1377,-0.1111,-0.0796,-0.0459,-0.0123,0.0192,0.0448,0.0598,0.0742,0.0651,0.0587,0.0283,-0.0678,-0.166,-0.166,-0.0924,0.0326,0.2018,0.3871,0.5403,0.646,0.7186,0.7715,0.8185,0.8494,0.8612,0.8585,0.8473,0.8228,0.7731,-0.0993,-0.086,-0.0774,-0.071,-0.0683,-0.0694,-0.0774,-0.0929,-0.1105,-0.1249,-0.1351,-0.1399,-0.142,-0.1468,-0.1538,-0.158,-0.1538,-0.1393,-0.1169,-0.0908,-0.0609,-0.0278,0.0075,0.0384,0.0539,0.0641,0.0657,0.0566,0.031,-0.0481,-0.1612,-0.2301,-0.2226,-0.1506,-0.0256,0.1725,0.3994,0.5937,0.7234,0.7891,0.8222,0.8441,0.8543,0.851,0.8377,0.8083,0.7576,-0.1095,-0.0961,-0.0876,-0.0833,-0.0822,-0.0854,-0.0934,-0.1062,-0.1212,-0.1351,-0.1426,-0.142,-0.1393,-0.141,-0.1474,-0.1522,-0.1495,-0.1383,-0.1207,-0.0988,-0.0737,-0.0438,-0.0075,0.0272,0.0454,0.0534,0.0614,0.0497,0.0262,-0.024,-0.1052,-0.1927,-0.2525,-0.2573,-0.2056,-0.0812,0.1479,0.417,0.638,0.7598,0.8121,0.835,0.8425,0.8404,0.827,0.7971,0.7533,-0.1207,-0.1078,-0.1004,-0.0977,-0.0988,-0.1036,-0.1121,-0.1239,-0.1372,-0.149,-0.1538,-0.1506,-0.1442,-0.1426,-0.1447,-0.1463,-0.1436,-0.1351,-0.1207,-0.103,-0.0822,-0.055,-0.0208,0.0139,0.0342,0.0422,0.0518,0.0459,0.016,-0.0288,-0.0828,-0.141,-0.204,-0.2493,-0.2541,-0.22,-0.078,0.1655,0.4394,0.6412,0.7507,0.8014,0.8169,0.8179,0.8078,0.7843,0.7496,-0.1335,-0.1239,-0.1191,-0.1175,-0.1191,-0.1244,-0.1329,-0.1426,-0.1532,-0.1612,-0.1634,-0.1596,-0.1548,-0.1516,-0.1495,-0.1458,-0.141,-0.1324,-0.1196,-0.1041,-0.0854,-0.0614,-0.032,-0.0011,0.0214,0.0326,0.0406,0.0438,0.0208,-0.023,-0.0785,-0.1281,-0.1719,-0.2173,-0.2413,-0.236,-0.1773,-0.0246,0.2093,0.4442,0.6193,0.7181,0.7587,0.7731,0.7731,0.7565,0.7299,-0.1495,-0.1458,-0.1431,-0.142,-0.1431,-0.1468,-0.1538,-0.1612,-0.1671,-0.1714,-0.1709,-0.1682,-0.1655,-0.1628,-0.158,-0.1516,-0.1447,-0.1345,-0.1207,-0.1036,-0.086,-0.0657,-0.0422,-0.016,0.0069,0.0219,0.032,0.0368,0.0283,-0.0005,-0.0448,-0.0897,-0.1345,-0.1815,-0.213,-0.221,-0.1927,-0.1105,0.039,0.2381,0.433,0.5852,0.6695,0.6946,0.7064,0.7016,0.6818,-0.1666,-0.1671,-0.1671,-0.166,-0.165,-0.1666,-0.1709,-0.1767,-0.181,-0.1837,-0.1821,-0.1778,-0.1725,-0.1676,-0.1612,-0.1548,-0.149,-0.1388,-0.1228,-0.1041,-0.087,-0.0705,-0.0523,-0.0315,-0.0101,0.0085,0.0235,0.0315,0.0283,0.0112,-0.016,-0.0481,-0.0812,-0.1153,-0.1442,-0.1714,-0.1725,-0.1372,-0.0545,0.0753,0.2365,0.3988,0.5398,0.6097,0.6263,0.6289,0.6172,-0.1762,-0.1805,-0.1853,-0.1847,-0.1821,-0.1789,-0.181,-0.1869,-0.1938,-0.1986,-0.1981,-0.1901,-0.1767,-0.166,-0.1543,-0.1468,-0.1436,-0.1367,-0.1223,-0.1036,-0.086,-0.0731,-0.0614,-0.047,-0.0278,-0.0069,0.0117,0.0246,0.0262,0.0139,-0.0085,-0.0336,-0.055,-0.0715,-0.0865,-0.103,-0.1196,-0.1164,-0.087,-0.0315,0.0763,0.1954,0.3374,0.4672,0.5355,0.5558,0.5531,-0.1725,-0.1821,-0.2007,-0.2034,-0.1959,-0.1847,-0.1831,-0.1933,-0.2056,-0.2173,-0.2248,-0.2168,-0.1858,-0.173,-0.1463,-0.1287,-0.126,-0.1249,-0.1164,-0.0993,-0.0822,-0.0705,-0.0641,-0.0566,-0.0432,-0.024,-0.0037,0.0123,0.0192,0.0128,-0.0048,-0.0272,-0.047,-0.063,-0.0726,-0.0705,-0.0667,-0.0726,-0.0737,-0.0603,-0.0208,0.0491,0.1313,0.2483,0.3679,0.4335,0.4538,-0.1415,-0.1602,-0.2274,-0.2381,-0.22,-0.1858,-0.1805,-0.2056,-0.2248,-0.2461,-0.2718,-0.2744,-0.1895,-0.2248,-0.1516,-0.1073,-0.1009,-0.1046,-0.103,-0.0908,-0.0742,-0.0619,-0.0571,-0.0561,-0.0507,-0.0379,-0.0203,-0.0032,0.0075,0.0069,-0.0048,-0.0235,-0.0422,-0.0587,-0.0699,-0.0694,-0.0491,-0.0347,-0.0379,-0.0395,-0.0406,-0.0171,0.0149,0.0731,0.1618,0.2477,0.2979,-0.1175,-0.141,-0.2953,-0.3123,-0.2883,-0.1751,-0.1628,-0.2541,-0.2744,-0.2862,-0.3316,-0.3663,-0.1858,-0.3946,-0.1692,-0.0785,-0.0694,-0.078,-0.0822,-0.0758,-0.0614,-0.0481,-0.0395,-0.0443,-0.0486,-0.0448,-0.0331,-0.0182,-0.0064,-0.0043,-0.0101,-0.023,-0.039,-0.0566,-0.071,-0.0747,-0.0561,-0.0198,-0.0053,-0.0075,-0.0176,-0.0251,-0.023,-0.0059,0.032,0.0913,0.1474,0,0,-0.3753,-0.4079,-0.4383,-0.1644,-0.1474,-0.3759,-0.354,-0.2856,-0.3492,-0.3924,0,-0.7256,-0.1794,-0.0603,-0.0518,-0.063,-0.0699,-0.0662,-0.0539,-0.04,0.0037,-0.0192,-0.0384,-0.0432,-0.0363,-0.0262,-0.0149,-0.0176,-0.0192,-0.0246,-0.0368,-0.0529,-0.071,-0.0801,-0.0651,-0.0267,0.0096,0.0246,0.0085,-0.0117,-0.0262,-0.0267,-0.0101,0.0171,0.0561,-0.0593,-0.0587,-0.3171,-0.4095,-0.4981,0,0,-0.5174,-0.4319,-0.2638,-0.3369,-0.3657,-0.4154,-0.8505,0,0,0,0,0,0,0,0,0.0347,-0.0027,-0.031,-0.0411,-0.0352,-0.0278,0.0032,-0.0267,-0.0262,-0.0256,-0.032,-0.0438,-0.0689,-0.087,-0.079,-0.0432,0.0064,0.0347,0.0283,0.0101,-0.0053,-0.0101,-0.0016,0.0032,0.0187,-0.1073,-0.1105,-0.1858,-0.2899,-0.3583,-0.1554,-0.1789,-0.4811,-0.4116,0,0,0,-0.6583,-0.6279,-0.1554,-0.0817,-0.0443,-0.031,-0.0224,-0.0139,-0.0048,0,0,0,0,0,0,0,0.0101,-0.0566,-0.0278,-0.0256,-0.0288,-0.0107,-0.0523,-0.0929,-0.1143,-0.0924,-0.0075,0.031,0.031,0.0208,0.0117,0.0128,0.0171,0.0155,0.0192,-0.0961,-0.0272,-0.0998,-0.1623,-0.2226,-0.3075,-0.3577,-0.3865,-0.3567,0.0,0.0,-0.1831,-0.4549,-0.4544,-0.3332,-0.2109,-0.118,-0.0667,-0.0422,-0.0139,-0.0096,0,0,0,0,0,0,0,0,0,0,0,0,0.0155,-0.0379,-0.0822,-0.1591,-0.1997,-0.0166,0.0582,0.032,0.0144,0.0069,0.008,0.0149,0.0262,0.0384,0,0.0486,-0.055,-0.0486,-0.1121,-0.2088,0,0,0,0,0,-0.2942,-0.3876,-0.3753,-0.3508,-0.2904,-0.2066,-0.0769,-0.0379,-0.0016,0,0,0,0,0,0,0,0,0,0,0,0,0,0,0,0,-0.1773,-0.2536,0,0,0.0358,0.0107,0.0021,0.0021,0.0075,0.0267,0.0705,0,0,0,0.0117,-0.0368,-0.1137,0,0,0,0,0,-0.1853,-0.3054,-0.2776,-0.3251,-0.339,-0.3337,-0.1036,-0.0363,0,0,0,0,0,0,0,0,0,0,0,0,0,0,0,0,0,0,-0.2387,-0.1628,0,0,0,0,0,0,0,0.0929,0,0,0,0,0,0,0,0,0,0,0,-0.1297,-0.2376,-0.189,-0.267,-0.3508,-0.4197,-0.1255,0,0,0,0,0,0,0,0,0,0,0,0,0,0,0,0,0,0,0,0,-0.3257,-0.11,-0.0534,-0.0283,0,0,0,0,0,0,0,0,0,0,0,0,0,0,0,0,-0.0801,-0.2621,-0.1335,-0.2066,-0.33,-0.3817,0,0,0,0,0,0,0,0,0,0,0,0,0,0,0,0,0,0,0,0,0,0,-0.22,-0.1068,-0.0571,0.0,-0.0304,-0.0032,0,0,0,0,0,0,0,0,0,0,0,0,0,0,-0.3321,-0.1393,-0.1874,-0.3054,-0.2835,0,0,0,0,0,0,0,0,0,0,0,0,0,0,0,0,0,0,0,0,0,0,0,0,0,0,-0.0609,-0.0064,0,0,0,0,0,0,0,0,0,0,0,0,0,0,-0.2878,-0.1618,-0.1895,-0.292,-0.2403,0,0,0,0,0,0,0,0,0,0,0,0,0,0,0,0,0,0,0,0,0,0,0,0,0,0,0,0,0,0,0,0,0,0,0,0,0,0,0,0,0,0,-0.1554,-0.1789,-0.1922,-0.2963,-0.2739,0,0,0,0,0,0,0,0,0,0,0,0,0,0,0,0,0,0,0,0,0,0,0,0,0,0,0,0,0,0,0,0,0,0,0,0,0,0,0,0,0,0,-0.0908,-0.2264,-0.2435,-0.3262,-0.3097,0,0,0,0,0,0,0,0,0,0,0,0,0,0,0,0,0,0,0,0,0,0,0,0,0,0,0,0,0,0,0,0,0,0,0,0,0,0,0,0,0,0,0,-0.1404,-0.338,-0.3492,-0.2776,0,0,0,0,0,0,0,0,0,0,0,0,0,0,0,0,0,0,0,0,0,0,0,0,0,0,0,0,0,0,0,0,0,0,0,0,0,0,0,0,0,0,0,-0.023,-0.2226,-0.212,-0.244,0,0,0,0,0,0,0,0,0,0,0,0,0,0,0,0,0,0,0,0,0,0,0,0,0,0,0,0,0,0,0,0,0,0,0,0,0,0,0,0,0,0,0,0,-0.0593,-0.0737,0,0,0,0,0,0,0,0,0,0,0,0,0,0,0,0,0,0,0,0,0,0,0,0,0,0,0,0,0,0,0,0,0,0,0,0,0,0,0,0,0,0,0,0,0,0,0,0,0,0,0,0,0,0,0,0,0,0,0,0,0,0,0,0,0,0,0,0,0,0,0,0,0,0,0,0,0,0,0,0,0,0,0,0,0,0,0,0,0,0,0,0,0,0,0,0,0,0,0,0,0,0,0,0,0,0,0,0,0,0,0,0,0,0,0,0,0,0,0,0,0,0,0,0,0,0,0,0,0,0,0,0,0,0,0,0,0,0,0,0,0,0,0,0,0,0,0,0,0,0,0,0,0,0,0,0,0,0,0,0,0,0,0,0,0,0,0,0,0,0,0,0,0,0,0,0,0,0,0,0,0,0,0,0,0,0,0,0,0,0,0,0,0,0,0,0,0,0,0,0,0,0,0,0,0,0,0,0,0,0,0,0,0,0,0,0,0,0,0,0,0,0,0,0,0,0,0,0,0,0,0,0,0,0,0,0,0,0,0,0,0,0,0,0,0,0,0,0,0,0,0,0,0,0,0,0,0,0,0,0,0,0,0,0,0,0,0,0,0,0,0,0,0,0,0,0,0,0,0,0,0,0,0,0,0,0,0,0,0,0,0,0,0,0,0,0,0,0,0,0,0,0,0,0,0,0,0,0,0,0,0,0,0]}]],[[{"header":{"parameterUnit":"kt","parameterCategory":2,"dx":1,"dy":1,"la1":29.764190673828125,"la2":30.86408042907715,"lo1":-88.46762084960938,"lo2":-86.9344482421875,"nx":47,"ny":34,"refTime":"2022-09-30T00:00:00:Z","depth":"2","parameterNumber":2,"parameterNumberName":"U-component_of_CURRENTS"},"data":[0.0667,0.1095,0.1548,0.1879,0.1981,0.1901,0.1842,0.1853,0.1906,0.2007,0.2045,0.197,0.1895,0.1863,0.1885,0.1917,0.1917,0.1917,0.1986,0.2248,0.2664,0.3038,0.3326,0.3572,0.37,0.3663,0.3476,0.3332,0.3465,0.378,0.4026,0.4031,0.3935,0.3817,0.3679,0.3497,0.3203,0.2926,0.2643,0.2344,0.2184,0.2077,0.1767,0.1212,0.0422,-0.0406,-0.0993,0.0513,0.0715,0.0961,0.1196,0.141,0.1607,0.1794,0.1975,0.2141,0.221,0.2173,0.2114,0.205,0.2007,0.2013,0.204,0.2056,0.2072,0.2114,0.2232,0.2472,0.2776,0.3043,0.3161,0.3129,0.3145,0.3187,0.3177,0.3374,0.3796,0.3999,0.3844,0.3679,0.3593,0.3534,0.347,0.3321,0.3091,0.2899,0.2728,0.2557,0.2387,0.2093,0.1607,0.094,0.0166,-0.0529,0.055,0.0667,0.0822,0.0998,0.1201,0.1426,0.1655,0.1879,0.2061,0.2168,0.221,0.221,0.2184,0.2157,0.2157,0.2162,0.2162,0.2168,0.22,0.2269,0.2371,0.2488,0.26,0.2702,0.2782,0.2953,0.315,0.3257,0.3401,0.3599,0.3534,0.3198,0.2936,0.3038,0.331,0.3406,0.338,0.3262,0.315,0.3049,0.2904,0.2723,0.2456,0.2029,0.1431,0.0673,-0.0037,0.0646,0.0731,0.0833,0.0966,0.1137,0.1351,0.158,0.1805,0.1991,0.2136,0.2232,0.228,0.229,0.2296,0.2306,0.2306,0.2285,0.2269,0.228,0.2328,0.2403,0.2499,0.2589,0.2691,0.2787,0.2963,0.3225,0.3438,0.3567,0.3567,0.3305,0.2808,0.236,0.2264,0.2605,0.3113,0.3369,0.3385,0.3353,0.33,0.3193,0.3059,0.2824,0.2445,0.1858,0.1159,0.0577,0.0731,0.0801,0.0902,0.1036,0.1201,0.1399,0.1623,0.1842,0.2029,0.2168,0.2248,0.2296,0.2333,0.2387,0.2429,0.2435,0.2403,0.2365,0.2349,0.236,0.2387,0.2435,0.2515,0.2643,0.2787,0.299,0.3353,0.3727,0.3951,0.402,0.3914,0.3588,0.2995,0.2371,0.2141,0.2413,0.2942,0.3406,0.3599,0.3561,0.3433,0.3321,0.3171,0.2888,0.2445,0.1906,0.1426,0.0801,0.0886,0.0998,0.1143,0.1308,0.149,0.1682,0.1858,0.2007,0.2104,0.2157,0.22,0.228,0.2387,0.2472,0.2488,0.2456,0.2408,0.2365,0.2344,0.2333,0.2344,0.2408,0.2557,0.275,0.2931,0.3219,0.3727,0.4159,0.4282,0.4261,0.4164,0.3898,0.3358,0.2723,0.2387,0.2557,0.3118,0.37,0.3903,0.3775,0.3609,0.3518,0.3364,0.3097,0.2744,0.2355,0.086,0.095,0.1073,0.1212,0.1361,0.1516,0.1666,0.1799,0.1906,0.1975,0.2024,0.2088,0.2194,0.2312,0.2387,0.2413,0.2397,0.2365,0.2328,0.2296,0.2274,0.2274,0.2322,0.2451,0.2632,0.2808,0.2974,0.33,0.3849,0.4314,0.4447,0.4325,0.41,0.3764,0.3284,0.2734,0.244,0.268,0.3326,0.3919,0.4122,0.4026,0.3898,0.386,0.3769,0.355,0.3273,0.0886,0.0966,0.1084,0.1212,0.134,0.1474,0.1596,0.1698,0.1783,0.1858,0.1938,0.2029,0.2136,0.2221,0.2274,0.2296,0.2301,0.228,0.2242,0.221,0.2189,0.2194,0.2248,0.236,0.252,0.2675,0.2808,0.2947,0.3177,0.3534,0.3935,0.4197,0.4197,0.3946,0.3476,0.2899,0.2306,0.1991,0.2381,0.3209,0.3882,0.4239,0.4389,0.4421,0.4373,0.4314,0.4218,0.0945,0.1009,0.1095,0.1196,0.1297,0.1393,0.1484,0.1564,0.165,0.1757,0.189,0.2034,0.2157,0.2237,0.2274,0.2274,0.2248,0.2194,0.2141,0.2104,0.2082,0.2098,0.2157,0.2264,0.2397,0.2525,0.2643,0.275,0.2856,0.2958,0.3065,0.3214,0.339,0.3524,0.347,0.3097,0.2493,0.1927,0.1714,0.2184,0.3075,0.386,0.4426,0.4885,0.5093,0.5056,0.5056,0.1078,0.1089,0.1121,0.118,0.1244,0.1297,0.1345,0.141,0.1511,0.1666,0.1869,0.2077,0.2237,0.2322,0.2349,0.2312,0.2232,0.2136,0.2061,0.2007,0.1981,0.1991,0.2045,0.2136,0.2242,0.2349,0.2451,0.2547,0.2638,0.2712,0.2744,0.2739,0.2707,0.2702,0.2776,0.2888,0.2744,0.2306,0.1911,0.1821,0.2216,0.307,0.3983,0.4741,0.5376,0.5734,0.5852,0.118,0.1062,0.1052,0.1127,0.1207,0.1233,0.1239,0.1297,0.1436,0.1639,0.1895,0.2136,0.2264,0.2322,0.236,0.2312,0.2216,0.2098,0.1997,0.1922,0.189,0.189,0.1927,0.1981,0.2045,0.2125,0.221,0.2296,0.2381,0.2451,0.2499,0.252,0.2515,0.2499,0.2477,0.2483,0.2605,0.2584,0.2306,0.204,0.2013,0.2317,0.299,0.3978,0.4955,0.5713,0.6167,0.1239,0.0881,0.0812,0.0988,0.1143,0.1159,0.1084,0.1132,0.1329,0.158,0.1853,0.2141,0.2152,0.2205,0.2381,0.229,0.2152,0.2029,0.1911,0.1826,0.1778,0.1773,0.1789,0.1799,0.1821,0.1858,0.1917,0.1991,0.2072,0.2162,0.2248,0.2312,0.2355,0.2381,0.2397,0.2387,0.2381,0.2499,0.2547,0.2392,0.2248,0.2269,0.2483,0.2947,0.3812,0.4811,0.5611,0.1105,0.0454,0.0347,0.0806,0.1132,0.1073,0.071,0.071,0.1009,0.118,0.1367,0.189,0.158,0.1789,0.2595,0.2322,0.2056,0.1922,0.1831,0.1746,0.1682,0.1644,0.1607,0.1564,0.1554,0.1559,0.158,0.1628,0.1714,0.1842,0.1986,0.2098,0.2173,0.2226,0.2269,0.228,0.2258,0.2322,0.2509,0.2605,0.2557,0.2531,0.2573,0.2675,0.2931,0.3502,0.4325,0,0,0.0224,0.0641,0.1303,0.1143,0.0016,-0.0032,0.0619,0.0619,0.0336,0.0267,0,0.1623,0.2707,0.2018,0.1879,0.1874,0.1821,0.1703,0.1607,0.1634,0.1548,0.1367,0.1329,0.1335,0.1329,0.1335,0.1372,0.1479,0.1639,0.1783,0.1895,0.1981,0.2034,0.2056,0.204,0.2045,0.2205,0.2488,0.2718,0.2862,0.292,0.2936,0.2915,0.2936,0.3241,0.1511,0.244,0.2237,0.1062,0.0566,0,0,0.0331,0.0988,0.0411,-0.1703,-0.4293,-0.2349,0.0961,0,0,0,0,0,0,0,0,0.0363,0.0918,0.1159,0.1185,0.1143,0.1185,0.1201,0.1239,0.1372,0.1484,0.1575,0.1618,0.1634,0.1655,0.1682,0.1746,0.1863,0.2098,0.2472,0.2835,0.3065,0.3203,0.3262,0.3193,0.3161,0.2344,0.2248,0.173,0.0507,-0.1201,-0.0918,0.1185,0.1303,0.0518,0,0,0,-0.1442,-0.4202,-0.4261,-0.2355,-0.1367,-0.0801,-0.0416,-0.0166,-0.0075,0,0,0,0,0,0,0,0.0208,0.0747,0.1137,0.1249,0.1399,0.1377,0.1212,0.118,0.1356,0.1719,0.1959,0.2024,0.213,0.2317,0.2499,0.2686,0.299,0.3289,0.3412,0.2718,0.2285,0.1479,0.0619,-0.0342,-0.0224,0.0166,-0.1201,-0.3567,-0.4597,-0.4367,-0.2862,-0.1959,-0.2808,-0.283,-0.2002,-0.1132,-0.0646,-0.0422,-0.0347,-0.0347,0,0,0,0,0,0,0,0,0,0,0,0,0.0283,0.0619,0.0678,0.0854,0.149,0.2029,0.205,0.2045,0.2136,0.2216,0.2285,0.2451,0.2771,0.3139,0,0.0448,0.1116,0.0892,-0.0171,-0.0785,0,0,0,0,0,-0.0646,-0.1842,-0.2488,-0.2274,-0.166,-0.0998,-0.0539,-0.0352,-0.0262,0,0,0,0,0,0,0,0,0,0,0,0,0,0,0,0,-0.0117,0.0,0,0,0.1495,0.1847,0.1943,0.2002,0.212,0.244,0.2579,0,0,0,0.0246,0.0523,0.0561,0,0,0,0,0,-0.0288,-0.1249,-0.1949,-0.1767,-0.1399,-0.0913,-0.0555,-0.0438,0,0,0,0,0,0,0,0,0,0,0,0,0,0,0,0,0,0,-0.1965,-0.2798,0,0,0,0,0,0,0,0.0539,0,0,0,0,0,0,0,0,0,0,0,-0.0203,-0.0854,-0.1335,-0.126,-0.0812,0.0117,0.0705,0,0,0,0,0,0,0,0,0,0,0,0,0,0,0,0,0,0,0,0,-0.1265,-0.1815,-0.0678,-0.0262,0,0,0,0,0,0,0,0,0,0,0,0,0,0,0,0,-0.04,-0.0817,-0.0876,-0.1009,-0.0443,0.0219,0,0,0,0,0,0,0,0,0,0,0,0,0,0,0,0,0,0,0,0,0,0,-0.11,-0.2306,-0.2744,-0.1618,-0.0112,-0.0059,0,0,0,0,0,0,0,0,0,0,0,0,0,0,-0.0763,-0.1532,-0.1564,-0.0577,0.031,0,0,0,0,0,0,0,0,0,0,0,0,0,0,0,0,0,0,0,0,0,0,0,0,0,0,-0.0117,-0.024,0,0,0,0,0,0,0,0,0,0,0,0,0,0,-0.1201,-0.2168,-0.1826,-0.0828,0.0069,0,0,0,0,0,0,0,0,0,0,0,0,0,0,0,0,0,0,0,0,0,0,0,0,0,0,0,0,0,0,0,0,0,0,0,0,0,0,0,0,0,0,-0.1185,-0.2104,-0.1869,-0.0972,-0.0037,0,0,0,0,0,0,0,0,0,0,0,0,0,0,0,0,0,0,0,0,0,0,0,0,0,0,0,0,0,0,0,0,0,0,0,0,0,0,0,0,0,0,-0.1431,-0.2547,-0.1991,-0.1164,-0.0566,0,0,0,0,0,0,0,0,0,0,0,0,0,0,0,0,0,0,0,0,0,0,0,0,0,0,0,0,0,0,0,0,0,0,0,0,0,0,0,0,0,0,0,-0.0662,-0.0844,-0.0246,-0.0123,0,0,0,0,0,0,0,0,0,0,0,0,0,0,0,0,0,0,0,0,0,0,0,0,0,0,0,0,0,0,0,0,0,0,0,0,0,0,0,0,0,0,0,-0.047,0.0144,0.1111,0.103,0,0,0,0,0,0,0,0,0,0,0,0,0,0,0,0,0,0,0,0,0,0,0,0,0,0,0,0,0,0,0,0,0,0,0,0,0,0,0,0,0,0,0,0,0.0192,0.0384,0,0,0,0,0,0,0,0,0,0,0,0,0,0,0,0,0,0,0,0,0,0,0,0,0,0,0,0,0,0,0,0,0,0,0,0,0,0,0,0,0,0,0,0,0,0,0,0,0,0,0,0,0,0,0,0,0,0,0,0,0,0,0,0,0,0,0,0,0,0,0,0,0,0,0,0,0,0,0,0,0,0,0,0,0,0,0,0,0,0,0,0,0,0,0,0,0,0,0,0,0,0,0,0,0,0,0,0,0,0,0,0,0,0,0,0,0,0,0,0,0,0,0,0,0,0,0,0,0,0,0,0,0,0,0,0,0,0,0,0,0,0,0,0,0,0,0,0,0,0,0,0,0,0,0,0,0,0,0,0,0,0,0,0,0,0,0,0,0,0,0,0,0,0,0,0,0,0,0,0,0,0,0,0,0,0,0,0,0,0,0,0,0,0,0,0,0,0,0,0,0,0,0,0,0,0,0,0,0,0,0,0,0,0,0,0,0,0,0,0,0,0,0,0,0,0,0,0,0,0,0,0,0,0,0,0,0,0,0,0,0,0,0,0,0,0,0,0,0,0,0,0,0,0,0,0,0,0,0,0,0,0,0,0,0,0,0,0,0,0,0,0,0,0,0,0,0,0,0,0,0,0,0,0,0,0,0,0,0,0,0,0,0,0,0,0,0,0,0,0,0,0,0,0,0,0,0,0,0,0,0,0,0]}],[{"header":{"parameterUnit":"kt","parameterCategory":2,"dx":1,"dy":1,"la1":29.764190673828125,"la2":30.86408042907715,"lo1":-88.46762084960938,"lo2":-86.9344482421875,"nx":47,"ny":34,"refTime":"2022-09-30T00:00:00:Z","depth":"2","parameterNumber":3,"parameterNumberName":"V-component_of_CURRENTS"},"data":[-0.0422,-0.0288,-0.0208,-0.0149,-0.008,-0.0032,-0.0155,-0.0432,-0.0897,-0.1239,-0.1404,-0.1516,-0.1586,-0.1564,-0.1511,-0.1447,-0.1329,-0.1089,-0.0721,-0.0326,-0.0011,0.0149,0.0176,0.0182,0.0336,0.0657,0.0758,0.0897,0.0758,0.0336,0.0075,0.0486,0.1644,0.3246,0.4506,0.5126,0.5553,0.6028,0.6642,0.7662,0.8537,0.8932,0.9173,0.929,0.9295,0.9124,0.8697,-0.0566,-0.0411,-0.0326,-0.0224,-0.0096,-0.0085,-0.0214,-0.0507,-0.0934,-0.1164,-0.1271,-0.1367,-0.1442,-0.1463,-0.1458,-0.1431,-0.1345,-0.1137,-0.0828,-0.0459,-0.0128,0.0107,0.0272,0.0422,0.063,0.0897,0.079,0.078,0.0518,-0.0224,-0.0774,-0.0432,0.0561,0.2093,0.3759,0.4987,0.5777,0.638,0.6935,0.7635,0.8324,0.8687,0.8836,0.8858,0.8793,0.8591,0.8137,-0.0678,-0.0539,-0.0443,-0.0368,-0.0299,-0.0288,-0.0384,-0.0603,-0.0854,-0.102,-0.1148,-0.1244,-0.1313,-0.1356,-0.1393,-0.1404,-0.1345,-0.1169,-0.0908,-0.0598,-0.0262,0.0069,0.0384,0.0635,0.078,0.0918,0.0828,0.0753,0.0448,-0.0513,-0.1495,-0.1495,-0.0769,0.047,0.2152,0.3994,0.5521,0.6578,0.7299,0.7822,0.8286,0.8591,0.8703,0.8676,0.8564,0.8318,0.7822,-0.0763,-0.063,-0.055,-0.0491,-0.0459,-0.047,-0.055,-0.071,-0.0892,-0.1036,-0.1137,-0.1185,-0.1207,-0.1249,-0.1319,-0.1361,-0.1324,-0.118,-0.0956,-0.0694,-0.04,-0.0075,0.0272,0.0577,0.0731,0.0828,0.0844,0.0747,0.0486,-0.0304,-0.1436,-0.212,-0.2045,-0.1335,-0.0101,0.1858,0.4122,0.6055,0.7352,0.8003,0.8334,0.8543,0.8639,0.8601,0.8468,0.8169,0.7667,-0.0849,-0.0721,-0.0641,-0.0598,-0.0593,-0.0625,-0.071,-0.0838,-0.0993,-0.1127,-0.1201,-0.1196,-0.1164,-0.118,-0.1244,-0.1287,-0.1265,-0.1159,-0.0982,-0.0769,-0.0523,-0.0219,0.0139,0.0481,0.0657,0.0731,0.0812,0.0683,0.0443,-0.0059,-0.0865,-0.1746,-0.2344,-0.2392,-0.1874,-0.0651,0.1628,0.4293,0.6498,0.7715,0.8233,0.8457,0.8527,0.85,0.8361,0.8057,0.7619,-0.095,-0.0822,-0.0758,-0.0737,-0.0747,-0.0796,-0.0886,-0.1004,-0.1132,-0.1249,-0.1297,-0.126,-0.1196,-0.118,-0.1201,-0.1223,-0.1196,-0.1116,-0.0977,-0.0801,-0.0593,-0.0326,0.0011,0.0352,0.0555,0.063,0.0721,0.0662,0.0358,-0.0096,-0.0641,-0.1228,-0.1858,-0.2317,-0.236,-0.2018,-0.0603,0.181,0.4522,0.653,0.7624,0.8131,0.8276,0.8286,0.8179,0.7934,0.7587,-0.1062,-0.0977,-0.0929,-0.0918,-0.094,-0.0993,-0.1078,-0.118,-0.1276,-0.1356,-0.1377,-0.134,-0.1287,-0.126,-0.1239,-0.1207,-0.1164,-0.1084,-0.0956,-0.0801,-0.0614,-0.0384,-0.0096,0.0214,0.0438,0.0545,0.0619,0.0651,0.0416,-0.0027,-0.0587,-0.1089,-0.1532,-0.1991,-0.2237,-0.2184,-0.1591,-0.0069,0.2248,0.4576,0.6316,0.7299,0.7699,0.7843,0.7832,0.7662,0.7389,-0.1212,-0.1175,-0.1153,-0.1148,-0.1159,-0.1201,-0.1271,-0.1345,-0.1404,-0.1442,-0.1442,-0.1415,-0.1388,-0.1361,-0.1313,-0.1255,-0.1191,-0.1095,-0.0956,-0.079,-0.0619,-0.0422,-0.0187,0.0069,0.0294,0.0443,0.0534,0.0577,0.0497,0.0203,-0.024,-0.0694,-0.1148,-0.1628,-0.1943,-0.2034,-0.1757,-0.0929,0.0566,0.2541,0.4469,0.5974,0.6813,0.7064,0.7176,0.7122,0.6914,-0.1361,-0.1372,-0.1383,-0.1372,-0.1367,-0.1388,-0.1431,-0.1484,-0.1532,-0.1554,-0.1543,-0.15,-0.1452,-0.1404,-0.1345,-0.1281,-0.1223,-0.1121,-0.0966,-0.0785,-0.0614,-0.0459,-0.0283,-0.008,0.0128,0.031,0.0454,0.0529,0.0491,0.032,0.0048,-0.0272,-0.0614,-0.0961,-0.1249,-0.1532,-0.1543,-0.1196,-0.0368,0.0929,0.2525,0.4132,0.5526,0.622,0.638,0.6402,0.6279,-0.1458,-0.15,-0.1554,-0.1554,-0.1532,-0.1506,-0.1527,-0.1586,-0.1655,-0.1703,-0.1703,-0.1628,-0.1495,-0.1388,-0.1276,-0.1201,-0.1169,-0.11,-0.095,-0.0769,-0.0603,-0.0481,-0.0368,-0.023,-0.0048,0.0149,0.0336,0.0459,0.0475,0.0347,0.0123,-0.0133,-0.0347,-0.0518,-0.0673,-0.0844,-0.1014,-0.0988,-0.0694,-0.0133,0.094,0.212,0.3524,0.4805,0.5483,0.5681,0.5649,-0.1415,-0.1516,-0.1709,-0.1741,-0.1671,-0.1564,-0.1554,-0.1655,-0.1773,-0.189,-0.197,-0.1895,-0.1586,-0.1463,-0.1196,-0.102,-0.0993,-0.0977,-0.0892,-0.0726,-0.0561,-0.0454,-0.0395,-0.0331,-0.0208,-0.0021,0.0182,0.0342,0.0406,0.0342,0.016,-0.0064,-0.0267,-0.0427,-0.0529,-0.0513,-0.0481,-0.0545,-0.0561,-0.0427,-0.0032,0.0662,0.1479,0.2638,0.3823,0.4474,0.4672,-0.1111,-0.1303,-0.1981,-0.2093,-0.1917,-0.158,-0.1532,-0.1783,-0.197,-0.2178,-0.2424,-0.244,-0.1612,-0.1949,-0.1233,-0.0801,-0.0737,-0.078,-0.0758,-0.0641,-0.0481,-0.0374,-0.0336,-0.0336,-0.0294,-0.0171,0.0005,0.0176,0.0288,0.0278,0.016,-0.0027,-0.0219,-0.0384,-0.0497,-0.0497,-0.0299,-0.0155,-0.0198,-0.0219,-0.0224,0.0,0.032,0.0897,0.1778,0.2632,0.3123,-0.087,-0.1116,-0.2643,-0.2819,-0.2584,-0.1474,-0.1361,-0.2258,-0.2461,-0.2563,-0.299,-0.3305,-0.1559,-0.3561,-0.1388,-0.0513,-0.0427,-0.0513,-0.0555,-0.0497,-0.0363,-0.0246,-0.0171,-0.0235,-0.0288,-0.0256,-0.0133,0.0016,0.0139,0.0166,0.0107,-0.0021,-0.0187,-0.0358,-0.0502,-0.0539,-0.0358,0.0,0.0139,0.0112,0.0005,-0.0075,-0.0059,0.0107,0.0481,0.1073,0.1628,0,0,-0.3438,-0.3759,-0.4036,-0.1356,-0.1201,-0.3433,-0.3219,-0.2547,-0.3161,-0.3583,0,-0.6727,-0.1468,-0.0326,-0.0251,-0.0363,-0.0432,-0.04,-0.0288,-0.0166,0.024,-0.0011,-0.0208,-0.0267,-0.0187,-0.008,0.0043,0.0027,0.0016,-0.0043,-0.016,-0.032,-0.0507,-0.0593,-0.0443,-0.0064,0.0294,0.0443,0.0278,0.0069,-0.008,-0.0091,0.0064,0.0326,0.0715,-0.047,-0.0464,-0.2894,-0.3796,-0.465,0,0,-0.4837,-0.401,-0.2365,-0.3075,-0.3342,-0.3914,-0.7961,0,0,0,0,0,0,0,0,0.0539,0.0139,-0.0155,-0.0251,-0.0187,-0.0096,0.0214,-0.0069,-0.0064,-0.0059,-0.0123,-0.024,-0.0491,-0.0667,-0.0577,-0.0224,0.0267,0.0545,0.0475,0.0294,0.0133,0.008,0.016,0.0192,0.0347,-0.0838,-0.0865,-0.1618,-0.2643,-0.3289,-0.1431,-0.1666,-0.4522,-0.3844,0,0,0,-0.6156,-0.583,-0.1367,-0.0667,-0.0315,-0.0187,-0.0117,-0.0037,0.0043,0,0,0,0,0,0,0,0.0256,-0.0384,-0.008,-0.0053,-0.0091,0.0075,-0.0336,-0.0726,-0.0934,-0.071,0.0133,0.0507,0.0502,0.0395,0.0299,0.0304,0.0342,0.0315,0.0347,-0.0731,-0.0069,-0.079,-0.1415,-0.1997,-0.2856,-0.3326,-0.3609,-0.3326,0.0,0.0,-0.1703,-0.4197,-0.4143,-0.2953,-0.1805,-0.0918,-0.0432,-0.0208,0.0053,0.0085,0,0,0,0,0,0,0,0,0,0,0,0,0.0331,-0.0192,-0.0641,-0.1383,-0.1762,0.0053,0.078,0.0507,0.0326,0.0246,0.0246,0.0304,0.0411,0.0523,0,0.0657,-0.0363,-0.0331,-0.0956,-0.1933,0,0,0,0,0,-0.2702,-0.3561,-0.339,-0.3145,-0.2579,-0.1783,-0.0545,-0.0182,0.0149,0,0,0,0,0,0,0,0,0,0,0,0,0,0,0,0,-0.1591,-0.2322,0,0,0.0545,0.0288,0.0198,0.0182,0.0224,0.04,0.0828,0,0,0,0.0251,-0.0235,-0.1014,0,0,0,0,0,-0.165,-0.2787,-0.2472,-0.2915,-0.3043,-0.3011,-0.0817,-0.0182,0,0,0,0,0,0,0,0,0,0,0,0,0,0,0,0,0,0,-0.2194,-0.1532,0,0,0,0,0,0,0,0.1046,0,0,0,0,0,0,0,0,0,0,0,-0.1116,-0.2157,-0.1639,-0.2376,-0.3161,-0.3876,-0.1036,0,0,0,0,0,0,0,0,0,0,0,0,0,0,0,0,0,0,0,0,-0.3065,-0.1009,-0.0432,-0.016,0,0,0,0,0,0,0,0,0,0,0,0,0,0,0,0,-0.0635,-0.2419,-0.1121,-0.1805,-0.2985,-0.3567,0,0,0,0,0,0,0,0,0,0,0,0,0,0,0,0,0,0,0,0,0,0,-0.2018,-0.0865,-0.0326,0.0,-0.0246,0.0016,0,0,0,0,0,0,0,0,0,0,0,0,0,0,-0.3129,-0.1175,-0.1628,-0.2771,-0.2632,0,0,0,0,0,0,0,0,0,0,0,0,0,0,0,0,0,0,0,0,0,0,0,0,0,0,-0.0497,0.0032,0,0,0,0,0,0,0,0,0,0,0,0,0,0,-0.2728,-0.1372,-0.165,-0.2648,-0.221,0,0,0,0,0,0,0,0,0,0,0,0,0,0,0,0,0,0,0,0,0,0,0,0,0,0,0,0,0,0,0,0,0,0,0,0,0,0,0,0,0,0,-0.1447,-0.1442,-0.158,-0.2638,-0.2552,0,0,0,0,0,0,0,0,0,0,0,0,0,0,0,0,0,0,0,0,0,0,0,0,0,0,0,0,0,0,0,0,0,0,0,0,0,0,0,0,0,0,-0.0817,-0.1655,-0.1751,-0.2632,-0.292,0,0,0,0,0,0,0,0,0,0,0,0,0,0,0,0,0,0,0,0,0,0,0,0,0,0,0,0,0,0,0,0,0,0,0,0,0,0,0,0,0,0,0,-0.095,-0.2018,-0.2221,-0.2365,0,0,0,0,0,0,0,0,0,0,0,0,0,0,0,0,0,0,0,0,0,0,0,0,0,0,0,0,0,0,0,0,0,0,0,0,0,0,0,0,0,0,0,-0.0101,-0.1292,-0.1233,-0.1794,0,0,0,0,0,0,0,0,0,0,0,0,0,0,0,0,0,0,0,0,0,0,0,0,0,0,0,0,0,0,0,0,0,0,0,0,0,0,0,0,0,0,0,0,-0.0518,-0.0641,0,0,0,0,0,0,0,0,0,0,0,0,0,0,0,0,0,0,0,0,0,0,0,0,0,0,0,0,0,0,0,0,0,0,0,0,0,0,0,0,0,0,0,0,0,0,0,0,0,0,0,0,0,0,0,0,0,0,0,0,0,0,0,0,0,0,0,0,0,0,0,0,0,0,0,0,0,0,0,0,0,0,0,0,0,0,0,0,0,0,0,0,0,0,0,0,0,0,0,0,0,0,0,0,0,0,0,0,0,0,0,0,0,0,0,0,0,0,0,0,0,0,0,0,0,0,0,0,0,0,0,0,0,0,0,0,0,0,0,0,0,0,0,0,0,0,0,0,0,0,0,0,0,0,0,0,0,0,0,0,0,0,0,0,0,0,0,0,0,0,0,0,0,0,0,0,0,0,0,0,0,0,0,0,0,0,0,0,0,0,0,0,0,0,0,0,0,0,0,0,0,0,0,0,0,0,0,0,0,0,0,0,0,0,0,0,0,0,0,0,0,0,0,0,0,0,0,0,0,0,0,0,0,0,0,0,0,0,0,0,0,0,0,0,0,0,0,0,0,0,0,0,0,0,0,0,0,0,0,0,0,0,0,0,0,0,0,0,0,0,0,0,0,0,0,0,0,0,0,0,0,0,0,0,0,0,0,0,0,0,0,0,0,0,0,0,0,0,0,0,0,0,0,0,0,0,0,0,0,0,0,0,0]}]],[[{"header":{"parameterUnit":"kt","parameterCategory":2,"dx":1,"dy":1,"la1":29.764190673828125,"la2":30.86408042907715,"lo1":-88.46762084960938,"lo2":-86.9344482421875,"nx":47,"ny":34,"refTime":"2022-09-30T00:00:00:Z","depth":"4","parameterNumber":2,"parameterNumberName":"U-component_of_CURRENTS"},"data":[0.0678,0.1105,0.1559,0.1895,0.1991,0.1911,0.1858,0.1869,0.1927,0.2029,0.2061,0.1986,0.1911,0.1879,0.1895,0.1922,0.1927,0.1922,0.1997,0.2258,0.2675,0.3049,0.3337,0.3583,0.3705,0.3673,0.3486,0.3348,0.347,0.3775,0.401,0.4015,0.3935,0.3828,0.3689,0.3502,0.3209,0.2931,0.2643,0.2355,0.2194,0.2077,0.1767,0.1217,0.0438,-0.0384,-0.0966,0.0529,0.0731,0.0972,0.1207,0.142,0.1623,0.181,0.1991,0.2157,0.2226,0.2189,0.213,0.2066,0.2024,0.2024,0.205,0.2066,0.2077,0.212,0.2242,0.2477,0.2787,0.3054,0.3171,0.3134,0.315,0.3193,0.3187,0.338,0.3791,0.3978,0.3828,0.3673,0.3599,0.3545,0.3481,0.3326,0.3097,0.2899,0.2734,0.2568,0.2392,0.2093,0.1612,0.0945,0.0176,-0.0513,0.0566,0.0683,0.0833,0.1009,0.1217,0.1442,0.1671,0.1895,0.2077,0.2178,0.2221,0.2221,0.2194,0.2173,0.2173,0.2178,0.2173,0.2173,0.2205,0.2274,0.2376,0.2493,0.2605,0.2702,0.2787,0.2958,0.3161,0.3268,0.3401,0.3588,0.3524,0.3187,0.2931,0.3043,0.3316,0.3417,0.339,0.3273,0.3155,0.3054,0.2904,0.2723,0.2456,0.2029,0.1431,0.0678,-0.0027,0.0667,0.0747,0.0849,0.0982,0.1153,0.1361,0.1596,0.1821,0.2007,0.2146,0.2242,0.229,0.2306,0.2317,0.2322,0.2317,0.2296,0.228,0.229,0.2333,0.2413,0.2504,0.2595,0.2691,0.2792,0.2969,0.323,0.3444,0.3572,0.3567,0.3305,0.2808,0.236,0.2264,0.2605,0.3118,0.338,0.339,0.3364,0.3305,0.3198,0.3059,0.2824,0.2445,0.1863,0.1164,0.0587,0.0747,0.0817,0.0918,0.1052,0.1217,0.1415,0.1634,0.1853,0.204,0.2178,0.2258,0.2306,0.2349,0.2403,0.2451,0.2451,0.2413,0.2371,0.2355,0.2365,0.2397,0.2445,0.2525,0.2648,0.2792,0.2995,0.3358,0.3737,0.3956,0.4031,0.3919,0.3593,0.3001,0.2371,0.2136,0.2408,0.2947,0.3412,0.3609,0.3567,0.3438,0.3321,0.3171,0.2888,0.2451,0.1917,0.1436,0.0817,0.0902,0.1014,0.1159,0.1319,0.1506,0.1692,0.1874,0.2018,0.212,0.2173,0.2221,0.2301,0.2408,0.2483,0.2499,0.2461,0.2413,0.2376,0.2355,0.2344,0.2355,0.2419,0.2563,0.275,0.2936,0.3225,0.3732,0.4164,0.4293,0.4266,0.4175,0.3908,0.3369,0.2728,0.2381,0.2541,0.3113,0.3705,0.3914,0.378,0.3615,0.3518,0.3364,0.3102,0.275,0.236,0.087,0.0966,0.1084,0.1223,0.1372,0.1532,0.1682,0.1815,0.1922,0.1991,0.2045,0.2109,0.221,0.2322,0.2397,0.2424,0.2403,0.2371,0.2333,0.2306,0.2285,0.229,0.2333,0.2461,0.2643,0.2814,0.2974,0.3305,0.3855,0.4319,0.4458,0.4335,0.4111,0.3775,0.3294,0.2739,0.2429,0.267,0.3321,0.3924,0.4127,0.4036,0.3903,0.386,0.3769,0.355,0.3278,0.0897,0.0982,0.1095,0.1223,0.1356,0.149,0.1612,0.1719,0.1805,0.1879,0.1954,0.2045,0.2146,0.2232,0.228,0.2301,0.2301,0.2285,0.2253,0.2221,0.22,0.2205,0.2258,0.2371,0.2525,0.268,0.2808,0.2947,0.3177,0.354,0.394,0.4202,0.4207,0.3956,0.3486,0.291,0.2306,0.1981,0.2365,0.3203,0.3887,0.4245,0.4394,0.4426,0.4378,0.4314,0.4223,0.0961,0.1025,0.1111,0.1207,0.1313,0.141,0.15,0.158,0.1671,0.1778,0.1911,0.205,0.2168,0.2242,0.228,0.228,0.2248,0.22,0.2152,0.2109,0.2093,0.2109,0.2168,0.2274,0.2408,0.2536,0.2648,0.2755,0.2856,0.2958,0.307,0.3214,0.3396,0.3529,0.3481,0.3102,0.2499,0.1922,0.1703,0.2173,0.307,0.3865,0.4431,0.4891,0.5093,0.5056,0.5061,0.1089,0.11,0.1132,0.1191,0.126,0.1313,0.1361,0.1431,0.1532,0.1687,0.1879,0.2088,0.2242,0.2322,0.2349,0.2306,0.2232,0.2141,0.2066,0.2013,0.1991,0.2002,0.2056,0.2146,0.2248,0.2355,0.2456,0.2552,0.2643,0.2712,0.275,0.2739,0.2707,0.2702,0.2776,0.2888,0.275,0.2317,0.1911,0.1815,0.221,0.3065,0.3983,0.4741,0.5382,0.574,0.5857,0.1191,0.1073,0.1057,0.1137,0.1212,0.1244,0.1255,0.1313,0.1452,0.165,0.1901,0.2136,0.2264,0.2322,0.236,0.2312,0.2216,0.2104,0.2002,0.1933,0.1895,0.1901,0.1933,0.1986,0.205,0.213,0.2216,0.2306,0.2387,0.2456,0.2504,0.2525,0.252,0.2499,0.2477,0.2488,0.2611,0.2595,0.2312,0.2045,0.2013,0.2317,0.299,0.3978,0.496,0.5718,0.6172,0.1244,0.0892,0.0817,0.0993,0.1148,0.1169,0.1105,0.1153,0.1345,0.1586,0.1853,0.2136,0.2146,0.2205,0.2376,0.229,0.2152,0.2029,0.1917,0.1831,0.1783,0.1778,0.1794,0.1805,0.1821,0.1863,0.1922,0.1997,0.2077,0.2168,0.2253,0.2317,0.2355,0.2381,0.2397,0.2387,0.2387,0.2509,0.2557,0.2403,0.2253,0.2274,0.2483,0.2947,0.3812,0.4816,0.5611,0.1105,0.0459,0.0352,0.0806,0.1132,0.1084,0.0731,0.0731,0.102,0.1196,0.1388,0.1874,0.1575,0.1783,0.2563,0.2306,0.2056,0.1922,0.1831,0.1746,0.1682,0.165,0.1607,0.1564,0.1554,0.1564,0.1586,0.1634,0.1725,0.1853,0.1991,0.2104,0.2178,0.2232,0.2274,0.2285,0.2258,0.2328,0.2515,0.2616,0.2568,0.2536,0.2579,0.268,0.2936,0.3502,0.433,0,0,0.0224,0.0651,0.1297,0.1143,0.0043,0.0011,0.0635,0.0635,0.0368,0.0299,0,0.1554,0.2616,0.1997,0.1874,0.1869,0.1815,0.1698,0.1607,0.1628,0.1543,0.1361,0.1329,0.1335,0.1329,0.134,0.1377,0.1484,0.165,0.1789,0.1901,0.1981,0.204,0.2061,0.2045,0.205,0.221,0.2493,0.2728,0.2872,0.2926,0.2942,0.292,0.2942,0.3241,0.149,0.2392,0.22,0.1121,0.0694,0,0,0.0336,0.0988,0.0422,-0.1623,-0.4079,-0.2194,0.0977,0,0,0,0,0,0,0,0,0.0363,0.0918,0.1153,0.118,0.1143,0.1185,0.1201,0.1239,0.1372,0.149,0.158,0.1623,0.1639,0.166,0.1687,0.1751,0.1863,0.2098,0.2477,0.2835,0.307,0.3203,0.3268,0.3198,0.3166,0.2296,0.2205,0.1735,0.0678,-0.0844,-0.0694,0.1212,0.1324,0.0539,0,0,0,-0.1303,-0.3796,-0.3898,-0.2237,-0.1329,-0.078,-0.04,-0.0149,-0.0059,0,0,0,0,0,0,0,0.0214,0.0758,0.1137,0.1249,0.1393,0.1377,0.1217,0.1185,0.1361,0.1714,0.1954,0.2018,0.213,0.2317,0.2499,0.2691,0.2995,0.3294,0.3417,0.267,0.2242,0.1484,0.0726,0.0032,0.0278,0.0336,-0.1223,-0.346,-0.4442,-0.4229,-0.2739,-0.1735,-0.2488,-0.26,-0.1901,-0.1105,-0.063,-0.0406,-0.0326,-0.0331,0,0,0,0,0,0,0,0,0,0,0,0,0.0288,0.063,0.0689,0.0865,0.1484,0.2013,0.2034,0.2034,0.213,0.221,0.2285,0.2451,0.2776,0.3145,0,0.0443,0.1105,0.0913,0.0059,-0.0384,0,0,0,0,0,-0.0582,-0.1564,-0.2146,-0.2114,-0.1623,-0.0988,-0.0523,-0.0336,-0.0246,0,0,0,0,0,0,0,0,0,0,0,0,0,0,0,0,-0.0096,0.0027,0,0,0.1484,0.1837,0.1943,0.2002,0.212,0.2435,0.2573,0,0,0,0.0251,0.0539,0.0577,0,0,0,0,0,-0.0224,-0.0998,-0.1639,-0.1618,-0.1383,-0.094,-0.0555,-0.0416,0,0,0,0,0,0,0,0,0,0,0,0,0,0,0,0,0,0,-0.1911,-0.2723,0,0,0,0,0,0,0,0.0539,0,0,0,0,0,0,0,0,0,0,0,-0.0149,-0.0689,-0.1111,-0.1041,-0.0689,0.0085,0.0603,0,0,0,0,0,0,0,0,0,0,0,0,0,0,0,0,0,0,0,0,-0.1207,-0.1725,-0.0641,-0.0251,0,0,0,0,0,0,0,0,0,0,0,0,0,0,0,0,-0.0342,-0.0635,-0.0593,-0.0646,-0.0246,0.0203,0,0,0,0,0,0,0,0,0,0,0,0,0,0,0,0,0,0,0,0,0,0,-0.0774,-0.1383,-0.1217,-0.0913,-0.0363,-0.0096,0,0,0,0,0,0,0,0,0,0,0,0,0,0,-0.0507,-0.0988,-0.0956,-0.0315,0.0278,0,0,0,0,0,0,0,0,0,0,0,0,0,0,0,0,0,0,0,0,0,0,0,0,0,0,-0.0117,-0.0235,0,0,0,0,0,0,0,0,0,0,0,0,0,0,-0.0678,-0.1078,-0.0918,-0.0507,0.0016,0,0,0,0,0,0,0,0,0,0,0,0,0,0,0,0,0,0,0,0,0,0,0,0,0,0,0,0,0,0,0,0,0,0,0,0,0,0,0,0,0,0,-0.0368,-0.0561,-0.0721,-0.0566,-0.0091,0,0,0,0,0,0,0,0,0,0,0,0,0,0,0,0,0,0,0,0,0,0,0,0,0,0,0,0,0,0,0,0,0,0,0,0,0,0,0,0,0,0,-0.0667,-0.1036,-0.0796,-0.0673,-0.0513,0,0,0,0,0,0,0,0,0,0,0,0,0,0,0,0,0,0,0,0,0,0,0,0,0,0,0,0,0,0,0,0,0,0,0,0,0,0,0,0,0,0,0,0.0272,0.0598,0.0432,0.0198,0,0,0,0,0,0,0,0,0,0,0,0,0,0,0,0,0,0,0,0,0,0,0,0,0,0,0,0,0,0,0,0,0,0,0,0,0,0,0,0,0,0,0,0.0593,0.0304,-0.031,-0.0091,0,0,0,0,0,0,0,0,0,0,0,0,0,0,0,0,0,0,0,0,0,0,0,0,0,0,0,0,0,0,0,0,0,0,0,0,0,0,0,0,0,0,0,0,0.0171,0.0336,0,0,0,0,0,0,0,0,0,0,0,0,0,0,0,0,0,0,0,0,0,0,0,0,0,0,0,0,0,0,0,0,0,0,0,0,0,0,0,0,0,0,0,0,0,0,0,0,0,0,0,0,0,0,0,0,0,0,0,0,0,0,0,0,0,0,0,0,0,0,0,0,0,0,0,0,0,0,0,0,0,0,0,0,0,0,0,0,0,0,0,0,0,0,0,0,0,0,0,0,0,0,0,0,0,0,0,0,0,0,0,0,0,0,0,0,0,0,0,0,0,0,0,0,0,0,0,0,0,0,0,0,0,0,0,0,0,0,0,0,0,0,0,0,0,0,0,0,0,0,0,0,0,0,0,0,0,0,0,0,0,0,0,0,0,0,0,0,0,0,0,0,0,0,0,0,0,0,0,0,0,0,0,0,0,0,0,0,0,0,0,0,0,0,0,0,0,0,0,0,0,0,0,0,0,0,0,0,0,0,0,0,0,0,0,0,0,0,0,0,0,0,0,0,0,0,0,0,0,0,0,0,0,0,0,0,0,0,0,0,0,0,0,0,0,0,0,0,0,0,0,0,0,0,0,0,0,0,0,0,0,0,0,0,0,0,0,0,0,0,0,0,0,0,0,0,0,0,0,0,0,0,0,0,0,0,0,0,0,0,0,0,0,0,0,0,0,0,0,0,0,0,0,0,0,0,0,0,0,0,0,0,0]}],[{"header":{"parameterUnit":"kt","parameterCategory":2,"dx":1,"dy":1,"la1":29.764190673828125,"la2":30.86408042907715,"lo1":-88.46762084960938,"lo2":-86.9344482421875,"nx":47,"ny":34,"refTime":"2022-09-30T00:00:00:Z","depth":"4","parameterNumber":3,"parameterNumberName":"V-component_of_CURRENTS"},"data":[-0.0363,-0.023,-0.0149,-0.0091,-0.0021,0.0021,-0.0101,-0.0379,-0.0838,-0.1185,-0.1351,-0.1463,-0.1532,-0.1516,-0.1458,-0.1393,-0.1276,-0.1036,-0.0667,-0.0278,0.0037,0.0198,0.023,0.023,0.039,0.071,0.0806,0.0945,0.0806,0.0384,0.0123,0.0529,0.1676,0.3273,0.4533,0.5158,0.5585,0.606,0.6679,0.7694,0.8564,0.8959,0.9199,0.9317,0.9322,0.9151,0.8724,-0.0507,-0.0352,-0.0267,-0.0166,-0.0037,-0.0027,-0.0155,-0.0443,-0.0876,-0.1105,-0.1212,-0.1313,-0.1393,-0.141,-0.1404,-0.1377,-0.1287,-0.1078,-0.0769,-0.04,-0.0075,0.016,0.0326,0.0475,0.0678,0.095,0.0844,0.0828,0.0561,-0.0182,-0.0731,-0.039,0.0598,0.2125,0.3785,0.5013,0.5809,0.6412,0.6967,0.7667,0.8356,0.8719,0.8868,0.889,0.882,0.8623,0.8169,-0.0625,-0.0481,-0.0384,-0.0304,-0.023,-0.0224,-0.032,-0.0539,-0.079,-0.0961,-0.1089,-0.1191,-0.126,-0.1303,-0.1335,-0.1345,-0.1287,-0.1111,-0.0849,-0.0539,-0.0208,0.0128,0.0438,0.0683,0.0828,0.0966,0.0881,0.0801,0.0497,-0.0464,-0.1442,-0.1442,-0.0715,0.0513,0.2189,0.4026,0.5553,0.661,0.7331,0.7854,0.8318,0.8617,0.8735,0.8708,0.8596,0.8345,0.7848,-0.0705,-0.0577,-0.0491,-0.0427,-0.0395,-0.0406,-0.0491,-0.0646,-0.0828,-0.0977,-0.1078,-0.1127,-0.1148,-0.1191,-0.1255,-0.1297,-0.126,-0.1116,-0.0897,-0.0635,-0.0347,-0.0016,0.0331,0.0635,0.0785,0.0881,0.0897,0.0796,0.0534,-0.0251,-0.1367,-0.2056,-0.1975,-0.1271,-0.0043,0.1901,0.4148,0.6081,0.7384,0.8035,0.8366,0.8575,0.8671,0.8633,0.8494,0.8195,0.7694,-0.079,-0.0657,-0.0582,-0.0539,-0.0534,-0.0566,-0.0651,-0.078,-0.0929,-0.1068,-0.1137,-0.1127,-0.1095,-0.1111,-0.1175,-0.1223,-0.1201,-0.1095,-0.0918,-0.071,-0.0464,-0.0166,0.0198,0.0534,0.071,0.0785,0.0865,0.0737,0.0497,-0.0005,-0.0806,-0.1682,-0.2274,-0.2317,-0.1794,-0.0582,0.1676,0.433,0.6524,0.7747,0.827,0.8489,0.8559,0.8532,0.8388,0.8089,0.7646,-0.0881,-0.0758,-0.0699,-0.0678,-0.0689,-0.0737,-0.0828,-0.094,-0.1068,-0.1185,-0.1223,-0.1185,-0.1121,-0.1105,-0.1127,-0.1153,-0.1132,-0.1046,-0.0913,-0.0742,-0.0534,-0.0267,0.0069,0.0411,0.0614,0.0689,0.0774,0.0721,0.0411,-0.0043,-0.0582,-0.1169,-0.1799,-0.2253,-0.229,-0.1938,-0.0529,0.1863,0.456,0.6562,0.7656,0.8163,0.8313,0.8318,0.8206,0.7961,0.7614,-0.0988,-0.0902,-0.086,-0.0854,-0.0876,-0.0929,-0.1009,-0.1105,-0.1201,-0.1281,-0.1297,-0.1255,-0.1207,-0.1175,-0.1159,-0.1132,-0.1095,-0.1014,-0.0892,-0.0737,-0.0555,-0.0326,-0.0037,0.0272,0.0491,0.0598,0.0673,0.0705,0.0475,0.0037,-0.0529,-0.1025,-0.1474,-0.1933,-0.2178,-0.212,-0.1522,0.0005,0.2301,0.4613,0.6348,0.7331,0.7736,0.7875,0.7864,0.7694,0.7421,-0.1127,-0.1089,-0.1073,-0.1068,-0.1078,-0.1127,-0.1191,-0.126,-0.1319,-0.1356,-0.1351,-0.1329,-0.1297,-0.1276,-0.1233,-0.1175,-0.1116,-0.102,-0.0886,-0.0721,-0.055,-0.0358,-0.0128,0.0128,0.0347,0.0497,0.0593,0.0635,0.0555,0.0267,-0.0176,-0.0625,-0.1084,-0.1564,-0.1885,-0.1975,-0.1698,-0.0865,0.0635,0.26,0.4506,0.6012,0.685,0.7101,0.7213,0.7154,0.6946,-0.1265,-0.1276,-0.1287,-0.1281,-0.1281,-0.1297,-0.134,-0.1393,-0.1436,-0.1463,-0.1447,-0.141,-0.1361,-0.1319,-0.126,-0.1201,-0.1143,-0.1041,-0.0886,-0.071,-0.0545,-0.039,-0.0219,-0.0021,0.0182,0.0363,0.0507,0.0582,0.0545,0.0374,0.0107,-0.0214,-0.055,-0.0897,-0.1185,-0.1468,-0.149,-0.1137,-0.0304,0.0998,0.2584,0.4175,0.5563,0.6257,0.6418,0.6439,0.6311,-0.1351,-0.1399,-0.1458,-0.1458,-0.1436,-0.1415,-0.1431,-0.149,-0.1559,-0.1607,-0.1607,-0.1538,-0.141,-0.1308,-0.1196,-0.1121,-0.1084,-0.1014,-0.087,-0.0689,-0.0529,-0.0406,-0.0299,-0.0166,0.0011,0.0208,0.039,0.0513,0.0523,0.04,0.0176,-0.008,-0.0294,-0.0464,-0.0614,-0.0785,-0.0956,-0.0929,-0.0635,-0.0069,0.1004,0.2173,0.3572,0.4853,0.5526,0.5723,0.5686,-0.1308,-0.141,-0.1602,-0.1639,-0.1575,-0.1474,-0.1458,-0.1559,-0.1676,-0.1794,-0.1874,-0.1799,-0.15,-0.1377,-0.1111,-0.094,-0.0908,-0.0892,-0.0806,-0.0646,-0.0481,-0.0379,-0.0326,-0.0262,-0.0144,0.0037,0.0235,0.0395,0.0459,0.0395,0.0214,-0.0011,-0.0214,-0.0374,-0.0475,-0.0459,-0.0427,-0.0486,-0.0502,-0.0368,0.0032,0.0721,0.1538,0.2691,0.3876,0.4522,0.4714,-0.1004,-0.1201,-0.1863,-0.1981,-0.1815,-0.149,-0.1436,-0.1682,-0.1869,-0.2072,-0.2301,-0.2296,-0.1506,-0.1815,-0.1121,-0.0715,-0.0651,-0.0689,-0.0673,-0.0561,-0.0406,-0.0299,-0.0267,-0.0272,-0.023,-0.0112,0.0059,0.023,0.0342,0.0336,0.0219,0.0032,-0.016,-0.0331,-0.0443,-0.0443,-0.0246,-0.0101,-0.0139,-0.016,-0.0171,0.0059,0.0374,0.0956,0.1837,0.2686,0.3177,-0.0758,-0.1014,-0.2504,-0.268,-0.2445,-0.1367,-0.1265,-0.213,-0.2328,-0.2424,-0.2803,-0.307,-0.1436,-0.3289,-0.1228,-0.0422,-0.0342,-0.0427,-0.047,-0.0411,-0.0283,-0.0171,-0.0101,-0.0176,-0.023,-0.0198,-0.008,0.0069,0.0192,0.0224,0.0166,0.0037,-0.0128,-0.0299,-0.0443,-0.0475,-0.0294,0.0059,0.0203,0.0171,0.0064,-0.0016,0.0,0.016,0.0534,0.1127,0.1682,0,0,-0.3262,-0.3529,-0.3743,-0.1233,-0.1105,-0.3187,-0.3001,-0.2381,-0.2953,-0.3337,0,-0.6188,-0.1244,-0.0235,-0.0171,-0.0278,-0.0347,-0.0315,-0.0208,-0.0091,0.0304,0.0048,-0.0155,-0.0208,-0.0133,-0.0021,0.0101,0.0091,0.0075,0.0021,-0.0101,-0.0256,-0.0443,-0.0529,-0.0379,0.0,0.0363,0.0507,0.0336,0.0128,-0.0021,-0.0037,0.0117,0.0379,0.0763,-0.0411,-0.0406,-0.2728,-0.3465,-0.418,0,0,-0.441,-0.3748,-0.2232,-0.2904,-0.3123,-0.362,-0.7347,0,0,0,0,0,0,0,0,0.0598,0.0198,-0.0096,-0.0192,-0.0128,-0.0037,0.0267,-0.0011,0.0,0.0,-0.0064,-0.0176,-0.0422,-0.0598,-0.0507,-0.0155,0.0331,0.0598,0.0534,0.0352,0.0192,0.0139,0.0214,0.0246,0.0395,-0.0699,-0.0721,-0.1463,-0.229,-0.2766,-0.1095,-0.1308,-0.3988,-0.3641,0,0,0,-0.5654,-0.5296,-0.11,-0.055,-0.0267,-0.0149,-0.0075,0.0,0.0075,0,0,0,0,0,0,0,0.0299,-0.032,-0.0016,0.0005,-0.0027,0.0139,-0.0272,-0.0657,-0.0865,-0.063,0.0198,0.0566,0.0555,0.0448,0.0352,0.0352,0.0395,0.0368,0.0395,-0.0582,0.0053,-0.0651,-0.1175,-0.1575,-0.2136,-0.2611,-0.3043,-0.3177,0.0,0.0,-0.1607,-0.3732,-0.3583,-0.2408,-0.1511,-0.0812,-0.0358,-0.0139,0.0117,0.0149,0,0,0,0,0,0,0,0,0,0,0,0,0.039,-0.0128,-0.0577,-0.1297,-0.165,0.0128,0.0828,0.0555,0.0368,0.0283,0.0288,0.0347,0.0454,0.0561,0,0.0742,-0.0246,-0.0214,-0.0742,-0.1511,0,0,0,0,0,-0.2541,-0.3102,-0.2846,-0.26,-0.2168,-0.1564,-0.0454,-0.0117,0.0203,0,0,0,0,0,0,0,0,0,0,0,0,0,0,0,0,-0.1511,-0.221,0,0,0.0577,0.0326,0.023,0.0219,0.0251,0.0432,0.086,0,0,0,0.032,-0.016,-0.094,0,0,0,0,0,-0.1543,-0.2461,-0.2056,-0.2403,-0.2493,-0.252,-0.0678,-0.0117,0,0,0,0,0,0,0,0,0,0,0,0,0,0,0,0,0,0,-0.2098,-0.1468,0,0,0,0,0,0,0,0.1078,0,0,0,0,0,0,0,0,0,0,0,-0.103,-0.1933,-0.1345,-0.1933,-0.2525,-0.3321,-0.0865,0,0,0,0,0,0,0,0,0,0,0,0,0,0,0,0,0,0,0,0,-0.2931,-0.0892,-0.0342,-0.0064,0,0,0,0,0,0,0,0,0,0,0,0,0,0,0,0,-0.0545,-0.2104,-0.0844,-0.1393,-0.236,-0.3273,0,0,0,0,0,0,0,0,0,0,0,0,0,0,0,0,0,0,0,0,0,0,-0.1783,-0.0683,-0.0128,0.0,-0.023,0.0032,0,0,0,0,0,0,0,0,0,0,0,0,0,0,-0.2483,-0.0561,-0.1068,-0.2098,-0.2509,0,0,0,0,0,0,0,0,0,0,0,0,0,0,0,0,0,0,0,0,0,0,0,0,0,0,-0.0464,0.0059,0,0,0,0,0,0,0,0,0,0,0,0,0,0,-0.1938,-0.0251,-0.0785,-0.1869,-0.2061,0,0,0,0,0,0,0,0,0,0,0,0,0,0,0,0,0,0,0,0,0,0,0,0,0,0,0,0,0,0,0,0,0,0,0,0,0,0,0,0,0,0,-0.0769,0.0144,-0.0224,-0.1618,-0.2328,0,0,0,0,0,0,0,0,0,0,0,0,0,0,0,0,0,0,0,0,0,0,0,0,0,0,0,0,0,0,0,0,0,0,0,0,0,0,0,0,0,0,-0.0171,0.0406,0.0294,-0.1148,-0.2568,0,0,0,0,0,0,0,0,0,0,0,0,0,0,0,0,0,0,0,0,0,0,0,0,0,0,0,0,0,0,0,0,0,0,0,0,0,0,0,0,0,0,0,0.0294,-0.0395,-0.0235,-0.1618,0,0,0,0,0,0,0,0,0,0,0,0,0,0,0,0,0,0,0,0,0,0,0,0,0,0,0,0,0,0,0,0,0,0,0,0,0,0,0,0,0,0,0,0.0123,-0.0619,-0.0117,-0.0753,0,0,0,0,0,0,0,0,0,0,0,0,0,0,0,0,0,0,0,0,0,0,0,0,0,0,0,0,0,0,0,0,0,0,0,0,0,0,0,0,0,0,0,0,0.0011,-0.0593,0,0,0,0,0,0,0,0,0,0,0,0,0,0,0,0,0,0,0,0,0,0,0,0,0,0,0,0,0,0,0,0,0,0,0,0,0,0,0,0,0,0,0,0,0,0,0,0,0,0,0,0,0,0,0,0,0,0,0,0,0,0,0,0,0,0,0,0,0,0,0,0,0,0,0,0,0,0,0,0,0,0,0,0,0,0,0,0,0,0,0,0,0,0,0,0,0,0,0,0,0,0,0,0,0,0,0,0,0,0,0,0,0,0,0,0,0,0,0,0,0,0,0,0,0,0,0,0,0,0,0,0,0,0,0,0,0,0,0,0,0,0,0,0,0,0,0,0,0,0,0,0,0,0,0,0,0,0,0,0,0,0,0,0,0,0,0,0,0,0,0,0,0,0,0,0,0,0,0,0,0,0,0,0,0,0,0,0,0,0,0,0,0,0,0,0,0,0,0,0,0,0,0,0,0,0,0,0,0,0,0,0,0,0,0,0,0,0,0,0,0,0,0,0,0,0,0,0,0,0,0,0,0,0,0,0,0,0,0,0,0,0,0,0,0,0,0,0,0,0,0,0,0,0,0,0,0,0,0,0,0,0,0,0,0,0,0,0,0,0,0,0,0,0,0,0,0,0,0,0,0,0,0,0,0,0,0,0,0,0,0,0,0,0,0,0,0,0,0,0,0,0,0,0,0,0,0,0,0,0,0,0,0]}]],[[{"header":{"parameterUnit":"kt","parameterCategory":2,"dx":1,"dy":1,"la1":29.764190673828125,"la2":30.86408042907715,"lo1":-88.46762084960938,"lo2":-86.9344482421875,"nx":47,"ny":34,"refTime":"2022-09-30T00:00:00:Z","depth":"6","parameterNumber":2,"parameterNumberName":"U-component_of_CURRENTS"},"data":[0.0683,0.1111,0.1564,0.1895,0.1997,0.1917,0.1863,0.1879,0.1943,0.204,0.2072,0.1997,0.1922,0.1885,0.1901,0.1927,0.1927,0.1927,0.2002,0.2264,0.268,0.3054,0.3342,0.3588,0.3711,0.3673,0.3492,0.3353,0.3476,0.3769,0.3994,0.3999,0.393,0.3833,0.3695,0.3508,0.3209,0.2931,0.2648,0.236,0.22,0.2082,0.1767,0.1223,0.0448,-0.0363,-0.0945,0.0534,0.0737,0.0972,0.1207,0.1426,0.1628,0.1815,0.2002,0.2168,0.2232,0.2194,0.2136,0.2072,0.2034,0.2029,0.205,0.2066,0.2082,0.212,0.2242,0.2483,0.2792,0.3059,0.3171,0.3134,0.315,0.3198,0.3198,0.338,0.378,0.3962,0.3812,0.3668,0.3604,0.355,0.3486,0.3326,0.3097,0.2904,0.2739,0.2568,0.2392,0.2093,0.1612,0.0945,0.0187,-0.0502,0.0577,0.0694,0.0844,0.1014,0.1217,0.1447,0.1676,0.1901,0.2082,0.2184,0.2226,0.2226,0.22,0.2178,0.2178,0.2184,0.2178,0.2178,0.2205,0.228,0.2376,0.2493,0.2605,0.2702,0.2787,0.2958,0.3161,0.3273,0.3401,0.3577,0.3508,0.3177,0.2926,0.3043,0.3321,0.3422,0.3396,0.3278,0.3161,0.3059,0.291,0.2723,0.2451,0.2029,0.1431,0.0683,-0.0021,0.0678,0.0758,0.086,0.0988,0.1159,0.1372,0.1602,0.1826,0.2013,0.2152,0.2242,0.229,0.2312,0.2322,0.2333,0.2328,0.2296,0.228,0.229,0.2333,0.2413,0.2504,0.2595,0.2691,0.2792,0.2974,0.3235,0.3449,0.3572,0.3561,0.33,0.2803,0.236,0.2258,0.2605,0.3123,0.3385,0.3401,0.3369,0.331,0.3198,0.3059,0.2824,0.2445,0.1863,0.1169,0.0593,0.0758,0.0828,0.0929,0.1062,0.1223,0.142,0.1639,0.1853,0.2045,0.2178,0.2264,0.2312,0.236,0.2413,0.2456,0.2451,0.2413,0.2371,0.2355,0.2365,0.2397,0.2445,0.2525,0.2648,0.2792,0.2995,0.3364,0.3743,0.3962,0.4031,0.3919,0.3593,0.3001,0.2371,0.213,0.2403,0.2947,0.3417,0.362,0.3577,0.3444,0.3321,0.3171,0.2888,0.2456,0.1927,0.1447,0.0822,0.0908,0.1025,0.1164,0.1329,0.1511,0.1698,0.1874,0.2024,0.2125,0.2178,0.2226,0.2312,0.2413,0.2488,0.2504,0.2461,0.2408,0.2371,0.2355,0.2344,0.236,0.2424,0.2563,0.275,0.2936,0.3225,0.3732,0.417,0.4298,0.4271,0.418,0.3914,0.3369,0.2728,0.2371,0.2531,0.3107,0.3711,0.3919,0.3785,0.362,0.3518,0.3364,0.3102,0.2755,0.2365,0.0881,0.0972,0.1095,0.1233,0.1383,0.1538,0.1687,0.1826,0.1927,0.2002,0.2056,0.212,0.2221,0.2328,0.2403,0.2419,0.2403,0.2365,0.2333,0.2306,0.229,0.229,0.2339,0.2461,0.2643,0.2814,0.2974,0.33,0.3855,0.4325,0.4463,0.4346,0.4122,0.378,0.33,0.2739,0.2419,0.2648,0.331,0.3924,0.4138,0.4042,0.3903,0.386,0.3769,0.3556,0.3278,0.0908,0.0988,0.1105,0.1233,0.1367,0.1495,0.1618,0.1725,0.1815,0.189,0.1965,0.2056,0.2152,0.2232,0.228,0.2296,0.2296,0.2274,0.2248,0.2221,0.2205,0.221,0.2258,0.2371,0.2525,0.268,0.2808,0.2947,0.3171,0.3534,0.394,0.4202,0.4213,0.3962,0.3492,0.2915,0.2306,0.197,0.2349,0.3193,0.3892,0.425,0.4399,0.4426,0.4373,0.4319,0.4229,0.0966,0.103,0.1116,0.1212,0.1319,0.142,0.1511,0.1591,0.1682,0.1789,0.1917,0.2056,0.2168,0.2242,0.2269,0.2269,0.2237,0.2194,0.2146,0.2109,0.2093,0.2109,0.2168,0.2274,0.2408,0.2536,0.2648,0.2755,0.2856,0.2958,0.3065,0.3209,0.339,0.3529,0.3481,0.3107,0.2499,0.1922,0.1692,0.2157,0.3065,0.3865,0.4437,0.4896,0.5099,0.5056,0.5061,0.1095,0.1105,0.1137,0.1196,0.126,0.1319,0.1372,0.1442,0.1543,0.1692,0.1885,0.2082,0.2232,0.2317,0.2339,0.2296,0.2221,0.213,0.2056,0.2013,0.1991,0.2002,0.2056,0.2146,0.2248,0.2355,0.2456,0.2552,0.2643,0.2712,0.2744,0.2739,0.2702,0.2696,0.2776,0.2888,0.2755,0.2317,0.1906,0.1805,0.2205,0.3059,0.3978,0.4746,0.5382,0.574,0.5857,0.1191,0.1073,0.1057,0.1137,0.1217,0.1249,0.1265,0.1324,0.1458,0.165,0.189,0.2125,0.2248,0.2312,0.2349,0.2301,0.2205,0.2093,0.1991,0.1927,0.1895,0.1895,0.1933,0.1981,0.2045,0.2125,0.2216,0.2301,0.2387,0.2456,0.2504,0.2525,0.2515,0.2499,0.2472,0.2483,0.2611,0.2595,0.2317,0.2045,0.2007,0.2312,0.2985,0.3972,0.496,0.5718,0.6172,0.1239,0.0886,0.0817,0.0993,0.1148,0.1175,0.1116,0.1164,0.1345,0.158,0.1842,0.2109,0.2125,0.2189,0.2355,0.2274,0.2141,0.2018,0.1906,0.1821,0.1778,0.1773,0.1789,0.1799,0.1815,0.1858,0.1922,0.1997,0.2077,0.2168,0.2253,0.2317,0.2355,0.2381,0.2392,0.2387,0.2387,0.2509,0.2563,0.2403,0.2253,0.2274,0.2483,0.2947,0.3812,0.4816,0.5617,0.11,0.0459,0.0347,0.0796,0.1127,0.1084,0.0747,0.0747,0.1025,0.1201,0.1388,0.1815,0.1548,0.1741,0.2483,0.2269,0.2034,0.1906,0.1815,0.173,0.1671,0.1639,0.1596,0.1559,0.1543,0.1559,0.1586,0.1634,0.1725,0.1853,0.1991,0.2104,0.2178,0.2226,0.2269,0.228,0.2258,0.2322,0.252,0.2621,0.2573,0.2541,0.2579,0.268,0.2936,0.3502,0.433,0,0,0.0219,0.0646,0.1228,0.1121,0.008,0.0064,0.0641,0.0641,0.039,0.032,0,0.141,0.2387,0.1933,0.1853,0.1853,0.1789,0.1676,0.1586,0.1612,0.1527,0.1351,0.1313,0.1324,0.1324,0.1335,0.1377,0.1484,0.165,0.1789,0.1895,0.1981,0.204,0.2061,0.2045,0.2045,0.221,0.2493,0.2728,0.2872,0.2931,0.2942,0.2926,0.2942,0.3241,0.1447,0.2306,0.2109,0.1201,0.0929,0,0,0.0336,0.0956,0.0411,-0.1506,-0.3759,-0.1981,0.0961,0,0,0,0,0,0,0,0,0.0363,0.0908,0.1143,0.1169,0.1132,0.1175,0.1196,0.1228,0.1367,0.1484,0.1575,0.1618,0.1639,0.1655,0.1682,0.1746,0.1858,0.2093,0.2472,0.2835,0.307,0.3203,0.3268,0.3198,0.3166,0.2141,0.2056,0.1709,0.0993,0.0123,0.0315,0.1532,0.134,0.0566,0,0,0,-0.1111,-0.3225,-0.338,-0.2066,-0.1287,-0.0763,-0.039,-0.0144,-0.0048,0,0,0,0,0,0,0,0.0219,0.0758,0.1127,0.1239,0.1383,0.1367,0.1217,0.1185,0.1351,0.1703,0.1938,0.2007,0.2125,0.2306,0.2493,0.268,0.299,0.3294,0.3417,0.2509,0.2093,0.1474,0.102,0.0924,0.1116,0.0422,-0.1185,-0.315,-0.4164,-0.3983,-0.252,-0.1356,-0.1927,-0.2168,-0.1719,-0.1068,-0.0614,-0.0395,-0.0315,-0.032,0,0,0,0,0,0,0,0,0,0,0,0,0.0294,0.063,0.0683,0.0865,0.1458,0.1981,0.2007,0.2013,0.2114,0.22,0.228,0.2445,0.2771,0.315,0,0.0438,0.1057,0.0972,0.0833,0.0961,0,0,0,0,0,-0.047,-0.1052,-0.1474,-0.1773,-0.1548,-0.0972,-0.0513,-0.0326,-0.024,0,0,0,0,0,0,0,0,0,0,0,0,0,0,0,0,-0.0075,0.0059,0,0,0.1463,0.1821,0.1933,0.1997,0.212,0.2429,0.2568,0,0,0,0.0256,0.055,0.0593,0,0,0,0,0,-0.0144,-0.047,-0.0876,-0.1249,-0.1367,-0.102,-0.0566,-0.0379,0,0,0,0,0,0,0,0,0,0,0,0,0,0,0,0,0,0,-0.1837,-0.2621,0,0,0,0,0,0,0,0.0539,0,0,0,0,0,0,0,0,0,0,0,-0.0064,-0.023,-0.0331,-0.0278,-0.0294,-0.0144,0.0085,0,0,0,0,0,0,0,0,0,0,0,0,0,0,0,0,0,0,0,0,-0.1057,-0.15,-0.0566,-0.0246,0,0,0,0,0,0,0,0,0,0,0,0,0,0,0,0,-0.0176,-0.0037,0.0368,0.0571,0.0342,0.0016,0,0,0,0,0,0,0,0,0,0,0,0,0,0,0,0,0,0,0,0,0,0,-0.0235,-0.0037,0.0219,-0.0838,-0.0902,-0.0133,0,0,0,0,0,0,0,0,0,0,0,0,0,0,0.0224,0.0486,0.0651,0.0432,0.016,0,0,0,0,0,0,0,0,0,0,0,0,0,0,0,0,0,0,0,0,0,0,0,0,0,0,-0.0112,-0.0224,0,0,0,0,0,0,0,0,0,0,0,0,0,0,0.0481,0.0881,0.0854,0.0406,-0.0091,0,0,0,0,0,0,0,0,0,0,0,0,0,0,0,0,0,0,0,0,0,0,0,0,0,0,0,0,0,0,0,0,0,0,0,0,0,0,0,0,0,0,0.0977,0.1543,0.1196,0.0481,-0.024,0,0,0,0,0,0,0,0,0,0,0,0,0,0,0,0,0,0,0,0,0,0,0,0,0,0,0,0,0,0,0,0,0,0,0,0,0,0,0,0,0,0,0.1105,0.1612,0.1393,0.0977,0.0219,0,0,0,0,0,0,0,0,0,0,0,0,0,0,0,0,0,0,0,0,0,0,0,0,0,0,0,0,0,0,0,0,0,0,0,0,0,0,0,0,0,0,0,0.0673,0.1767,0.1692,0.118,0,0,0,0,0,0,0,0,0,0,0,0,0,0,0,0,0,0,0,0,0,0,0,0,0,0,0,0,0,0,0,0,0,0,0,0,0,0,0,0,0,0,0,0.0411,-0.0139,-0.0491,0.0128,0,0,0,0,0,0,0,0,0,0,0,0,0,0,0,0,0,0,0,0,0,0,0,0,0,0,0,0,0,0,0,0,0,0,0,0,0,0,0,0,0,0,0,0,0.0144,0.0283,0,0,0,0,0,0,0,0,0,0,0,0,0,0,0,0,0,0,0,0,0,0,0,0,0,0,0,0,0,0,0,0,0,0,0,0,0,0,0,0,0,0,0,0,0,0,0,0,0,0,0,0,0,0,0,0,0,0,0,0,0,0,0,0,0,0,0,0,0,0,0,0,0,0,0,0,0,0,0,0,0,0,0,0,0,0,0,0,0,0,0,0,0,0,0,0,0,0,0,0,0,0,0,0,0,0,0,0,0,0,0,0,0,0,0,0,0,0,0,0,0,0,0,0,0,0,0,0,0,0,0,0,0,0,0,0,0,0,0,0,0,0,0,0,0,0,0,0,0,0,0,0,0,0,0,0,0,0,0,0,0,0,0,0,0,0,0,0,0,0,0,0,0,0,0,0,0,0,0,0,0,0,0,0,0,0,0,0,0,0,0,0,0,0,0,0,0,0,0,0,0,0,0,0,0,0,0,0,0,0,0,0,0,0,0,0,0,0,0,0,0,0,0,0,0,0,0,0,0,0,0,0,0,0,0,0,0,0,0,0,0,0,0,0,0,0,0,0,0,0,0,0,0,0,0,0,0,0,0,0,0,0,0,0,0,0,0,0,0,0,0,0,0,0,0,0,0,0,0,0,0,0,0,0,0,0,0,0,0,0,0,0,0,0,0,0,0,0,0,0,0,0,0,0,0,0,0,0,0,0,0,0,0]}],[{"header":{"parameterUnit":"kt","parameterCategory":2,"dx":1,"dy":1,"la1":29.764190673828125,"la2":30.86408042907715,"lo1":-88.46762084960938,"lo2":-86.9344482421875,"nx":47,"ny":34,"refTime":"2022-09-30T00:00:00:Z","depth":"6","parameterNumber":3,"parameterNumberName":"V-component_of_CURRENTS"},"data":[-0.0331,-0.0198,-0.0117,-0.0059,0.0011,0.0053,-0.0069,-0.0347,-0.0806,-0.1153,-0.1319,-0.1436,-0.1506,-0.1484,-0.1426,-0.1356,-0.1244,-0.1004,-0.0635,-0.0251,0.0064,0.0224,0.0256,0.0256,0.0416,0.0742,0.0838,0.0977,0.0838,0.0411,0.0149,0.055,0.1692,0.3289,0.4544,0.5174,0.5601,0.6076,0.6695,0.771,0.858,0.8975,0.9215,0.9333,0.9338,0.9167,0.8735,-0.0481,-0.0315,-0.023,-0.0128,0.0,0.0011,-0.0117,-0.0411,-0.0838,-0.1068,-0.118,-0.1287,-0.1367,-0.1383,-0.1372,-0.134,-0.1249,-0.1046,-0.0737,-0.0374,-0.0048,0.0192,0.0358,0.0502,0.071,0.0977,0.087,0.0854,0.0587,-0.0155,-0.0705,-0.0363,0.0619,0.2141,0.3801,0.5029,0.5825,0.6428,0.6989,0.7683,0.8372,0.8735,0.8884,0.8906,0.8842,0.8633,0.8179,-0.0593,-0.0454,-0.0352,-0.0267,-0.0192,-0.0187,-0.0283,-0.0502,-0.0758,-0.0929,-0.1057,-0.1159,-0.1228,-0.1271,-0.1303,-0.1313,-0.1249,-0.1078,-0.0817,-0.0507,-0.0176,0.0155,0.0464,0.0715,0.0854,0.0993,0.0913,0.0828,0.0518,-0.0432,-0.1404,-0.141,-0.0683,0.0539,0.221,0.4036,0.5563,0.662,0.7352,0.7875,0.8334,0.8633,0.8751,0.8724,0.8612,0.8361,0.787,-0.0678,-0.0545,-0.0459,-0.0395,-0.0363,-0.0374,-0.0454,-0.0614,-0.0796,-0.0945,-0.1046,-0.1095,-0.1116,-0.1153,-0.1223,-0.126,-0.1223,-0.1084,-0.0865,-0.0609,-0.0315,0.0011,0.0358,0.0662,0.0812,0.0908,0.0924,0.0822,0.0561,-0.0219,-0.1324,-0.2007,-0.1927,-0.1223,-0.0005,0.1922,0.4164,0.6097,0.7395,0.8051,0.8388,0.8591,0.8687,0.8649,0.851,0.8212,0.771,-0.0758,-0.063,-0.0555,-0.0513,-0.0502,-0.0534,-0.0619,-0.0747,-0.0902,-0.1036,-0.11,-0.1095,-0.1057,-0.1068,-0.1132,-0.118,-0.1164,-0.1057,-0.0886,-0.0678,-0.0432,-0.0133,0.0224,0.0566,0.0742,0.0812,0.0892,0.0769,0.0523,0.0027,-0.0769,-0.1639,-0.2221,-0.2258,-0.1741,-0.0539,0.1709,0.4346,0.654,0.7758,0.8286,0.851,0.858,0.8548,0.8404,0.8099,0.7662,-0.0844,-0.0726,-0.0667,-0.0646,-0.0662,-0.071,-0.0796,-0.0908,-0.1036,-0.1148,-0.1185,-0.1143,-0.1078,-0.1057,-0.1084,-0.1111,-0.1095,-0.1014,-0.0876,-0.071,-0.0502,-0.0235,0.0096,0.0443,0.0646,0.0715,0.0806,0.0753,0.0443,-0.0011,-0.055,-0.1137,-0.1762,-0.221,-0.2237,-0.1879,-0.0481,0.1895,0.4576,0.6578,0.7672,0.8179,0.8329,0.834,0.8228,0.7977,0.763,-0.095,-0.0865,-0.0822,-0.0817,-0.0838,-0.0892,-0.0977,-0.1068,-0.1164,-0.1233,-0.1249,-0.1207,-0.1153,-0.1127,-0.1111,-0.1089,-0.1052,-0.0977,-0.0854,-0.0705,-0.0523,-0.0294,-0.0011,0.0299,0.0523,0.063,0.0699,0.0737,0.0513,0.0069,-0.0486,-0.0988,-0.1436,-0.1895,-0.2146,-0.2077,-0.1474,0.0053,0.2339,0.4634,0.6359,0.7347,0.7752,0.7896,0.7886,0.7715,0.7432,-0.1073,-0.1041,-0.1025,-0.102,-0.1036,-0.1078,-0.1143,-0.1212,-0.1271,-0.1303,-0.1297,-0.1271,-0.1244,-0.1223,-0.118,-0.1132,-0.1073,-0.0982,-0.0849,-0.0689,-0.0518,-0.0326,-0.0096,0.0155,0.0374,0.0523,0.0619,0.0662,0.0587,0.0299,-0.0139,-0.0587,-0.1041,-0.1527,-0.1847,-0.1938,-0.166,-0.0817,0.0683,0.2638,0.4528,0.6022,0.6866,0.7117,0.7229,0.7176,0.6962,-0.1207,-0.1217,-0.1228,-0.1228,-0.1228,-0.1244,-0.1287,-0.134,-0.1377,-0.1399,-0.1388,-0.1351,-0.1308,-0.1265,-0.1207,-0.1153,-0.11,-0.0998,-0.0844,-0.0673,-0.0507,-0.0358,-0.0187,0.0005,0.0208,0.039,0.0529,0.0609,0.0571,0.04,0.0139,-0.0182,-0.0513,-0.0854,-0.1148,-0.1431,-0.1452,-0.11,-0.0262,0.1046,0.2621,0.4202,0.5585,0.6279,0.6439,0.646,0.6332,-0.1287,-0.1335,-0.1393,-0.1399,-0.1377,-0.1356,-0.1372,-0.1431,-0.1495,-0.1543,-0.1548,-0.1484,-0.1361,-0.126,-0.1148,-0.1073,-0.1036,-0.0961,-0.0822,-0.0646,-0.0486,-0.0368,-0.0267,-0.0133,0.0037,0.0235,0.0416,0.0534,0.055,0.0427,0.0203,-0.0048,-0.0262,-0.0432,-0.0582,-0.0753,-0.0918,-0.0892,-0.0598,-0.0021,0.1046,0.221,0.3604,0.4875,0.5547,0.5745,0.5707,-0.1233,-0.1345,-0.1538,-0.1575,-0.1516,-0.1415,-0.1404,-0.15,-0.1618,-0.1735,-0.181,-0.1735,-0.1447,-0.1324,-0.1062,-0.0892,-0.0854,-0.0838,-0.0753,-0.0598,-0.0438,-0.0336,-0.0283,-0.023,-0.0107,0.0069,0.0262,0.0422,0.0486,0.0422,0.024,0.0021,-0.0187,-0.0347,-0.0448,-0.0432,-0.0395,-0.0454,-0.047,-0.0331,0.0069,0.0758,0.1575,0.2723,0.3908,0.4554,0.4746,-0.0929,-0.1137,-0.1789,-0.1906,-0.1741,-0.1426,-0.1377,-0.1618,-0.1805,-0.1997,-0.22,-0.2168,-0.1431,-0.1709,-0.1046,-0.0662,-0.0603,-0.0641,-0.0619,-0.0507,-0.0358,-0.0256,-0.0224,-0.0235,-0.0192,-0.008,0.0091,0.0262,0.0368,0.0363,0.0246,0.0059,-0.0133,-0.0299,-0.0411,-0.0411,-0.0214,-0.0064,-0.0107,-0.0128,-0.0133,0.0091,0.0406,0.0988,0.1874,0.2723,0.3214,-0.0683,-0.095,-0.2387,-0.2552,-0.2322,-0.1287,-0.1196,-0.2024,-0.221,-0.2296,-0.2611,-0.2814,-0.1319,-0.2985,-0.1052,-0.0358,-0.0294,-0.0374,-0.0416,-0.0358,-0.0235,-0.0128,-0.0064,-0.0133,-0.0198,-0.0166,-0.0048,0.0101,0.0224,0.0256,0.0198,0.0069,-0.0091,-0.0262,-0.0406,-0.0438,-0.0256,0.0096,0.024,0.0208,0.0096,0.0016,0.0032,0.0192,0.0561,0.1159,0.1714,0,0,-0.3054,-0.3123,-0.3193,-0.1121,-0.1025,-0.2835,-0.2702,-0.2189,-0.2702,-0.3043,0,-0.5553,-0.087,-0.0155,-0.0117,-0.0224,-0.0288,-0.0256,-0.0155,-0.0037,0.0342,0.0085,-0.0117,-0.0171,-0.0096,0.0011,0.0139,0.0123,0.0107,0.0053,-0.0064,-0.0219,-0.04,-0.0486,-0.0336,0.0037,0.04,0.0545,0.0374,0.0166,0.0016,0.0,0.0149,0.0406,0.0796,-0.0347,-0.0342,-0.2504,-0.2867,-0.3198,0,0,-0.3641,-0.3284,-0.2082,-0.2696,-0.2872,-0.3225,-0.6615,0,0,0,0,0,0,0,0,0.0635,0.0235,-0.0059,-0.0149,-0.0085,0.0005,0.0299,0.0032,0.0037,0.0037,-0.0027,-0.0139,-0.0384,-0.055,-0.0464,-0.0117,0.0363,0.063,0.0571,0.0384,0.023,0.0176,0.0251,0.0272,0.0427,-0.0507,-0.0502,-0.1191,-0.1714,-0.1911,-0.0326,-0.0416,-0.3006,-0.3171,0,0,0,-0.4992,-0.4634,-0.0817,-0.0411,-0.0235,-0.0123,-0.0053,0.0021,0.0096,0,0,0,0,0,0,0,0.0331,-0.0278,0.0027,0.0048,0.0016,0.0176,-0.0224,-0.0603,-0.0812,-0.0577,0.0235,0.0593,0.0587,0.0475,0.0379,0.0379,0.0427,0.04,0.0427,-0.0326,0.0246,-0.0358,-0.0721,-0.1025,-0.0913,-0.0838,-0.2002,-0.2766,0.0,0.0,-0.1447,-0.3113,-0.2862,-0.173,-0.1105,-0.0715,-0.0304,-0.0091,0.016,0.0198,0,0,0,0,0,0,0,0,0,0,0,0,0.0427,-0.0085,-0.0534,-0.1228,-0.1543,0.0176,0.0854,0.0582,0.039,0.0304,0.0304,0.0363,0.0475,0.0587,0,0.0812,0.0005,0.0021,-0.0459,-0.1025,0,0,0,0,0,-0.2306,-0.2461,-0.212,-0.1773,-0.1532,-0.1233,-0.0368,-0.008,0.0235,0,0,0,0,0,0,0,0,0,0,0,0,0,0,0,0,-0.1436,-0.2088,0,0,0.0587,0.0336,0.024,0.023,0.0267,0.0448,0.0876,0,0,0,0.0395,-0.0096,-0.0876,0,0,0,0,0,-0.142,-0.2002,-0.1463,-0.1495,-0.1548,-0.173,-0.0368,-0.0075,0,0,0,0,0,0,0,0,0,0,0,0,0,0,0,0,0,0,-0.1997,-0.1388,0,0,0,0,0,0,0,0.1095,0,0,0,0,0,0,0,0,0,0,0,-0.0929,-0.158,-0.0961,-0.1164,-0.1265,-0.2162,-0.0358,0,0,0,0,0,0,0,0,0,0,0,0,0,0,0,0,0,0,0,0,-0.2771,-0.0518,-0.0235,0.0016,0,0,0,0,0,0,0,0,0,0,0,0,0,0,0,0,-0.0432,-0.15,-0.0673,-0.0966,-0.0929,-0.2333,0,0,0,0,0,0,0,0,0,0,0,0,0,0,0,0,0,0,0,0,0,0,-0.103,-0.047,0.0032,0.0,-0.0224,0.0043,0,0,0,0,0,0,0,0,0,0,0,0,0,0,-0.1137,-0.0149,-0.0694,-0.0646,-0.2077,0,0,0,0,0,0,0,0,0,0,0,0,0,0,0,0,0,0,0,0,0,0,0,0,0,0,-0.0454,0.008,0,0,0,0,0,0,0,0,0,0,0,0,0,0,-0.0315,0.0107,-0.0358,-0.0358,-0.1719,0,0,0,0,0,0,0,0,0,0,0,0,0,0,0,0,0,0,0,0,0,0,0,0,0,0,0,0,0,0,0,0,0,0,0,0,0,0,0,0,0,0,-0.0144,0.0043,0.0182,0.0101,-0.1393,0,0,0,0,0,0,0,0,0,0,0,0,0,0,0,0,0,0,0,0,0,0,0,0,0,0,0,0,0,0,0,0,0,0,0,0,0,0,0,0,0,0,-0.0352,0.0523,0.0464,0.0491,-0.1052,0,0,0,0,0,0,0,0,0,0,0,0,0,0,0,0,0,0,0,0,0,0,0,0,0,0,0,0,0,0,0,0,0,0,0,0,0,0,0,0,0,0,0,-0.0133,0.0283,0.0892,-0.0587,0,0,0,0,0,0,0,0,0,0,0,0,0,0,0,0,0,0,0,0,0,0,0,0,0,0,0,0,0,0,0,0,0,0,0,0,0,0,0,0,0,0,0,-0.1175,0.0374,0.0304,-0.0267,0,0,0,0,0,0,0,0,0,0,0,0,0,0,0,0,0,0,0,0,0,0,0,0,0,0,0,0,0,0,0,0,0,0,0,0,0,0,0,0,0,0,0,0,0.055,-0.055,0,0,0,0,0,0,0,0,0,0,0,0,0,0,0,0,0,0,0,0,0,0,0,0,0,0,0,0,0,0,0,0,0,0,0,0,0,0,0,0,0,0,0,0,0,0,0,0,0,0,0,0,0,0,0,0,0,0,0,0,0,0,0,0,0,0,0,0,0,0,0,0,0,0,0,0,0,0,0,0,0,0,0,0,0,0,0,0,0,0,0,0,0,0,0,0,0,0,0,0,0,0,0,0,0,0,0,0,0,0,0,0,0,0,0,0,0,0,0,0,0,0,0,0,0,0,0,0,0,0,0,0,0,0,0,0,0,0,0,0,0,0,0,0,0,0,0,0,0,0,0,0,0,0,0,0,0,0,0,0,0,0,0,0,0,0,0,0,0,0,0,0,0,0,0,0,0,0,0,0,0,0,0,0,0,0,0,0,0,0,0,0,0,0,0,0,0,0,0,0,0,0,0,0,0,0,0,0,0,0,0,0,0,0,0,0,0,0,0,0,0,0,0,0,0,0,0,0,0,0,0,0,0,0,0,0,0,0,0,0,0,0,0,0,0,0,0,0,0,0,0,0,0,0,0,0,0,0,0,0,0,0,0,0,0,0,0,0,0,0,0,0,0,0,0,0,0,0,0,0,0,0,0,0,0,0,0,0,0,0,0,0,0,0,0,0,0,0,0,0,0,0,0,0,0,0,0,0,0,0,0,0,0]}]],[[{"header":{"parameterUnit":"kt","parameterCategory":2,"dx":1,"dy":1,"la1":29.764190673828125,"la2":30.86408042907715,"lo1":-88.46762084960938,"lo2":-86.9344482421875,"nx":47,"ny":34,"refTime":"2022-09-30T00:00:00:Z","depth":"8","parameterNumber":2,"parameterNumberName":"U-component_of_CURRENTS"},"data":[0.0689,0.1111,0.157,0.1901,0.1997,0.1917,0.1863,0.189,0.1954,0.205,0.2077,0.2002,0.1927,0.189,0.1901,0.1927,0.1927,0.1927,0.2007,0.2269,0.2686,0.3059,0.3348,0.3588,0.3711,0.3673,0.3497,0.3364,0.3476,0.3759,0.3972,0.3978,0.3924,0.3839,0.3705,0.3508,0.3209,0.2926,0.2648,0.2365,0.2205,0.2082,0.1762,0.1223,0.0464,-0.0342,-0.0918,0.0539,0.0737,0.0977,0.1207,0.1426,0.1628,0.1821,0.2013,0.2178,0.2242,0.22,0.2136,0.2077,0.204,0.2034,0.2056,0.2066,0.2077,0.212,0.2242,0.2483,0.2792,0.3059,0.3171,0.3134,0.315,0.3203,0.3203,0.338,0.3769,0.394,0.3791,0.3663,0.3609,0.3556,0.3486,0.3332,0.3097,0.2904,0.2739,0.2573,0.2392,0.2093,0.1607,0.095,0.0198,-0.0486,0.0582,0.0699,0.0844,0.102,0.1223,0.1447,0.1682,0.1906,0.2088,0.2189,0.2226,0.2226,0.2205,0.2184,0.2184,0.2184,0.2178,0.2173,0.2205,0.2274,0.2376,0.2488,0.26,0.2696,0.2782,0.2953,0.3161,0.3278,0.3396,0.3567,0.3492,0.3166,0.292,0.3043,0.3321,0.3428,0.3401,0.3278,0.3161,0.3059,0.291,0.2723,0.2451,0.2024,0.1431,0.0689,-0.0011,0.0683,0.0763,0.0865,0.0993,0.1164,0.1372,0.1607,0.1826,0.2013,0.2152,0.2242,0.229,0.2312,0.2328,0.2339,0.2328,0.2296,0.2274,0.2285,0.2333,0.2408,0.2504,0.2595,0.2686,0.2787,0.2969,0.3235,0.3454,0.3572,0.355,0.3289,0.2798,0.2355,0.2253,0.26,0.3123,0.339,0.3406,0.3374,0.331,0.3198,0.3059,0.2824,0.2445,0.1863,0.1175,0.0598,0.0763,0.0838,0.0934,0.1068,0.1228,0.1426,0.1639,0.1858,0.2045,0.2178,0.2264,0.2317,0.236,0.2419,0.2461,0.2456,0.2408,0.2365,0.2349,0.2365,0.2397,0.2445,0.2525,0.2643,0.2787,0.2995,0.3364,0.3743,0.3967,0.4031,0.3919,0.3593,0.3001,0.2365,0.212,0.2392,0.2942,0.3422,0.3625,0.3583,0.3444,0.3321,0.3166,0.2888,0.2461,0.1938,0.1458,0.0828,0.0918,0.103,0.1169,0.1329,0.1511,0.1698,0.1879,0.2024,0.2125,0.2184,0.2232,0.2312,0.2419,0.2488,0.2499,0.2456,0.2403,0.2365,0.2349,0.2344,0.236,0.2424,0.2563,0.2744,0.2931,0.3219,0.3732,0.4175,0.4303,0.4271,0.418,0.3919,0.3374,0.2723,0.236,0.2515,0.3102,0.3716,0.393,0.3791,0.362,0.3513,0.3364,0.3102,0.276,0.2376,0.0886,0.0977,0.1095,0.1233,0.1383,0.1538,0.1692,0.1826,0.1933,0.2007,0.2061,0.2125,0.2221,0.2328,0.2397,0.2413,0.2392,0.236,0.2328,0.2301,0.229,0.229,0.2339,0.2461,0.2638,0.2808,0.2969,0.3294,0.3849,0.4325,0.4463,0.4346,0.4122,0.3785,0.3305,0.2739,0.2403,0.2632,0.3305,0.393,0.4143,0.4047,0.3908,0.3855,0.3769,0.3556,0.3284,0.0908,0.0993,0.1105,0.1233,0.1367,0.15,0.1623,0.173,0.1821,0.1895,0.197,0.2056,0.2152,0.2232,0.2269,0.2285,0.2285,0.2269,0.2242,0.2216,0.22,0.2205,0.2258,0.2371,0.2525,0.2675,0.2803,0.2942,0.3166,0.3529,0.3935,0.4202,0.4213,0.3967,0.3497,0.2915,0.2301,0.1954,0.2333,0.3182,0.3892,0.4261,0.4405,0.4426,0.4373,0.4319,0.4234,0.0972,0.103,0.1116,0.1217,0.1319,0.1426,0.1516,0.1596,0.1687,0.1794,0.1922,0.2056,0.2162,0.2232,0.2258,0.2253,0.2221,0.2178,0.2136,0.2104,0.2088,0.2104,0.2168,0.2274,0.2403,0.2531,0.2643,0.275,0.2851,0.2947,0.3054,0.3203,0.3385,0.3524,0.3481,0.3107,0.2504,0.1917,0.1676,0.2141,0.3054,0.3865,0.4437,0.4901,0.5099,0.5056,0.5061,0.1095,0.11,0.1137,0.1196,0.1265,0.1324,0.1377,0.1447,0.1548,0.1692,0.1879,0.2077,0.2221,0.2301,0.2317,0.228,0.22,0.2114,0.2045,0.2002,0.1981,0.1997,0.205,0.2136,0.2242,0.2349,0.2451,0.2547,0.2638,0.2707,0.2739,0.2728,0.2696,0.2691,0.2771,0.2888,0.2755,0.2317,0.1906,0.1799,0.2194,0.3054,0.3972,0.4746,0.5387,0.5745,0.5857,0.1185,0.1073,0.1057,0.1132,0.1212,0.1255,0.1271,0.1335,0.1458,0.1644,0.1879,0.2109,0.2232,0.229,0.2328,0.228,0.2184,0.2072,0.1975,0.1911,0.1885,0.189,0.1922,0.197,0.2034,0.212,0.221,0.2301,0.2381,0.2451,0.2499,0.252,0.2509,0.2488,0.2467,0.2477,0.2611,0.26,0.2317,0.204,0.2002,0.2306,0.2979,0.3972,0.496,0.5723,0.6177,0.1228,0.0881,0.0812,0.0982,0.1143,0.1175,0.1121,0.1169,0.1345,0.1564,0.181,0.2066,0.2082,0.2152,0.2317,0.2242,0.2114,0.1991,0.1885,0.1805,0.1762,0.1757,0.1773,0.1783,0.1805,0.1847,0.1911,0.1991,0.2072,0.2168,0.2253,0.2312,0.2349,0.2371,0.2387,0.2376,0.2381,0.2509,0.2563,0.2408,0.2253,0.2274,0.2483,0.2947,0.3807,0.4816,0.5622,0.1084,0.0454,0.0342,0.0774,0.1111,0.1084,0.0758,0.0758,0.102,0.1191,0.1361,0.1687,0.1474,0.1628,0.2306,0.2178,0.1991,0.1874,0.1778,0.1698,0.1644,0.1618,0.1575,0.1538,0.1527,0.1543,0.1575,0.1628,0.1719,0.1847,0.1986,0.2098,0.2173,0.2221,0.2264,0.2274,0.2253,0.2322,0.2515,0.2621,0.2573,0.2541,0.2579,0.268,0.2931,0.3502,0.4335,0,0,0.0203,0.0609,0.1089,0.1046,0.0128,0.0133,0.0619,0.0614,0.0395,0.0326,0,0.1212,0.2061,0.1767,0.1799,0.1799,0.1735,0.1623,0.1548,0.1575,0.1479,0.1308,0.1281,0.1303,0.1308,0.1324,0.1372,0.1484,0.1644,0.1783,0.189,0.1975,0.2029,0.205,0.2034,0.204,0.22,0.2493,0.2728,0.2872,0.2931,0.2947,0.2926,0.2942,0.3241,0.1356,0.2109,0.1901,0.1153,0.0977,0,0,0.0304,0.0865,0.0379,-0.1329,-0.3284,-0.1682,0.0902,0,0,0,0,0,0,0,0,0.0352,0.0881,0.1105,0.1137,0.1111,0.1159,0.1175,0.1217,0.1356,0.1474,0.1564,0.1607,0.1628,0.165,0.1676,0.1735,0.1847,0.2082,0.2467,0.283,0.3065,0.3203,0.3268,0.3198,0.3166,0.1847,0.1709,0.1522,0.1335,0.1324,0.1132,0.1415,0.1239,0.0566,0,0,0,-0.0886,-0.2579,-0.2792,-0.1847,-0.1217,-0.0737,-0.0379,-0.0133,-0.0037,0,0,0,0,0,0,0,0.0224,0.0747,0.11,0.1217,0.1361,0.134,0.1201,0.1169,0.1335,0.1682,0.1922,0.1991,0.2109,0.2296,0.2483,0.2675,0.2985,0.3294,0.3422,0.2082,0.1612,0.1335,0.141,0.1564,0.1201,0.0272,-0.0838,-0.2541,-0.3652,-0.355,-0.2189,-0.0902,-0.1121,-0.1426,-0.1356,-0.0982,-0.0598,-0.0379,-0.0299,-0.0304,0,0,0,0,0,0,0,0,0,0,0,0,0.0288,0.0625,0.0673,0.0838,0.1404,0.1938,0.1959,0.1981,0.2088,0.2184,0.2264,0.244,0.2771,0.3145,0,0.0416,0.0774,0.1052,0.1319,0.1244,0,0,0,0,0,-0.0059,0.0037,-0.0203,-0.0972,-0.1292,-0.0908,-0.0497,-0.032,-0.0235,0,0,0,0,0,0,0,0,0,0,0,0,0,0,0,0,-0.0048,0.0085,0,0,0.142,0.1789,0.1917,0.1986,0.2109,0.2424,0.2557,0,0,0,0.0256,0.0561,0.0609,0,0,0,0,0,0.0005,0.0785,0.094,-0.0294,-0.1169,-0.1121,-0.0571,-0.032,0,0,0,0,0,0,0,0,0,0,0,0,0,0,0,0,0,0,-0.1644,-0.2301,0,0,0,0,0,0,0,0.0539,0,0,0,0,0,0,0,0,0,0,0,0.0075,0.1148,0.1821,0.1308,0.055,-0.0283,-0.055,0,0,0,0,0,0,0,0,0,0,0,0,0,0,0,0,0,0,0,0,-0.0812,-0.0988,-0.0299,-0.024,0,0,0,0,0,0,0,0,0,0,0,0,0,0,0,0,0.0101,0.103,0.1639,0.1399,0.0683,-0.0005,0,0,0,0,0,0,0,0,0,0,0,0,0,0,0,0,0,0,0,0,0,0,0.0283,-0.0075,0.0267,0.0192,-0.0502,-0.0176,0,0,0,0,0,0,0,0,0,0,0,0,0,0,0.1036,0.1602,0.1255,0.0251,-0.0694,0,0,0,0,0,0,0,0,0,0,0,0,0,0,0,0,0,0,0,0,0,0,0,0,0,0,-0.0107,-0.0219,0,0,0,0,0,0,0,0,0,0,0,0,0,0,0.0721,0.1361,0.1297,0.0529,-0.0246,0,0,0,0,0,0,0,0,0,0,0,0,0,0,0,0,0,0,0,0,0,0,0,0,0,0,0,0,0,0,0,0,0,0,0,0,0,0,0,0,0,0,0.0651,0.1276,0.1207,0.032,-0.0534,0,0,0,0,0,0,0,0,0,0,0,0,0,0,0,0,0,0,0,0,0,0,0,0,0,0,0,0,0,0,0,0,0,0,0,0,0,0,0,0,0,0,0.0897,0.1484,0.1036,0.0747,0.0598,0,0,0,0,0,0,0,0,0,0,0,0,0,0,0,0,0,0,0,0,0,0,0,0,0,0,0,0,0,0,0,0,0,0,0,0,0,0,0,0,0,0,0,0.0416,0.0844,0.0806,0.0769,0,0,0,0,0,0,0,0,0,0,0,0,0,0,0,0,0,0,0,0,0,0,0,0,0,0,0,0,0,0,0,0,0,0,0,0,0,0,0,0,0,0,0,0.0192,-0.0304,-0.039,0.0203,0,0,0,0,0,0,0,0,0,0,0,0,0,0,0,0,0,0,0,0,0,0,0,0,0,0,0,0,0,0,0,0,0,0,0,0,0,0,0,0,0,0,0,0,0.0112,0.0224,0,0,0,0,0,0,0,0,0,0,0,0,0,0,0,0,0,0,0,0,0,0,0,0,0,0,0,0,0,0,0,0,0,0,0,0,0,0,0,0,0,0,0,0,0,0,0,0,0,0,0,0,0,0,0,0,0,0,0,0,0,0,0,0,0,0,0,0,0,0,0,0,0,0,0,0,0,0,0,0,0,0,0,0,0,0,0,0,0,0,0,0,0,0,0,0,0,0,0,0,0,0,0,0,0,0,0,0,0,0,0,0,0,0,0,0,0,0,0,0,0,0,0,0,0,0,0,0,0,0,0,0,0,0,0,0,0,0,0,0,0,0,0,0,0,0,0,0,0,0,0,0,0,0,0,0,0,0,0,0,0,0,0,0,0,0,0,0,0,0,0,0,0,0,0,0,0,0,0,0,0,0,0,0,0,0,0,0,0,0,0,0,0,0,0,0,0,0,0,0,0,0,0,0,0,0,0,0,0,0,0,0,0,0,0,0,0,0,0,0,0,0,0,0,0,0,0,0,0,0,0,0,0,0,0,0,0,0,0,0,0,0,0,0,0,0,0,0,0,0,0,0,0,0,0,0,0,0,0,0,0,0,0,0,0,0,0,0,0,0,0,0,0,0,0,0,0,0,0,0,0,0,0,0,0,0,0,0,0,0,0,0,0,0,0,0,0,0,0,0,0,0,0,0,0,0,0,0,0,0,0,0,0]}],[{"header":{"parameterUnit":"kt","parameterCategory":2,"dx":1,"dy":1,"la1":29.764190673828125,"la2":30.86408042907715,"lo1":-88.46762084960938,"lo2":-86.9344482421875,"nx":47,"ny":34,"refTime":"2022-09-30T00:00:00:Z","depth":"8","parameterNumber":3,"parameterNumberName":"V-component_of_CURRENTS"},"data":[-0.031,-0.0171,-0.0096,-0.0037,0.0032,0.0075,-0.0048,-0.0326,-0.078,-0.1127,-0.1297,-0.1415,-0.1484,-0.1463,-0.1404,-0.1335,-0.1217,-0.0982,-0.0619,-0.023,0.008,0.0246,0.0278,0.0278,0.0438,0.0763,0.086,0.0998,0.086,0.0432,0.0171,0.0571,0.1703,0.3294,0.4549,0.5179,0.5611,0.6092,0.6706,0.772,0.8585,0.8986,0.9226,0.9343,0.9349,0.9173,0.8745,-0.0459,-0.0294,-0.0208,-0.0101,0.0027,0.0037,-0.0096,-0.0379,-0.0812,-0.1046,-0.1159,-0.1265,-0.1345,-0.1361,-0.1351,-0.1319,-0.1228,-0.102,-0.0715,-0.0352,-0.0027,0.0208,0.0379,0.0523,0.0726,0.0998,0.0892,0.0876,0.0609,-0.0139,-0.0689,-0.0347,0.063,0.2152,0.3812,0.5035,0.5836,0.6439,0.7,0.7699,0.8377,0.874,0.889,0.8916,0.8852,0.8644,0.819,-0.0577,-0.0432,-0.0331,-0.0246,-0.0166,-0.016,-0.0256,-0.0475,-0.0731,-0.0902,-0.1036,-0.1137,-0.1207,-0.1249,-0.1281,-0.1287,-0.1223,-0.1052,-0.079,-0.0486,-0.0155,0.0176,0.0486,0.0731,0.087,0.1014,0.0934,0.0849,0.0539,-0.0406,-0.1377,-0.1383,-0.0657,0.0555,0.2221,0.4047,0.5574,0.6631,0.7363,0.7886,0.835,0.8644,0.8761,0.8735,0.8623,0.8372,0.788,-0.0662,-0.0529,-0.0438,-0.0374,-0.0342,-0.0347,-0.0427,-0.0587,-0.0774,-0.0924,-0.1025,-0.1068,-0.1089,-0.1132,-0.1196,-0.1233,-0.1196,-0.1057,-0.0844,-0.0587,-0.0294,0.0032,0.0379,0.0678,0.0828,0.0924,0.0945,0.0844,0.0577,-0.0192,-0.1292,-0.1965,-0.1885,-0.1185,0.0027,0.1938,0.417,0.6097,0.7405,0.8062,0.8398,0.8601,0.8697,0.866,0.8521,0.8222,0.772,-0.0737,-0.0609,-0.0534,-0.0497,-0.0486,-0.0518,-0.0598,-0.0726,-0.0881,-0.1014,-0.1078,-0.1068,-0.103,-0.1041,-0.11,-0.1153,-0.1137,-0.1036,-0.0865,-0.0657,-0.0411,-0.0112,0.0246,0.0587,0.0758,0.0828,0.0913,0.079,0.0545,0.0048,-0.0737,-0.1602,-0.2178,-0.221,-0.1692,-0.0497,0.173,0.4351,0.654,0.7768,0.8297,0.8521,0.8591,0.8559,0.8409,0.8105,0.7672,-0.0822,-0.0705,-0.0646,-0.063,-0.0641,-0.0689,-0.0774,-0.0886,-0.1014,-0.1121,-0.1153,-0.1111,-0.1041,-0.1025,-0.1052,-0.1078,-0.1068,-0.0988,-0.0854,-0.0689,-0.0481,-0.0219,0.0117,0.0459,0.0662,0.0737,0.0822,0.0774,0.047,0.0016,-0.0523,-0.1111,-0.173,-0.2173,-0.2194,-0.1831,-0.0432,0.1922,0.4586,0.6583,0.7678,0.8195,0.8345,0.835,0.8238,0.7987,0.764,-0.0924,-0.0844,-0.0801,-0.0796,-0.0817,-0.087,-0.095,-0.1041,-0.1132,-0.1201,-0.1212,-0.1169,-0.1116,-0.1089,-0.1078,-0.1057,-0.1025,-0.095,-0.0833,-0.0683,-0.0502,-0.0272,0.0011,0.0315,0.0539,0.0646,0.0721,0.0758,0.0539,0.0101,-0.0459,-0.0956,-0.141,-0.1869,-0.2114,-0.204,-0.1431,0.0096,0.2365,0.465,0.637,0.7357,0.7763,0.7913,0.7896,0.7726,0.7443,-0.1041,-0.1009,-0.0993,-0.0988,-0.1004,-0.1046,-0.1111,-0.1175,-0.1228,-0.126,-0.1255,-0.1228,-0.1201,-0.118,-0.1143,-0.1095,-0.1041,-0.095,-0.0822,-0.0662,-0.0497,-0.0304,-0.008,0.0171,0.039,0.0539,0.0635,0.0678,0.0603,0.0326,-0.0107,-0.055,-0.1009,-0.149,-0.181,-0.1911,-0.1628,-0.078,0.0726,0.2664,0.4538,0.6033,0.6871,0.7133,0.7245,0.7192,0.6973,-0.1159,-0.1169,-0.1185,-0.1185,-0.1185,-0.1201,-0.1244,-0.1292,-0.1329,-0.1351,-0.134,-0.1303,-0.126,-0.1223,-0.1169,-0.1116,-0.1062,-0.0961,-0.0812,-0.0641,-0.0486,-0.0331,-0.0166,0.0027,0.0224,0.0406,0.0545,0.0619,0.0587,0.0416,0.016,-0.0155,-0.0486,-0.0822,-0.1111,-0.1399,-0.1426,-0.1068,-0.023,0.1089,0.2648,0.4223,0.5595,0.6289,0.6455,0.6476,0.6348,-0.1233,-0.1281,-0.134,-0.1351,-0.1335,-0.1313,-0.1329,-0.1383,-0.1447,-0.149,-0.15,-0.1436,-0.1319,-0.1223,-0.1111,-0.103,-0.0993,-0.0924,-0.0785,-0.0609,-0.0459,-0.0342,-0.024,-0.0112,0.0059,0.0251,0.0432,0.055,0.0566,0.0438,0.0219,-0.0032,-0.024,-0.0411,-0.0561,-0.0726,-0.0892,-0.0865,-0.0571,0.0016,0.1084,0.2237,0.3625,0.4896,0.5569,0.5766,0.5729,-0.1175,-0.1287,-0.1479,-0.1522,-0.1463,-0.1367,-0.1356,-0.1447,-0.1564,-0.1682,-0.1757,-0.1682,-0.1404,-0.1276,-0.102,-0.0849,-0.0812,-0.0796,-0.071,-0.0561,-0.0406,-0.0304,-0.0256,-0.0198,-0.0085,0.0091,0.0283,0.0438,0.0502,0.0438,0.0262,0.0037,-0.0166,-0.0331,-0.0432,-0.0411,-0.0368,-0.0432,-0.0443,-0.0304,0.0107,0.0785,0.1602,0.275,0.3935,0.4576,0.4773,-0.0865,-0.1078,-0.1714,-0.1837,-0.1682,-0.1377,-0.1329,-0.1559,-0.1741,-0.1922,-0.2093,-0.2034,-0.134,-0.1591,-0.0961,-0.0614,-0.0561,-0.0593,-0.0577,-0.0464,-0.032,-0.0224,-0.0192,-0.0203,-0.0166,-0.0053,0.0112,0.0278,0.039,0.0384,0.0262,0.008,-0.0112,-0.0278,-0.039,-0.039,-0.0192,-0.0037,-0.008,-0.0101,-0.0101,0.0117,0.0432,0.1009,0.1901,0.2755,0.3246,-0.0614,-0.0886,-0.2248,-0.2387,-0.2189,-0.1217,-0.1137,-0.1906,-0.2082,-0.2152,-0.2376,-0.2488,-0.1159,-0.2616,-0.0796,-0.0278,-0.0251,-0.0326,-0.0363,-0.031,-0.0192,-0.0091,-0.0027,-0.0107,-0.0166,-0.0139,-0.0027,0.0123,0.0246,0.0272,0.0219,0.0091,-0.0069,-0.0235,-0.0379,-0.0411,-0.023,0.0123,0.0272,0.0235,0.0123,0.0043,0.0059,0.0214,0.0582,0.118,0.1741,0,0,-0.2712,-0.2616,-0.2557,-0.102,-0.095,-0.2387,-0.2312,-0.1901,-0.2349,-0.2643,0,-0.4746,-0.0539,-0.0053,-0.0075,-0.0171,-0.023,-0.0203,-0.0107,0.0005,0.0374,0.0123,-0.008,-0.0139,-0.0069,0.0037,0.0166,0.0149,0.0133,0.008,-0.0037,-0.0192,-0.0374,-0.0454,-0.0304,0.0069,0.0438,0.0571,0.0406,0.0198,0.0048,0.0027,0.0171,0.0427,0.0817,-0.0262,-0.0256,-0.2152,-0.2146,-0.2178,0,0,-0.2686,-0.2643,-0.1837,-0.2387,-0.2525,-0.2691,-0.5654,0,0,0,0,0,0,0,0,0.0657,0.0262,-0.0021,-0.0107,-0.0043,0.0037,0.032,0.0064,0.0069,0.0069,0.0005,-0.0107,-0.0352,-0.0513,-0.0432,-0.0085,0.0395,0.0657,0.0598,0.0416,0.0256,0.0203,0.0283,0.0299,0.0448,-0.0262,-0.0144,-0.0753,-0.0929,-0.1004,0.0326,0.071,-0.1762,-0.2451,0,0,0,-0.4148,-0.3812,-0.0598,-0.0283,-0.0187,-0.0101,-0.0032,0.0048,0.0117,0,0,0,0,0,0,0,0.0352,-0.0235,0.0069,0.0085,0.0048,0.0203,-0.0187,-0.0555,-0.0763,-0.0529,0.0262,0.0619,0.0603,0.0497,0.04,0.04,0.0448,0.0422,0.0448,0.0,0.0545,0.024,0.0149,-0.0133,0.0454,0.142,-0.0715,-0.2093,0.0,0.0,-0.1164,-0.2381,-0.1938,-0.0998,-0.0641,-0.0566,-0.0262,-0.0059,0.0192,0.0235,0,0,0,0,0,0,0,0,0,0,0,0,0.0454,-0.0043,-0.0486,-0.1127,-0.1404,0.0219,0.0865,0.0593,0.04,0.031,0.031,0.0374,0.0491,0.0603,0,0.087,0.0625,0.0529,0.0123,-0.0262,0,0,0,0,0,-0.1842,-0.1602,-0.1175,-0.063,-0.0593,-0.0747,-0.0294,-0.0053,0.0262,0,0,0,0,0,0,0,0,0,0,0,0,0,0,0,0,-0.1329,-0.1885,0,0,0.0577,0.0336,0.0246,0.023,0.0272,0.0454,0.0886,0,0,0,0.047,-0.0032,-0.0785,0,0,0,0,0,-0.1164,-0.0998,-0.0828,-0.0069,0.0085,-0.0149,0.0021,-0.0048,0,0,0,0,0,0,0,0,0,0,0,0,0,0,0,0,0,0,-0.1821,-0.1148,0,0,0,0,0,0,0,0.1105,0,0,0,0,0,0,0,0,0,0,0,-0.078,-0.0705,-0.0651,0.0016,0.0854,0.0246,0.0304,0,0,0,0,0,0,0,0,0,0,0,0,0,0,0,0,0,0,0,0,-0.2296,-0.0123,0.0059,0.0096,0,0,0,0,0,0,0,0,0,0,0,0,0,0,0,0,-0.0294,-0.0497,-0.0491,-0.024,0.0908,-0.0256,0,0,0,0,0,0,0,0,0,0,0,0,0,0,0,0,0,0,0,0,0,0,-0.0246,0.0117,0.0187,0.0,-0.0224,0.0048,0,0,0,0,0,0,0,0,0,0,0,0,0,0,0.0603,0.0043,-0.0166,0.0518,-0.0763,0,0,0,0,0,0,0,0,0,0,0,0,0,0,0,0,0,0,0,0,0,0,0,0,0,0,-0.0443,0.0101,0,0,0,0,0,0,0,0,0,0,0,0,0,0,0.1212,0.032,-0.0117,0.0374,-0.0881,0,0,0,0,0,0,0,0,0,0,0,0,0,0,0,0,0,0,0,0,0,0,0,0,0,0,0,0,0,0,0,0,0,0,0,0,0,0,0,0,0,0,0.0475,0.0331,0.0075,0.0561,-0.0315,0,0,0,0,0,0,0,0,0,0,0,0,0,0,0,0,0,0,0,0,0,0,0,0,0,0,0,0,0,0,0,0,0,0,0,0,0,0,0,0,0,0,0.0021,0.0929,0.047,0.0753,0.0155,0,0,0,0,0,0,0,0,0,0,0,0,0,0,0,0,0,0,0,0,0,0,0,0,0,0,0,0,0,0,0,0,0,0,0,0,0,0,0,0,0,0,0,0.1185,0.1052,0.0796,0.016,0,0,0,0,0,0,0,0,0,0,0,0,0,0,0,0,0,0,0,0,0,0,0,0,0,0,0,0,0,0,0,0,0,0,0,0,0,0,0,0,0,0,0,0.0972,0.1014,0.0144,0.0182,0,0,0,0,0,0,0,0,0,0,0,0,0,0,0,0,0,0,0,0,0,0,0,0,0,0,0,0,0,0,0,0,0,0,0,0,0,0,0,0,0,0,0,0,0.0625,-0.0497,0,0,0,0,0,0,0,0,0,0,0,0,0,0,0,0,0,0,0,0,0,0,0,0,0,0,0,0,0,0,0,0,0,0,0,0,0,0,0,0,0,0,0,0,0,0,0,0,0,0,0,0,0,0,0,0,0,0,0,0,0,0,0,0,0,0,0,0,0,0,0,0,0,0,0,0,0,0,0,0,0,0,0,0,0,0,0,0,0,0,0,0,0,0,0,0,0,0,0,0,0,0,0,0,0,0,0,0,0,0,0,0,0,0,0,0,0,0,0,0,0,0,0,0,0,0,0,0,0,0,0,0,0,0,0,0,0,0,0,0,0,0,0,0,0,0,0,0,0,0,0,0,0,0,0,0,0,0,0,0,0,0,0,0,0,0,0,0,0,0,0,0,0,0,0,0,0,0,0,0,0,0,0,0,0,0,0,0,0,0,0,0,0,0,0,0,0,0,0,0,0,0,0,0,0,0,0,0,0,0,0,0,0,0,0,0,0,0,0,0,0,0,0,0,0,0,0,0,0,0,0,0,0,0,0,0,0,0,0,0,0,0,0,0,0,0,0,0,0,0,0,0,0,0,0,0,0,0,0,0,0,0,0,0,0,0,0,0,0,0,0,0,0,0,0,0,0,0,0,0,0,0,0,0,0,0,0,0,0,0,0,0,0,0,0,0,0,0,0,0,0,0,0,0,0,0,0,0,0,0,0,0,0]}]],[[{"header":{"parameterUnit":"kt","parameterCategory":2,"dx":1,"dy":1,"la1":29.764190673828125,"la2":30.86408042907715,"lo1":-88.46762084960938,"lo2":-86.9344482421875,"nx":47,"ny":34,"refTime":"2022-09-30T00:00:00:Z","depth":"10","parameterNumber":2,"parameterNumberName":"U-component_of_CURRENTS"},"data":[0.0689,0.1116,0.157,0.1901,0.1997,0.1917,0.1869,0.1895,0.1965,0.2061,0.2082,0.2007,0.1933,0.1895,0.1901,0.1922,0.1927,0.1927,0.2007,0.2274,0.2691,0.3065,0.3353,0.3593,0.3711,0.3673,0.3502,0.3369,0.3476,0.3753,0.3956,0.3962,0.3919,0.3839,0.3711,0.3513,0.3209,0.2926,0.2648,0.2365,0.221,0.2082,0.1762,0.1228,0.0475,-0.0315,-0.0892,0.0539,0.0737,0.0977,0.1207,0.1426,0.1628,0.1821,0.2018,0.2184,0.2242,0.22,0.2141,0.2082,0.204,0.2034,0.205,0.2066,0.2077,0.212,0.2242,0.2483,0.2792,0.3059,0.3166,0.3129,0.3145,0.3203,0.3203,0.3374,0.3753,0.3919,0.3775,0.3657,0.3609,0.3561,0.3492,0.3332,0.3097,0.2904,0.2744,0.2573,0.2397,0.2088,0.1607,0.095,0.0203,-0.047,0.0587,0.0705,0.0849,0.102,0.1223,0.1452,0.1687,0.1911,0.2088,0.2189,0.2226,0.2226,0.2205,0.2189,0.2184,0.2184,0.2173,0.2173,0.22,0.2269,0.2371,0.2488,0.2595,0.2691,0.2776,0.2953,0.3166,0.3278,0.339,0.355,0.3476,0.3155,0.2915,0.3043,0.3326,0.3433,0.3406,0.3284,0.3166,0.3065,0.291,0.2723,0.2445,0.2024,0.1431,0.0689,-0.0005,0.0689,0.0769,0.087,0.0998,0.1164,0.1377,0.1607,0.1826,0.2013,0.2146,0.2242,0.229,0.2312,0.2328,0.2339,0.2328,0.2296,0.2269,0.228,0.2328,0.2408,0.2499,0.2589,0.2686,0.2787,0.2969,0.3235,0.3454,0.3572,0.3545,0.3278,0.2792,0.2349,0.2248,0.26,0.3123,0.3396,0.3412,0.338,0.3316,0.3198,0.3054,0.2819,0.244,0.1869,0.1185,0.0609,0.0769,0.0844,0.094,0.1068,0.1233,0.1426,0.1639,0.1858,0.204,0.2178,0.2264,0.2317,0.2365,0.2419,0.2461,0.2451,0.2403,0.236,0.2344,0.236,0.2392,0.244,0.252,0.2638,0.2782,0.2995,0.3364,0.3748,0.3967,0.4031,0.3919,0.3593,0.2995,0.236,0.2114,0.2387,0.2942,0.3428,0.3631,0.3588,0.3449,0.3321,0.3166,0.2888,0.2467,0.1949,0.1468,0.0833,0.0918,0.1036,0.1169,0.1335,0.1511,0.1703,0.1879,0.2024,0.2125,0.2184,0.2237,0.2317,0.2419,0.2488,0.2493,0.2451,0.2397,0.236,0.2344,0.2344,0.236,0.2424,0.2557,0.2739,0.2926,0.3214,0.3732,0.4175,0.4303,0.4277,0.4186,0.3924,0.338,0.2723,0.2344,0.2499,0.3091,0.3716,0.3935,0.3801,0.362,0.3513,0.3358,0.3102,0.2766,0.2381,0.0886,0.0977,0.11,0.1239,0.1388,0.1543,0.1692,0.1826,0.1938,0.2013,0.2061,0.2125,0.2221,0.2328,0.2392,0.2403,0.2381,0.2349,0.2317,0.2296,0.2285,0.229,0.2339,0.2461,0.2632,0.2798,0.2958,0.3289,0.3844,0.4325,0.4469,0.4351,0.4127,0.3791,0.3316,0.2739,0.2392,0.2611,0.3294,0.393,0.4154,0.4052,0.3908,0.3855,0.3769,0.3556,0.3284,0.0913,0.0993,0.1111,0.1239,0.1372,0.1506,0.1628,0.1735,0.1826,0.1901,0.197,0.2056,0.2146,0.2221,0.2258,0.2274,0.2269,0.2253,0.2232,0.221,0.2194,0.2205,0.2258,0.2371,0.252,0.267,0.2792,0.2931,0.3161,0.3524,0.393,0.4197,0.4213,0.3972,0.3502,0.292,0.2296,0.1938,0.2312,0.3171,0.3892,0.4266,0.441,0.4431,0.4373,0.4319,0.4245,0.0972,0.1036,0.1116,0.1217,0.1324,0.1426,0.1516,0.1602,0.1692,0.1794,0.1917,0.2045,0.2152,0.2216,0.2237,0.2232,0.2205,0.2162,0.212,0.2093,0.2082,0.2098,0.2162,0.2269,0.2397,0.2525,0.2638,0.2739,0.284,0.2936,0.3043,0.3193,0.3374,0.3518,0.3476,0.3107,0.2504,0.1906,0.166,0.2125,0.3049,0.3865,0.4442,0.4901,0.5099,0.5056,0.5061,0.1095,0.11,0.1132,0.1191,0.126,0.1324,0.1383,0.1452,0.1548,0.1692,0.1874,0.2061,0.2205,0.228,0.2296,0.2248,0.2173,0.2093,0.2024,0.1986,0.197,0.1986,0.204,0.2125,0.2232,0.2339,0.244,0.2536,0.2627,0.2696,0.2728,0.2718,0.2686,0.268,0.276,0.2883,0.275,0.2317,0.1901,0.1789,0.2184,0.3043,0.3972,0.4746,0.5392,0.5745,0.5857,0.1175,0.1062,0.1046,0.1127,0.1207,0.1255,0.1276,0.1335,0.1458,0.1634,0.1858,0.2077,0.22,0.2264,0.2296,0.2248,0.2146,0.204,0.1949,0.189,0.1863,0.1874,0.1906,0.1954,0.2024,0.2104,0.22,0.229,0.2371,0.2445,0.2493,0.2509,0.2499,0.2483,0.2456,0.2472,0.2605,0.2595,0.2317,0.204,0.1997,0.2301,0.2974,0.3967,0.496,0.5729,0.6183,0.1201,0.087,0.0796,0.0972,0.1132,0.1169,0.1121,0.1169,0.1335,0.1538,0.1762,0.1981,0.2002,0.2077,0.2248,0.2189,0.2061,0.1943,0.1842,0.1767,0.1735,0.173,0.1746,0.1757,0.1778,0.1826,0.1901,0.1981,0.2066,0.2157,0.2242,0.2301,0.2339,0.2365,0.2376,0.2371,0.2376,0.2509,0.2563,0.2408,0.2253,0.2269,0.2477,0.2942,0.3807,0.4816,0.5622,0.1052,0.0443,0.032,0.0731,0.1073,0.1073,0.0769,0.0763,0.1004,0.1153,0.1276,0.1431,0.1329,0.1426,0.205,0.2029,0.1901,0.1783,0.1682,0.1612,0.158,0.1559,0.1527,0.1484,0.1484,0.1511,0.1559,0.1618,0.1709,0.1842,0.1981,0.2088,0.2162,0.221,0.2253,0.2264,0.2242,0.2312,0.2515,0.2621,0.2573,0.2541,0.2579,0.268,0.2931,0.3502,0.4341,0,0,0.0182,0.0555,0.0972,0.095,0.0182,0.0187,0.0555,0.0566,0.0374,0.031,0,0.1046,0.1762,0.1538,0.165,0.1634,0.1564,0.1479,0.141,0.1442,0.1351,0.1212,0.1191,0.1223,0.1276,0.1308,0.1361,0.1474,0.1634,0.1773,0.1879,0.1959,0.2018,0.204,0.2024,0.2024,0.2194,0.2483,0.2723,0.2872,0.2931,0.2947,0.292,0.2942,0.3241,0.1249,0.1885,0.1671,0.0993,0.0822,0,0,0.024,0.0715,0.031,-0.1169,-0.2814,-0.1399,0.0817,0,0,0,0,0,0,0,0,0.0342,0.0844,0.1052,0.1073,0.1046,0.1116,0.1116,0.118,0.1329,0.1447,0.1543,0.1586,0.1607,0.1634,0.166,0.1719,0.1837,0.2072,0.2456,0.2819,0.3054,0.3193,0.3262,0.3198,0.3161,0.1628,0.1447,0.1233,0.1025,0.0913,0.0737,0.0812,0.0758,0.0507,0,0,0,-0.0726,-0.2125,-0.2371,-0.166,-0.1137,-0.071,-0.0368,-0.0128,-0.0032,0,0,0,0,0,0,0,0.0224,0.0726,0.1041,0.1153,0.1297,0.1265,0.1137,0.1121,0.1297,0.1644,0.189,0.197,0.2093,0.228,0.2472,0.2664,0.2979,0.3294,0.3422,0.1821,0.1287,0.0913,0.0918,0.1175,0.1025,0.023,-0.0774,-0.2216,-0.3161,-0.3091,-0.189,-0.063,-0.0555,-0.0801,-0.1014,-0.0892,-0.0582,-0.0374,-0.0294,-0.0294,0,0,0,0,0,0,0,0,0,0,0,0,0.0283,0.0609,0.0646,0.0796,0.1249,0.1847,0.1874,0.1927,0.2056,0.2157,0.2248,0.2429,0.2766,0.3145,0,0.0395,0.0705,0.0769,0.1036,0.1148,0,0,0,0,0,0.0021,0.0432,0.0667,-0.0043,-0.0683,-0.0609,-0.0416,-0.031,-0.023,0,0,0,0,0,0,0,0,0,0,0,0,0,0,0,0,-0.0037,0.0101,0,0,0.1292,0.173,0.1885,0.197,0.2098,0.2408,0.2541,0,0,0,0.0256,0.0561,0.0609,0,0,0,0,0,0.0059,0.0598,0.0918,0.0406,-0.0139,-0.0374,-0.0352,-0.0304,0,0,0,0,0,0,0,0,0,0,0,0,0,0,0,0,0,0,-0.1468,-0.2024,0,0,0,0,0,0,0,0.0539,0,0,0,0,0,0,0,0,0,0,0,0.0149,0.0763,0.1089,0.0715,0.023,-0.0246,-0.0475,0,0,0,0,0,0,0,0,0,0,0,0,0,0,0,0,0,0,0,0,-0.0635,-0.0763,-0.0246,-0.0235,0,0,0,0,0,0,0,0,0,0,0,0,0,0,0,0,0.0326,0.0908,0.1137,0.1025,0.0513,0.008,0,0,0,0,0,0,0,0,0,0,0,0,0,0,0,0,0,0,0,0,0,0,0.0384,0.0283,0.0219,0.0059,-0.0363,-0.0203,0,0,0,0,0,0,0,0,0,0,0,0,0,0,0.0603,0.1089,0.1175,0.0491,-0.0139,0,0,0,0,0,0,0,0,0,0,0,0,0,0,0,0,0,0,0,0,0,0,0,0,0,0,-0.0107,-0.0214,0,0,0,0,0,0,0,0,0,0,0,0,0,0,0.0416,0.1009,0.1191,0.0454,-0.0283,0,0,0,0,0,0,0,0,0,0,0,0,0,0,0,0,0,0,0,0,0,0,0,0,0,0,0,0,0,0,0,0,0,0,0,0,0,0,0,0,0,0,0.0416,0.0993,0.1116,0.0481,-0.0117,0,0,0,0,0,0,0,0,0,0,0,0,0,0,0,0,0,0,0,0,0,0,0,0,0,0,0,0,0,0,0,0,0,0,0,0,0,0,0,0,0,0,0.0619,0.1111,0.087,0.0534,0.031,0,0,0,0,0,0,0,0,0,0,0,0,0,0,0,0,0,0,0,0,0,0,0,0,0,0,0,0,0,0,0,0,0,0,0,0,0,0,0,0,0,0,0,0.024,0.0566,0.0587,0.0513,0,0,0,0,0,0,0,0,0,0,0,0,0,0,0,0,0,0,0,0,0,0,0,0,0,0,0,0,0,0,0,0,0,0,0,0,0,0,0,0,0,0,0,0.0182,-0.008,-0.0166,0.0182,0,0,0,0,0,0,0,0,0,0,0,0,0,0,0,0,0,0,0,0,0,0,0,0,0,0,0,0,0,0,0,0,0,0,0,0,0,0,0,0,0,0,0,0,0.0091,0.0182,0,0,0,0,0,0,0,0,0,0,0,0,0,0,0,0,0,0,0,0,0,0,0,0,0,0,0,0,0,0,0,0,0,0,0,0,0,0,0,0,0,0,0,0,0,0,0,0,0,0,0,0,0,0,0,0,0,0,0,0,0,0,0,0,0,0,0,0,0,0,0,0,0,0,0,0,0,0,0,0,0,0,0,0,0,0,0,0,0,0,0,0,0,0,0,0,0,0,0,0,0,0,0,0,0,0,0,0,0,0,0,0,0,0,0,0,0,0,0,0,0,0,0,0,0,0,0,0,0,0,0,0,0,0,0,0,0,0,0,0,0,0,0,0,0,0,0,0,0,0,0,0,0,0,0,0,0,0,0,0,0,0,0,0,0,0,0,0,0,0,0,0,0,0,0,0,0,0,0,0,0,0,0,0,0,0,0,0,0,0,0,0,0,0,0,0,0,0,0,0,0,0,0,0,0,0,0,0,0,0,0,0,0,0,0,0,0,0,0,0,0,0,0,0,0,0,0,0,0,0,0,0,0,0,0,0,0,0,0,0,0,0,0,0,0,0,0,0,0,0,0,0,0,0,0,0,0,0,0,0,0,0,0,0,0,0,0,0,0,0,0,0,0,0,0,0,0,0,0,0,0,0,0,0,0,0,0,0,0,0,0,0,0,0,0,0,0,0,0,0,0,0,0,0,0,0,0,0,0,0,0,0,0]}],[{"header":{"parameterUnit":"kt","parameterCategory":2,"dx":1,"dy":1,"la1":29.764190673828125,"la2":30.86408042907715,"lo1":-88.46762084960938,"lo2":-86.9344482421875,"nx":47,"ny":34,"refTime":"2022-09-30T00:00:00:Z","depth":"10","parameterNumber":3,"parameterNumberName":"V-component_of_CURRENTS"},"data":[-0.0288,-0.0149,-0.0075,-0.0016,0.0053,0.0096,-0.0032,-0.0304,-0.0758,-0.1105,-0.1276,-0.1399,-0.1468,-0.1447,-0.1383,-0.1313,-0.1196,-0.0961,-0.0598,-0.0214,0.0096,0.0262,0.0294,0.0294,0.0454,0.0785,0.0876,0.1014,0.0881,0.0448,0.0187,0.0587,0.1709,0.3294,0.4554,0.5184,0.5622,0.6103,0.6717,0.7726,0.8591,0.8991,0.9237,0.9349,0.9354,0.9178,0.8745,-0.0443,-0.0272,-0.0187,-0.008,0.0048,0.0059,-0.0075,-0.0358,-0.079,-0.1025,-0.1143,-0.1249,-0.1329,-0.1351,-0.1335,-0.1297,-0.1207,-0.1004,-0.0694,-0.0336,-0.0011,0.023,0.0395,0.0539,0.0742,0.102,0.0913,0.0886,0.0625,-0.0123,-0.0673,-0.0336,0.0641,0.2157,0.3812,0.504,0.5841,0.645,0.701,0.771,0.8382,0.8745,0.89,0.8927,0.8858,0.8649,0.8195,-0.0566,-0.0422,-0.0315,-0.0224,-0.0144,-0.0139,-0.0235,-0.0448,-0.071,-0.0886,-0.102,-0.1121,-0.1191,-0.1233,-0.1265,-0.1265,-0.1201,-0.103,-0.0774,-0.047,-0.0139,0.0192,0.0502,0.0747,0.0886,0.1025,0.095,0.086,0.055,-0.039,-0.1351,-0.1356,-0.0635,0.0571,0.2232,0.4047,0.5574,0.6636,0.7373,0.7896,0.8356,0.8655,0.8772,0.8745,0.8633,0.8382,0.7886,-0.0646,-0.0518,-0.0427,-0.0363,-0.032,-0.0326,-0.0411,-0.0571,-0.0753,-0.0902,-0.1004,-0.1052,-0.1073,-0.1111,-0.1175,-0.1212,-0.1175,-0.1036,-0.0822,-0.0566,-0.0278,0.0048,0.0395,0.0694,0.0844,0.0934,0.0961,0.086,0.0593,-0.0171,-0.1255,-0.1927,-0.1842,-0.1148,0.0053,0.1954,0.4175,0.6103,0.7405,0.8073,0.8409,0.8612,0.8708,0.8665,0.8527,0.8228,0.7731,-0.0721,-0.0598,-0.0523,-0.0481,-0.047,-0.0502,-0.0582,-0.0715,-0.0865,-0.0993,-0.1057,-0.1046,-0.1004,-0.1014,-0.1078,-0.1132,-0.1116,-0.1014,-0.0844,-0.0641,-0.04,-0.0096,0.0262,0.0598,0.0774,0.0844,0.0929,0.0806,0.0561,0.0064,-0.071,-0.1564,-0.2136,-0.2157,-0.1644,-0.0459,0.1746,0.4357,0.654,0.7774,0.8308,0.8532,0.8601,0.8569,0.842,0.811,0.7678,-0.0806,-0.0694,-0.0635,-0.0619,-0.063,-0.0678,-0.0763,-0.087,-0.0993,-0.11,-0.1127,-0.1078,-0.1014,-0.0993,-0.1025,-0.1057,-0.1041,-0.0966,-0.0838,-0.0673,-0.0464,-0.0203,0.0133,0.0475,0.0678,0.0747,0.0838,0.0796,0.0491,0.0037,-0.0502,-0.1089,-0.1703,-0.213,-0.2152,-0.1778,-0.0395,0.1943,0.4597,0.6583,0.7683,0.8201,0.8356,0.8361,0.8244,0.7993,0.7646,-0.0902,-0.0822,-0.0785,-0.078,-0.0801,-0.0854,-0.0929,-0.102,-0.1105,-0.1169,-0.118,-0.1137,-0.1084,-0.1057,-0.1046,-0.103,-0.0998,-0.0929,-0.0812,-0.0667,-0.0486,-0.0262,0.0021,0.0331,0.055,0.0662,0.0731,0.0774,0.0561,0.0128,-0.0427,-0.0929,-0.1383,-0.1837,-0.2082,-0.2002,-0.1388,0.0133,0.2392,0.4656,0.637,0.7363,0.7774,0.7923,0.7907,0.7731,0.7453,-0.1009,-0.0977,-0.0966,-0.0961,-0.0977,-0.102,-0.1084,-0.1143,-0.1196,-0.1223,-0.1217,-0.1191,-0.1164,-0.1143,-0.1105,-0.1062,-0.1014,-0.0924,-0.0796,-0.0646,-0.0481,-0.0288,-0.0064,0.0182,0.04,0.055,0.0646,0.0689,0.0625,0.0342,-0.0075,-0.0518,-0.0972,-0.1452,-0.1778,-0.1885,-0.1602,-0.0747,0.0758,0.2691,0.4549,0.6038,0.6877,0.7144,0.7256,0.7202,0.6984,-0.1116,-0.1132,-0.1148,-0.1148,-0.1148,-0.1169,-0.1207,-0.1249,-0.1287,-0.1308,-0.1292,-0.126,-0.1217,-0.118,-0.1132,-0.1078,-0.103,-0.0934,-0.0785,-0.0619,-0.0464,-0.0315,-0.0149,0.0037,0.024,0.0416,0.0555,0.063,0.0598,0.0427,0.0176,-0.0133,-0.0459,-0.0785,-0.1078,-0.1367,-0.1399,-0.1041,-0.0198,0.1127,0.2675,0.4234,0.5601,0.63,0.6471,0.6487,0.6359,-0.118,-0.1233,-0.1297,-0.1308,-0.1292,-0.1271,-0.1287,-0.1335,-0.1393,-0.1442,-0.1447,-0.1393,-0.1281,-0.1185,-0.1078,-0.0998,-0.0956,-0.0886,-0.0747,-0.0582,-0.0432,-0.032,-0.0219,-0.0091,0.0075,0.0262,0.0438,0.0561,0.0577,0.0448,0.023,-0.0016,-0.023,-0.039,-0.0539,-0.0699,-0.0865,-0.0838,-0.0545,0.0048,0.1116,0.2258,0.3641,0.4907,0.5585,0.5788,0.5745,-0.1116,-0.1233,-0.1426,-0.1474,-0.1415,-0.1324,-0.1313,-0.1399,-0.1516,-0.1628,-0.1698,-0.1618,-0.1356,-0.1233,-0.0977,-0.0812,-0.0774,-0.0753,-0.0673,-0.0523,-0.0374,-0.0278,-0.023,-0.0176,-0.0064,0.0107,0.0294,0.0448,0.0513,0.0448,0.0272,0.0048,-0.0155,-0.0315,-0.0416,-0.0395,-0.0347,-0.0406,-0.0422,-0.0272,0.0133,0.0806,0.1628,0.2766,0.3962,0.4602,0.4805,-0.079,-0.1014,-0.1628,-0.1762,-0.1618,-0.1329,-0.1287,-0.1506,-0.1676,-0.1837,-0.1959,-0.1869,-0.1228,-0.1447,-0.087,-0.0561,-0.0518,-0.0545,-0.0529,-0.0427,-0.0283,-0.0192,-0.0166,-0.0176,-0.0144,-0.0032,0.0128,0.0294,0.04,0.0395,0.0278,0.0091,-0.0101,-0.0262,-0.0374,-0.0374,-0.0176,-0.0016,-0.0053,-0.008,-0.0075,0.0144,0.0448,0.103,0.1927,0.2776,0.3278,-0.0529,-0.0817,-0.2013,-0.2152,-0.2002,-0.1137,-0.1078,-0.1762,-0.1922,-0.1959,-0.205,-0.2002,-0.094,-0.2125,-0.0582,-0.0198,-0.0198,-0.0267,-0.0299,-0.0251,-0.0149,-0.0048,0.0005,-0.0069,-0.0133,-0.0112,-0.0005,0.0139,0.0262,0.0288,0.0235,0.0107,-0.0048,-0.0219,-0.0352,-0.0384,-0.0208,0.0144,0.0304,0.0262,0.0149,0.0069,0.008,0.0235,0.0598,0.1207,0.1767,0,0,-0.2371,-0.2216,-0.2109,-0.087,-0.0854,-0.1799,-0.1815,-0.165,-0.2045,-0.2296,0,-0.3994,-0.0379,0.0027,-0.0016,-0.0101,-0.0155,-0.0133,-0.0043,0.0053,0.039,0.0144,-0.0043,-0.0096,-0.0037,0.0064,0.0187,0.0171,0.0155,0.0101,-0.0016,-0.0171,-0.0342,-0.0422,-0.0272,0.0091,0.0464,0.0598,0.0438,0.023,0.0075,0.0053,0.0192,0.0443,0.0838,-0.0219,-0.0198,-0.1847,-0.1628,-0.1543,0,0,-0.1853,-0.212,-0.1612,-0.2098,-0.2216,-0.2216,-0.4741,0,0,0,0,0,0,0,0,0.0651,0.0272,0.0005,-0.0069,0.0,0.008,0.0342,0.0096,0.0101,0.0096,0.0032,-0.008,-0.0315,-0.0475,-0.0395,-0.0059,0.0416,0.0673,0.0625,0.0443,0.0283,0.023,0.031,0.032,0.047,-0.0182,-0.0043,-0.0491,-0.0432,-0.0331,0.0294,0.0459,-0.1127,-0.204,0,0,0,-0.3428,-0.3145,-0.0475,-0.0214,-0.016,-0.0085,-0.0016,0.0059,0.0128,0,0,0,0,0,0,0,0.0358,-0.0208,0.0101,0.0123,0.0091,0.0235,-0.0133,-0.0486,-0.0699,-0.047,0.0288,0.0635,0.0619,0.0507,0.0416,0.0416,0.0475,0.0448,0.047,0.0064,0.0587,0.0416,0.0368,0.0166,0.0422,0.0918,-0.0593,-0.1831,0.0,0.0,-0.0972,-0.1837,-0.1287,-0.0577,-0.0347,-0.0454,-0.023,-0.0043,0.0208,0.0256,0,0,0,0,0,0,0,0,0,0,0,0,0.0459,-0.0016,-0.0443,-0.1025,-0.1169,0.0267,0.0865,0.0598,0.0406,0.0315,0.0315,0.0379,0.0507,0.0614,0,0.086,0.0683,0.0539,0.0117,-0.024,0,0,0,0,0,-0.1564,-0.0753,-0.0283,0.008,0.0043,-0.0267,-0.0101,-0.0037,0.0278,0,0,0,0,0,0,0,0,0,0,0,0,0,0,0,0,-0.1217,-0.1682,0,0,0.0529,0.0331,0.0246,0.023,0.0272,0.0459,0.0892,0,0,0,0.0491,0.0011,-0.0726,0,0,0,0,0,-0.1025,-0.016,-0.0085,0.0411,0.0598,0.047,0.0363,-0.0032,0,0,0,0,0,0,0,0,0,0,0,0,0,0,0,0,0,0,-0.1634,-0.0929,0,0,0,0,0,0,0,0.1116,0,0,0,0,0,0,0,0,0,0,0,-0.0673,-0.0069,-0.0272,0.0176,0.0753,0.087,0.0646,0,0,0,0,0,0,0,0,0,0,0,0,0,0,0,0,0,0,0,0,-0.1858,-0.0059,0.024,0.0133,0,0,0,0,0,0,0,0,0,0,0,0,0,0,0,0,-0.0192,0.0171,-0.0256,-0.0149,0.0529,0.0731,0,0,0,0,0,0,0,0,0,0,0,0,0,0,0,0,0,0,0,0,0,0,-0.0123,0.0475,0.0267,0.0,-0.0219,0.0053,0,0,0,0,0,0,0,0,0,0,0,0,0,0,0.0614,0.0085,-0.0155,0.032,0.0123,0,0,0,0,0,0,0,0,0,0,0,0,0,0,0,0,0,0,0,0,0,0,0,0,0,0,-0.0432,0.0112,0,0,0,0,0,0,0,0,0,0,0,0,0,0,0.0673,0.0256,-0.0101,0.0294,-0.0272,0,0,0,0,0,0,0,0,0,0,0,0,0,0,0,0,0,0,0,0,0,0,0,0,0,0,0,0,0,0,0,0,0,0,0,0,0,0,0,0,0,0,0.0368,0.031,0.008,0.0395,0.0262,0,0,0,0,0,0,0,0,0,0,0,0,0,0,0,0,0,0,0,0,0,0,0,0,0,0,0,0,0,0,0,0,0,0,0,0,0,0,0,0,0,0,0.0203,0.0731,0.0432,0.0539,0.0657,0,0,0,0,0,0,0,0,0,0,0,0,0,0,0,0,0,0,0,0,0,0,0,0,0,0,0,0,0,0,0,0,0,0,0,0,0,0,0,0,0,0,0,0.0972,0.0785,0.0619,0.0497,0,0,0,0,0,0,0,0,0,0,0,0,0,0,0,0,0,0,0,0,0,0,0,0,0,0,0,0,0,0,0,0,0,0,0,0,0,0,0,0,0,0,0,0.0902,0.0737,0.0075,0.0384,0,0,0,0,0,0,0,0,0,0,0,0,0,0,0,0,0,0,0,0,0,0,0,0,0,0,0,0,0,0,0,0,0,0,0,0,0,0,0,0,0,0,0,0,0.0529,-0.0448,0,0,0,0,0,0,0,0,0,0,0,0,0,0,0,0,0,0,0,0,0,0,0,0,0,0,0,0,0,0,0,0,0,0,0,0,0,0,0,0,0,0,0,0,0,0,0,0,0,0,0,0,0,0,0,0,0,0,0,0,0,0,0,0,0,0,0,0,0,0,0,0,0,0,0,0,0,0,0,0,0,0,0,0,0,0,0,0,0,0,0,0,0,0,0,0,0,0,0,0,0,0,0,0,0,0,0,0,0,0,0,0,0,0,0,0,0,0,0,0,0,0,0,0,0,0,0,0,0,0,0,0,0,0,0,0,0,0,0,0,0,0,0,0,0,0,0,0,0,0,0,0,0,0,0,0,0,0,0,0,0,0,0,0,0,0,0,0,0,0,0,0,0,0,0,0,0,0,0,0,0,0,0,0,0,0,0,0,0,0,0,0,0,0,0,0,0,0,0,0,0,0,0,0,0,0,0,0,0,0,0,0,0,0,0,0,0,0,0,0,0,0,0,0,0,0,0,0,0,0,0,0,0,0,0,0,0,0,0,0,0,0,0,0,0,0,0,0,0,0,0,0,0,0,0,0,0,0,0,0,0,0,0,0,0,0,0,0,0,0,0,0,0,0,0,0,0,0,0,0,0,0,0,0,0,0,0,0,0,0,0,0,0,0,0,0,0,0,0,0,0,0,0,0,0,0,0,0,0,0,0,0,0]}]],[[{"header":{"parameterUnit":"kt","parameterCategory":2,"dx":1,"dy":1,"la1":29.764190673828125,"la2":30.86408042907715,"lo1":-88.46762084960938,"lo2":-86.9344482421875,"nx":47,"ny":34,"refTime":"2022-09-30T00:00:00:Z","depth":"12","parameterNumber":2,"parameterNumberName":"U-component_of_CURRENTS"},"data":[0.0683,0.1111,0.1564,0.1901,0.1991,0.1917,0.1869,0.1901,0.197,0.2066,0.2088,0.2013,0.1938,0.1895,0.1901,0.1922,0.1922,0.1927,0.2007,0.2274,0.2696,0.3065,0.3353,0.3593,0.3711,0.3673,0.3508,0.3374,0.3476,0.3743,0.3935,0.3946,0.3914,0.3844,0.3716,0.3513,0.3203,0.292,0.2648,0.2371,0.2216,0.2077,0.1762,0.1228,0.0486,-0.0294,-0.086,0.0545,0.0737,0.0972,0.1207,0.142,0.1628,0.1826,0.2018,0.2189,0.2248,0.22,0.2141,0.2082,0.204,0.2034,0.205,0.2061,0.2072,0.2114,0.2237,0.2483,0.2792,0.3059,0.3166,0.3123,0.3145,0.3209,0.3209,0.3374,0.3743,0.3898,0.3753,0.3647,0.3609,0.3567,0.3497,0.3332,0.3097,0.2904,0.2744,0.2579,0.2397,0.2088,0.1607,0.095,0.0214,-0.0454,0.0593,0.0705,0.0849,0.102,0.1223,0.1452,0.1687,0.1911,0.2093,0.2189,0.2221,0.2221,0.2205,0.2189,0.2184,0.2184,0.2173,0.2168,0.2194,0.2269,0.2365,0.2483,0.2589,0.268,0.2771,0.2947,0.3161,0.3278,0.3385,0.3534,0.3454,0.3139,0.291,0.3043,0.3326,0.3438,0.3412,0.3289,0.3171,0.3065,0.291,0.2723,0.2445,0.2018,0.1431,0.0694,0.0005,0.0694,0.0774,0.0876,0.0998,0.1169,0.1377,0.1607,0.1826,0.2007,0.2146,0.2237,0.229,0.2312,0.2328,0.2339,0.2328,0.229,0.2264,0.2274,0.2322,0.2403,0.2493,0.2584,0.2675,0.2782,0.2963,0.3235,0.3454,0.3567,0.3534,0.3268,0.2782,0.2344,0.2248,0.2595,0.3123,0.3401,0.3417,0.3385,0.3321,0.3203,0.3054,0.2819,0.244,0.1869,0.1191,0.0619,0.0774,0.0849,0.0945,0.1073,0.1233,0.1426,0.1639,0.1853,0.2034,0.2173,0.2258,0.2312,0.2365,0.2424,0.2461,0.2451,0.2397,0.2349,0.2333,0.2349,0.2387,0.244,0.252,0.2632,0.2776,0.299,0.3364,0.3748,0.3967,0.4031,0.3919,0.3588,0.2995,0.2355,0.2104,0.2376,0.2936,0.3433,0.3641,0.3599,0.3449,0.3321,0.3161,0.2888,0.2472,0.1965,0.1479,0.0833,0.0924,0.1036,0.1175,0.1335,0.1511,0.1698,0.1874,0.2024,0.2125,0.2184,0.2237,0.2317,0.2419,0.2483,0.2488,0.244,0.2381,0.2349,0.2339,0.2339,0.2355,0.2419,0.2552,0.2734,0.292,0.3209,0.3727,0.4175,0.4303,0.4277,0.4186,0.393,0.3385,0.2718,0.2333,0.2483,0.3086,0.3721,0.3946,0.3807,0.3625,0.3508,0.3358,0.3102,0.2771,0.2387,0.0886,0.0977,0.11,0.1239,0.1388,0.1543,0.1692,0.1826,0.1938,0.2013,0.2066,0.2125,0.2221,0.2317,0.2381,0.2392,0.2371,0.2333,0.2306,0.2285,0.228,0.2285,0.2333,0.2456,0.2627,0.2787,0.2947,0.3278,0.3839,0.4319,0.4469,0.4357,0.4132,0.3801,0.3326,0.2739,0.2376,0.2595,0.3284,0.3935,0.4159,0.4063,0.3914,0.3855,0.3769,0.3561,0.3289,0.0913,0.0993,0.1111,0.1239,0.1372,0.1506,0.1628,0.1735,0.1826,0.1901,0.197,0.205,0.2141,0.221,0.2242,0.2253,0.2248,0.2237,0.2216,0.2194,0.2189,0.2194,0.2248,0.236,0.2509,0.2659,0.2782,0.292,0.315,0.3513,0.3919,0.4186,0.4213,0.3978,0.3513,0.2926,0.229,0.1927,0.2296,0.3166,0.3892,0.4271,0.4415,0.4431,0.4373,0.4319,0.425,0.0972,0.103,0.1116,0.1217,0.1319,0.1426,0.1516,0.1602,0.1692,0.1794,0.1911,0.2034,0.2136,0.2194,0.221,0.22,0.2173,0.2136,0.2098,0.2077,0.2066,0.2088,0.2152,0.2258,0.2387,0.2515,0.2627,0.2728,0.283,0.2926,0.3033,0.3177,0.3364,0.3502,0.347,0.3107,0.2504,0.1901,0.165,0.2114,0.3038,0.3865,0.4447,0.4912,0.5104,0.5056,0.5067,0.1089,0.1095,0.1121,0.1185,0.1255,0.1324,0.1383,0.1452,0.1548,0.1687,0.1858,0.204,0.2173,0.2242,0.2253,0.2205,0.213,0.2056,0.1997,0.1959,0.1949,0.1965,0.2018,0.2109,0.2216,0.2328,0.2429,0.2525,0.2616,0.2686,0.2718,0.2707,0.2675,0.267,0.275,0.2878,0.275,0.2317,0.1895,0.1778,0.2173,0.3038,0.3967,0.4752,0.5414,0.5756,0.5862,0.1159,0.1046,0.103,0.1111,0.1196,0.1244,0.1276,0.1335,0.1447,0.1612,0.1815,0.2024,0.2146,0.221,0.2242,0.2184,0.2082,0.1975,0.1895,0.1853,0.1831,0.1842,0.1874,0.1922,0.1997,0.2088,0.2184,0.228,0.236,0.2435,0.2483,0.2499,0.2488,0.2467,0.2445,0.2461,0.26,0.2595,0.2322,0.2034,0.1991,0.2296,0.2969,0.3962,0.496,0.575,0.6231,0.1148,0.0838,0.0769,0.094,0.1111,0.1159,0.1121,0.1164,0.1313,0.1484,0.166,0.1821,0.1837,0.1927,0.2098,0.2056,0.1933,0.1805,0.1714,0.1671,0.166,0.1666,0.1671,0.1682,0.173,0.1794,0.1879,0.1965,0.2056,0.2152,0.2232,0.229,0.2328,0.2349,0.2365,0.2355,0.2365,0.2504,0.2563,0.2408,0.2253,0.2269,0.2477,0.2936,0.3801,0.4816,0.5643,0.0977,0.0422,0.0294,0.0662,0.0972,0.1036,0.0769,0.0753,0.095,0.1041,0.1175,0,0.1217,0,0.1853,0.1805,0.1719,0.165,0.158,0.1516,0.1468,0.1452,0.1426,0.1393,0.1383,0.142,0.1522,0.1596,0.1698,0.1831,0.197,0.2077,0.2146,0.22,0.2237,0.2248,0.2232,0.2301,0.2509,0.2621,0.2573,0.2541,0.2579,0.268,0.2926,0.3502,0.4346,0,0,0,0,0,0.0844,0.0219,0,0,0,0,0,0,0,0,0,0,0,0,0,0,0,0,0,0,0,0.1207,0.1255,0.1335,0.1458,0.1618,0.1757,0.1863,0.1943,0.1997,0.2018,0.2007,0.2007,0.2178,0.2477,0.2718,0.2872,0.2931,0.2942,0.292,0.2936,0.3241,0,0,0,0,0,0,0,0,0,0,0,0,0,0,0,0,0,0,0,0,0,0,0,0,0,0,0,0,0,0.1121,0.1249,0.1388,0.149,0.1538,0.1559,0.1591,0.1634,0.1703,0.1815,0.2056,0.244,0.2798,0.3038,0.3182,0.3257,0.3193,0.3161,0,0,0,0,0,0,0,0,0,0,0,0,0,0,0,0,0,0,0,0,0,0,0,0,0,0,0,0,0,0,0,0,0,0,0,0,0.1201,0.1564,0.1842,0.1938,0.2072,0.2258,0.2451,0.2643,0.2963,0.3289,0.3422,0,0,0,0,0,0,0,0,0,0,0,0,0,0,0,0,0,0,0,0,0,0,0,0,0,0,0,0,0,0,0,0,0,0,0,0,0,0,0.1639,0.166,0.181,0.2002,0.2125,0.2226,0.2413,0.2755,0.3139,0,0,0,0,0,0,0,0,0,0,0,0,0,0,0,0,0,0,0,0,0,0,0,0,0,0,0,0,0,0,0,0,0,0,0,0,0,0,0,0,0,0.1575,0.1826,0.1943,0.2082,0.2387,0.2515,0,0,0,0,0,0,0,0,0,0,0,0,0,0,0,0,0,0,0,0,0,0,0,0,0,0,0,0,0,0,0,0,0,0,0,0,0,0,0,0,0,0,0,0,0,0,0.0534,0,0,0,0,0,0,0,0,0,0,0,0,0,0,0,0,0,0,0,0,0,0,0,0,0,0,0,0,0,0,0,0,0,0,0,0,0,0,0,0,0,0,0,0,0,0,0,0,0,0,0,0,0,0,0,0,0,0,0,0,0,0,0,0,0,0,0,0,0,0,0,0,0,0,0,0,0,0,0,0,0,0,0,0,0,0,0,0,0,0,0,0,0,0,0,0,0,0,0,0,0,0,0,0,0,0,0,0,0,0,0,0,0,0,0,0,0,0,0,0,0,0,0,0,0,0,0,0,0,0,0,0,0,0,0,0,0,0,0,0,0,0,0,0,0,0,0,0,0,0,0,0,0,0,0,0,0,0,0,0,0,0,0,0,0,0,0,0,0,0,0,0,0,0,0,0,0,0,0,0,0,0,0,0,0,0,0,0,0,0,0,0,0,0,0,0,0,0,0,0,0,0,0,0,0,0,0,0,0,0,0,0,0,0,0,0,0,0,0,0,0,0,0,0,0,0,0,0,0,0,0,0,0,0,0,0,0,0,0,0,0,0,0,0,0,0,0,0,0,0,0,0,0,0,0,0,0,0,0,0,0,0,0,0,0,0,0,0,0,0,0,0,0,0,0,0,0,0,0,0,0,0,0,0,0,0,0,0,0,0,0,0,0,0,0,0,0,0,0,0,0,0,0,0,0,0,0,0,0,0,0,0,0,0,0,0,0,0,0,0,0,0,0,0,0,0,0,0,0,0,0,0,0,0,0,0,0,0,0,0,0,0,0,0,0,0,0,0,0,0,0,0,0,0,0,0,0,0,0,0,0,0,0,0,0,0,0,0,0,0,0,0,0,0,0,0,0,0,0,0,0,0,0,0,0,0,0,0,0,0,0,0,0,0,0,0,0,0,0,0,0,0,0,0,0,0,0,0,0,0,0,0,0,0,0,0,0,0,0,0,0,0,0,0,0,0,0,0,0,0,0,0,0,0,0,0,0,0,0,0,0,0,0,0,0,0,0,0,0,0,0,0,0,0,0,0,0,0,0,0,0,0,0,0,0,0,0,0,0,0,0,0,0,0,0,0,0,0,0,0,0,0,0,0,0,0,0,0,0,0,0,0,0,0,0,0,0,0,0,0,0,0,0,0,0,0,0,0,0,0,0,0,0,0,0,0,0,0,0,0,0,0,0,0,0,0,0,0,0,0,0,0,0,0,0,0,0,0,0,0,0,0,0,0,0,0,0,0,0,0,0,0,0,0,0,0,0,0,0,0,0,0,0,0,0,0,0,0,0,0,0,0,0,0,0,0,0,0,0,0,0,0,0,0,0,0,0,0,0,0,0,0,0,0,0,0,0,0,0,0,0,0,0,0,0,0,0,0,0,0,0,0,0,0,0,0,0,0,0,0,0,0,0,0,0,0,0,0,0,0,0,0,0,0,0,0,0,0,0,0,0,0,0,0,0,0,0,0,0,0,0,0,0,0,0,0,0,0,0,0,0,0,0,0,0,0,0,0,0,0,0,0,0,0,0,0,0,0,0,0,0,0,0,0,0,0,0,0,0,0,0,0,0,0,0,0,0,0,0,0,0,0,0,0,0]}],[{"header":{"parameterUnit":"kt","parameterCategory":2,"dx":1,"dy":1,"la1":29.764190673828125,"la2":30.86408042907715,"lo1":-88.46762084960938,"lo2":-86.9344482421875,"nx":47,"ny":34,"refTime":"2022-09-30T00:00:00:Z","depth":"12","parameterNumber":3,"parameterNumberName":"V-component_of_CURRENTS"},"data":[-0.0272,-0.0133,-0.0053,0.0,0.0069,0.0112,-0.0016,-0.0288,-0.0742,-0.1084,-0.126,-0.1383,-0.1458,-0.1431,-0.1367,-0.1292,-0.118,-0.0945,-0.0587,-0.0203,0.0107,0.0278,0.031,0.031,0.0475,0.0806,0.0892,0.1025,0.0897,0.0464,0.0208,0.0598,0.1714,0.3294,0.4554,0.519,0.5627,0.6108,0.6727,0.7731,0.8591,0.8996,0.9242,0.9354,0.9359,0.9178,0.8745,-0.0432,-0.0256,-0.0166,-0.0059,0.0069,0.0075,-0.0053,-0.0336,-0.0769,-0.1004,-0.1121,-0.1233,-0.1319,-0.1335,-0.1319,-0.1281,-0.1185,-0.0982,-0.0678,-0.032,0.0005,0.0246,0.0411,0.0555,0.0758,0.1036,0.0929,0.0902,0.0635,-0.0112,-0.0657,-0.032,0.0646,0.2157,0.3817,0.5045,0.5846,0.646,0.7021,0.7715,0.8388,0.8751,0.89,0.8938,0.8868,0.8655,0.8201,-0.0555,-0.0406,-0.0299,-0.0208,-0.0128,-0.0117,-0.0214,-0.0432,-0.0689,-0.0865,-0.1004,-0.1105,-0.1175,-0.1217,-0.1249,-0.1249,-0.1185,-0.1014,-0.0753,-0.0454,-0.0128,0.0208,0.0513,0.0758,0.0897,0.1036,0.0966,0.087,0.0561,-0.0368,-0.1324,-0.1329,-0.0619,0.0582,0.2237,0.4052,0.5574,0.6642,0.7379,0.7902,0.8366,0.866,0.8777,0.8756,0.8639,0.8388,0.7896,-0.0641,-0.0507,-0.0416,-0.0347,-0.0304,-0.031,-0.0395,-0.0555,-0.0737,-0.0892,-0.0988,-0.1036,-0.1057,-0.1095,-0.1153,-0.1191,-0.1153,-0.102,-0.0806,-0.0555,-0.0267,0.0059,0.0406,0.0705,0.0854,0.0945,0.0977,0.087,0.0603,-0.0149,-0.1212,-0.1879,-0.1799,-0.1111,0.008,0.1959,0.4175,0.6097,0.7405,0.8073,0.842,0.8617,0.8713,0.8676,0.8532,0.8233,0.7736,-0.071,-0.0587,-0.0513,-0.047,-0.0464,-0.0491,-0.0571,-0.0699,-0.0854,-0.0982,-0.1041,-0.1025,-0.0988,-0.0993,-0.1057,-0.1105,-0.1095,-0.0993,-0.0828,-0.0625,-0.0384,-0.0085,0.0272,0.0614,0.0785,0.0854,0.094,0.0822,0.0577,0.008,-0.0683,-0.1527,-0.2082,-0.2104,-0.1596,-0.0422,0.1762,0.4357,0.6535,0.7768,0.8313,0.8543,0.8612,0.8575,0.842,0.811,0.7678,-0.079,-0.0678,-0.0625,-0.0609,-0.0619,-0.0667,-0.0753,-0.086,-0.0982,-0.1078,-0.1105,-0.1057,-0.0988,-0.0966,-0.0998,-0.103,-0.1025,-0.095,-0.0822,-0.0657,-0.0454,-0.0192,0.0144,0.0486,0.0689,0.0763,0.0849,0.0812,0.0513,0.0059,-0.0481,-0.1068,-0.1671,-0.2077,-0.2114,-0.1714,-0.0358,0.1965,0.4597,0.6583,0.7683,0.8212,0.8366,0.8372,0.8249,0.7998,0.7651,-0.0881,-0.0806,-0.0769,-0.0763,-0.0785,-0.0838,-0.0913,-0.0998,-0.1084,-0.1143,-0.1148,-0.1105,-0.1052,-0.1025,-0.1014,-0.1009,-0.0977,-0.0908,-0.0796,-0.0651,-0.0475,-0.0251,0.0032,0.0336,0.0561,0.0673,0.0742,0.079,0.0582,0.0155,-0.0395,-0.0897,-0.1351,-0.1794,-0.205,-0.1959,-0.1356,0.0171,0.2413,0.4661,0.6359,0.7357,0.7779,0.7939,0.7918,0.7742,0.7453,-0.0982,-0.095,-0.094,-0.094,-0.0956,-0.0993,-0.1057,-0.1116,-0.1164,-0.1191,-0.118,-0.1153,-0.1127,-0.1105,-0.1068,-0.1036,-0.0988,-0.0902,-0.078,-0.0625,-0.0464,-0.0278,-0.0053,0.0192,0.0411,0.0555,0.0657,0.0699,0.0635,0.0363,-0.0043,-0.0481,-0.0929,-0.1393,-0.173,-0.1853,-0.1575,-0.0715,0.079,0.2712,0.4554,0.6033,0.6877,0.7154,0.7272,0.7213,0.6989,-0.1078,-0.1095,-0.1111,-0.1111,-0.1116,-0.1132,-0.1169,-0.1212,-0.1244,-0.126,-0.1249,-0.1212,-0.1175,-0.1137,-0.1089,-0.1046,-0.0993,-0.0902,-0.0758,-0.0593,-0.0443,-0.0299,-0.0139,0.0048,0.0246,0.0422,0.0561,0.0641,0.0603,0.0438,0.0192,-0.0112,-0.0427,-0.0742,-0.1036,-0.1329,-0.1372,-0.1014,-0.0171,0.1159,0.2696,0.4245,0.5606,0.6305,0.6487,0.6503,0.637,-0.1127,-0.118,-0.1244,-0.126,-0.1249,-0.1228,-0.1239,-0.1287,-0.1345,-0.1388,-0.1399,-0.1345,-0.1239,-0.1148,-0.1036,-0.0956,-0.0908,-0.0838,-0.071,-0.055,-0.0406,-0.0294,-0.0198,-0.0075,0.0085,0.0272,0.0448,0.0566,0.0582,0.0459,0.024,-0.0005,-0.0214,-0.0374,-0.0523,-0.0673,-0.0833,-0.0812,-0.0518,0.0085,0.1148,0.228,0.3657,0.4917,0.5595,0.5809,0.5761,-0.1046,-0.1169,-0.1356,-0.141,-0.1361,-0.1276,-0.1265,-0.1351,-0.1458,-0.1559,-0.1623,-0.1543,-0.1297,-0.1175,-0.0924,-0.0763,-0.0715,-0.0699,-0.0625,-0.0486,-0.0342,-0.0246,-0.0203,-0.0149,-0.0048,0.0123,0.0304,0.0454,0.0523,0.0454,0.0283,0.0059,-0.0144,-0.0304,-0.0406,-0.0384,-0.0331,-0.0384,-0.0395,-0.0246,0.0166,0.0828,0.1644,0.2782,0.3983,0.464,0.4853,-0.0694,-0.0934,-0.1511,-0.165,-0.1532,-0.1276,-0.1233,-0.1436,-0.1591,-0.1719,-0.1783,-0.1639,-0.1068,-0.1265,-0.0747,-0.0491,-0.0443,-0.0464,-0.0448,-0.0363,-0.024,-0.0155,-0.0128,-0.0139,-0.0112,-0.0011,0.0144,0.0304,0.0411,0.0406,0.0288,0.0101,-0.0085,-0.0251,-0.0358,-0.0358,-0.016,0.0005,-0.0027,-0.0053,-0.0043,0.0166,0.0464,0.1046,0.1943,0.2803,0.3321,-0.0422,-0.071,-0.1821,-0.189,-0.1698,-0.102,-0.0993,-0.1586,-0.1692,-0.165,-0.1805,0,-0.0817,0,-0.0481,-0.0133,-0.0144,-0.0219,-0.0256,-0.0208,-0.0107,-0.0016,0.0032,-0.0043,-0.0101,-0.0075,0.0016,0.0155,0.0278,0.0304,0.0246,0.0123,-0.0032,-0.0198,-0.0331,-0.0363,-0.0187,0.016,0.0336,0.0294,0.0182,0.0096,0.0101,0.0251,0.0614,0.1223,0.1794,0,0,0,0,0,-0.0705,-0.0689,0,0,0,0,0,0,0,0,0,0,0,0,0,0,0,0,0,0,0,-0.0005,0.0091,0.0208,0.0192,0.0176,0.0117,0.0005,-0.0144,-0.0315,-0.039,-0.0246,0.0112,0.0502,0.063,0.047,0.0262,0.0107,0.0075,0.0208,0.0459,0.086,0,0,0,0,0,0,0,0,0,0,0,0,0,0,0,0,0,0,0,0,0,0,0,0,0,0,0,0,0,0.0112,0.0133,0.0128,0.0064,-0.0048,-0.0272,-0.0432,-0.0358,-0.0032,0.0438,0.0689,0.0651,0.047,0.0315,0.0262,0.0342,0.0342,0.0486,0,0,0,0,0,0,0,0,0,0,0,0,0,0,0,0,0,0,0,0,0,0,0,0,0,0,0,0,0,0,0,0,0,0,0,0,-0.0609,-0.04,0.0315,0.0646,0.063,0.0523,0.0427,0.0432,0.0497,0.0475,0.0491,0,0,0,0,0,0,0,0,0,0,0,0,0,0,0,0,0,0,0,0,0,0,0,0,0,0,0,0,0,0,0,0,0,0,0,0,0,0,0.0315,0.0822,0.0587,0.0406,0.0315,0.0315,0.0384,0.0518,0.063,0,0,0,0,0,0,0,0,0,0,0,0,0,0,0,0,0,0,0,0,0,0,0,0,0,0,0,0,0,0,0,0,0,0,0,0,0,0,0,0,0,0.0299,0.0235,0.023,0.0267,0.0459,0.0897,0,0,0,0,0,0,0,0,0,0,0,0,0,0,0,0,0,0,0,0,0,0,0,0,0,0,0,0,0,0,0,0,0,0,0,0,0,0,0,0,0,0,0,0,0,0,0.1116,0,0,0,0,0,0,0,0,0,0,0,0,0,0,0,0,0,0,0,0,0,0,0,0,0,0,0,0,0,0,0,0,0,0,0,0,0,0,0,0,0,0,0,0,0,0,0,0,0,0,0,0,0,0,0,0,0,0,0,0,0,0,0,0,0,0,0,0,0,0,0,0,0,0,0,0,0,0,0,0,0,0,0,0,0,0,0,0,0,0,0,0,0,0,0,0,0,0,0,0,0,0,0,0,0,0,0,0,0,0,0,0,0,0,0,0,0,0,0,0,0,0,0,0,0,0,0,0,0,0,0,0,0,0,0,0,0,0,0,0,0,0,0,0,0,0,0,0,0,0,0,0,0,0,0,0,0,0,0,0,0,0,0,0,0,0,0,0,0,0,0,0,0,0,0,0,0,0,0,0,0,0,0,0,0,0,0,0,0,0,0,0,0,0,0,0,0,0,0,0,0,0,0,0,0,0,0,0,0,0,0,0,0,0,0,0,0,0,0,0,0,0,0,0,0,0,0,0,0,0,0,0,0,0,0,0,0,0,0,0,0,0,0,0,0,0,0,0,0,0,0,0,0,0,0,0,0,0,0,0,0,0,0,0,0,0,0,0,0,0,0,0,0,0,0,0,0,0,0,0,0,0,0,0,0,0,0,0,0,0,0,0,0,0,0,0,0,0,0,0,0,0,0,0,0,0,0,0,0,0,0,0,0,0,0,0,0,0,0,0,0,0,0,0,0,0,0,0,0,0,0,0,0,0,0,0,0,0,0,0,0,0,0,0,0,0,0,0,0,0,0,0,0,0,0,0,0,0,0,0,0,0,0,0,0,0,0,0,0,0,0,0,0,0,0,0,0,0,0,0,0,0,0,0,0,0,0,0,0,0,0,0,0,0,0,0,0,0,0,0,0,0,0,0,0,0,0,0,0,0,0,0,0,0,0,0,0,0,0,0,0,0,0,0,0,0,0,0,0,0,0,0,0,0,0,0,0,0,0,0,0,0,0,0,0,0,0,0,0,0,0,0,0,0,0,0,0,0,0,0,0,0,0,0,0,0,0,0,0,0,0,0,0,0,0,0,0,0,0,0,0,0,0,0,0,0,0,0,0,0,0,0,0,0,0,0,0,0,0,0,0,0,0,0,0,0,0,0,0,0,0,0,0,0,0,0,0,0,0,0,0,0,0,0,0,0,0,0,0,0,0,0,0,0,0,0,0,0,0,0,0,0,0,0,0,0,0,0,0,0,0,0,0,0,0,0,0,0,0,0,0,0,0,0,0,0,0,0,0,0,0,0,0,0,0,0,0,0,0,0,0,0,0,0,0,0,0,0,0,0,0,0,0,0,0,0,0,0,0,0,0,0,0,0,0,0,0,0,0,0,0,0,0,0,0,0,0,0,0,0,0,0,0,0,0,0,0,0,0,0,0,0,0,0,0,0,0,0,0,0,0,0,0,0,0,0,0,0,0,0,0,0,0,0,0,0,0,0,0,0,0,0,0,0,0,0,0,0,0,0,0,0,0,0,0,0,0,0,0,0,0,0,0,0,0,0,0,0,0,0,0,0,0,0,0,0,0,0,0,0,0,0,0,0,0]}]],[[{"header":{"parameterUnit":"kt","parameterCategory":2,"dx":1,"dy":1,"la1":29.764190673828125,"la2":30.86408042907715,"lo1":-88.46762084960938,"lo2":-86.9344482421875,"nx":47,"ny":34,"refTime":"2022-09-30T00:00:00:Z","depth":"15","parameterNumber":2,"parameterNumberName":"U-component_of_CURRENTS"},"data":[0.0683,0.1111,0.1564,0.1895,0.1986,0.1911,0.1869,0.1906,0.1986,0.2077,0.2093,0.2013,0.1938,0.1895,0.1895,0.1917,0.1917,0.1922,0.2002,0.2274,0.2696,0.307,0.3358,0.3593,0.3711,0.3673,0.3513,0.3385,0.3481,0.3727,0.3908,0.3919,0.3903,0.3849,0.3727,0.3513,0.3198,0.2915,0.2648,0.2381,0.2221,0.2077,0.1757,0.1233,0.0502,-0.0251,-0.0801,0.0545,0.0737,0.0972,0.1201,0.1415,0.1623,0.1826,0.2024,0.2194,0.2248,0.22,0.2136,0.2082,0.204,0.2034,0.2045,0.2056,0.2066,0.2104,0.2232,0.2477,0.2792,0.3054,0.3161,0.3118,0.3134,0.3209,0.3214,0.3369,0.3716,0.386,0.3727,0.3636,0.3615,0.3577,0.3502,0.3337,0.3102,0.291,0.275,0.2584,0.2397,0.2082,0.1602,0.095,0.0224,-0.0422,0.0598,0.071,0.0849,0.102,0.1217,0.1447,0.1687,0.1917,0.2088,0.2184,0.2216,0.2216,0.22,0.2189,0.2184,0.2178,0.2162,0.2157,0.2189,0.2258,0.2355,0.2472,0.2579,0.267,0.276,0.2936,0.3161,0.3284,0.3374,0.3497,0.3412,0.3118,0.2904,0.3043,0.3332,0.3444,0.3417,0.3305,0.3198,0.307,0.291,0.2718,0.244,0.2013,0.1426,0.0705,0.0027,0.0699,0.078,0.0876,0.1004,0.1169,0.1377,0.1607,0.1826,0.2007,0.2136,0.2226,0.228,0.2312,0.2328,0.2339,0.2322,0.228,0.2253,0.2264,0.2312,0.2392,0.2483,0.2573,0.2664,0.2771,0.2958,0.3235,0.346,0.3561,0.3518,0.3241,0.276,0.2339,0.2242,0.2589,0.3129,0.3412,0.3428,0.3406,0.3348,0.3203,0.3054,0.2814,0.2435,0.1874,0.1212,0.0651,0.078,0.0854,0.095,0.1078,0.1233,0.1426,0.1639,0.1847,0.2029,0.2162,0.2253,0.2306,0.236,0.2419,0.2456,0.244,0.2381,0.2333,0.2317,0.2339,0.2376,0.2429,0.2509,0.2621,0.2766,0.2979,0.3358,0.3748,0.3967,0.4031,0.3914,0.3588,0.3011,0.236,0.2093,0.236,0.2936,0.3438,0.3657,0.3641,0.347,0.3316,0.3155,0.2883,0.2483,0.1991,0.1506,0.0838,0.0929,0.1041,0.1175,0.1335,0.1511,0.1692,0.1869,0.2013,0.212,0.2184,0.2237,0.2312,0.2408,0.2472,0.2467,0.2419,0.236,0.2328,0.2322,0.2328,0.2344,0.2408,0.2541,0.2718,0.2904,0.3198,0.3716,0.4175,0.4309,0.4277,0.4191,0.3962,0.3428,0.2723,0.2317,0.2461,0.3075,0.3732,0.401,0.3892,0.3657,0.3502,0.3348,0.3102,0.2782,0.2403,0.0892,0.0977,0.11,0.1239,0.1388,0.1538,0.1687,0.1826,0.1933,0.2007,0.2061,0.212,0.221,0.2301,0.2355,0.2365,0.2339,0.2306,0.228,0.2269,0.2264,0.2274,0.2322,0.244,0.2611,0.2771,0.2931,0.3262,0.3812,0.4298,0.4469,0.4367,0.4154,0.3855,0.3385,0.275,0.2355,0.2568,0.3268,0.3946,0.4239,0.4148,0.3951,0.3849,0.3769,0.3567,0.33,0.0913,0.0993,0.1105,0.1239,0.1372,0.15,0.1623,0.173,0.1821,0.1895,0.1959,0.2034,0.2109,0.2173,0.22,0.2205,0.2205,0.2194,0.2184,0.2168,0.2162,0.2178,0.2232,0.2344,0.2493,0.2638,0.2766,0.2899,0.3123,0.347,0.3844,0.4079,0.4122,0.3988,0.3567,0.2942,0.2285,0.1906,0.2274,0.315,0.3903,0.433,0.4528,0.4517,0.4394,0.433,0.4282,0.0966,0.1025,0.1111,0.1207,0.1313,0.142,0.1511,0.1596,0.1682,0.1778,0.1885,0.1997,0.2077,0.2125,0.213,0.2114,0.2093,0.2066,0.2045,0.2034,0.2034,0.2056,0.212,0.2232,0.236,0.2488,0.2605,0.2707,0.2808,0.2904,0.3001,0.3118,0.3257,0.3396,0.3401,0.3102,0.2504,0.189,0.1628,0.2093,0.3027,0.3865,0.4496,0.5072,0.5296,0.5179,0.5067,0.1068,0.1068,0.11,0.1159,0.1233,0.1308,0.1367,0.1436,0.1527,0.165,0.1799,0.1959,0.2072,0.2125,0.2114,0.204,0.1949,0.189,0.1874,0.1869,0.1879,0.1906,0.1965,0.2056,0.2173,0.229,0.2403,0.2499,0.2589,0.2659,0.2691,0.2686,0.2654,0.2648,0.2728,0.2851,0.2739,0.2317,0.1885,0.1757,0.2162,0.3027,0.3962,0.4816,0.5627,0.6108,0.614,0.1068,0.0966,0.0961,0.1046,0.1148,0.1217,0.1255,0.1308,0.1399,0.1506,0.1644,0.1799,0.1901,0.197,0.1986,0.1927,0.1847,0.1767,0.1703,0.1671,0.1671,0.1682,0.1709,0.1762,0.1879,0.2024,0.2141,0.2248,0.2333,0.2408,0.2456,0.2472,0.2461,0.2445,0.2424,0.244,0.2584,0.2595,0.2328,0.2029,0.1981,0.229,0.2963,0.3951,0.5013,0.5974,0.6562,0,0,0.0715,0.086,0.1009,0.1084,0.1073,0.1111,0.1201,0.1313,0.1484,0,0,0,0,0,0,0,0,0,0,0,0,0,0.1602,0.1644,0.1778,0.1922,0.2029,0.2125,0.221,0.2269,0.2296,0.2322,0.2333,0.2328,0.2344,0.2488,0.2557,0.2419,0.2264,0.2269,0.2472,0.2931,0.3796,0.4859,0.5884,0,0,0,0,0,0,0.0742,0.0715,0,0,0,0,0,0,0,0,0,0,0,0,0,0,0,0,0,0,0.1426,0.1495,0.1655,0.1799,0.1938,0.2045,0.2114,0.2162,0.2194,0.221,0.22,0.2274,0.2488,0.2611,0.2584,0.2547,0.2573,0.2675,0.2926,0.3508,0.4394,0,0,0,0,0,0,0,0,0,0,0,0,0,0,0,0,0,0,0,0,0,0,0,0,0,0,0,0,0.1265,0.1367,0.1538,0.1687,0.1794,0.1858,0.1906,0.1949,0.1965,0.197,0.2125,0.2435,0.2691,0.2856,0.2926,0.2942,0.292,0.2936,0.3235,0,0,0,0,0,0,0,0,0,0,0,0,0,0,0,0,0,0,0,0,0,0,0,0,0,0,0,0,0,0,0,0,0,0,0,0.1484,0.15,0.1639,0.1773,0.2013,0.2365,0.2696,0.2942,0.3118,0.3235,0.3187,0.3155,0,0,0,0,0,0,0,0,0,0,0,0,0,0,0,0,0,0,0,0,0,0,0,0,0,0,0,0,0,0,0,0,0,0,0,0,0,0,0.1644,0.1853,0.2002,0.2173,0.2344,0.2531,0.2878,0.3262,0.3422,0,0,0,0,0,0,0,0,0,0,0,0,0,0,0,0,0,0,0,0,0,0,0,0,0,0,0,0,0,0,0,0,0,0,0,0,0,0,0,0,0,0.1783,0.1975,0.2162,0.236,0.2712,0.3102,0,0,0,0,0,0,0,0,0,0,0,0,0,0,0,0,0,0,0,0,0,0,0,0,0,0,0,0,0,0,0,0,0,0,0,0,0,0,0,0,0,0,0.1676,0.1805,0.2024,0.2339,0.2451,0,0,0,0,0,0,0,0,0,0,0,0,0,0,0,0,0,0,0,0,0,0,0,0,0,0,0,0,0,0,0,0,0,0,0,0,0,0,0,0,0,0,0,0,0,0,0.0523,0,0,0,0,0,0,0,0,0,0,0,0,0,0,0,0,0,0,0,0,0,0,0,0,0,0,0,0,0,0,0,0,0,0,0,0,0,0,0,0,0,0,0,0,0,0,0,0,0,0,0,0,0,0,0,0,0,0,0,0,0,0,0,0,0,0,0,0,0,0,0,0,0,0,0,0,0,0,0,0,0,0,0,0,0,0,0,0,0,0,0,0,0,0,0,0,0,0,0,0,0,0,0,0,0,0,0,0,0,0,0,0,0,0,0,0,0,0,0,0,0,0,0,0,0,0,0,0,0,0,0,0,0,0,0,0,0,0,0,0,0,0,0,0,0,0,0,0,0,0,0,0,0,0,0,0,0,0,0,0,0,0,0,0,0,0,0,0,0,0,0,0,0,0,0,0,0,0,0,0,0,0,0,0,0,0,0,0,0,0,0,0,0,0,0,0,0,0,0,0,0,0,0,0,0,0,0,0,0,0,0,0,0,0,0,0,0,0,0,0,0,0,0,0,0,0,0,0,0,0,0,0,0,0,0,0,0,0,0,0,0,0,0,0,0,0,0,0,0,0,0,0,0,0,0,0,0,0,0,0,0,0,0,0,0,0,0,0,0,0,0,0,0,0,0,0,0,0,0,0,0,0,0,0,0,0,0,0,0,0,0,0,0,0,0,0,0,0,0,0,0,0,0,0,0,0,0,0,0,0,0,0,0,0,0,0,0,0,0,0,0,0,0,0,0,0,0,0,0,0,0,0,0,0,0,0,0,0,0,0,0,0,0,0,0,0,0,0,0,0,0,0,0,0,0,0,0,0,0,0,0,0,0,0,0,0,0,0,0,0,0,0,0,0,0,0,0,0,0,0,0,0,0,0,0,0,0,0,0,0,0,0,0,0,0,0,0,0,0,0,0,0,0,0,0,0,0,0,0,0,0,0,0,0,0,0,0,0,0,0,0,0,0,0,0,0,0,0,0,0,0,0,0,0,0,0,0,0,0,0,0,0,0,0,0,0,0,0,0,0,0,0,0,0,0,0,0,0,0,0,0,0,0,0,0,0,0,0,0,0,0,0,0,0,0,0,0,0,0,0,0,0,0,0,0,0,0,0,0,0,0,0,0,0,0,0,0,0,0,0,0,0,0,0,0,0,0,0,0,0,0,0,0,0,0,0,0,0,0,0,0,0,0,0,0,0,0,0,0,0,0,0,0,0,0,0,0,0,0,0,0,0,0,0,0,0,0,0,0,0,0,0,0,0,0,0,0,0,0,0,0,0,0,0,0,0,0,0,0,0,0,0,0,0,0,0,0,0,0,0,0,0,0,0,0,0,0,0,0,0,0,0,0,0,0,0,0,0,0,0,0,0,0,0,0,0,0,0,0,0,0,0,0,0,0,0,0,0,0,0,0,0,0,0,0,0,0,0,0,0,0,0,0,0,0,0,0,0,0,0,0,0,0,0,0,0,0,0,0,0,0,0,0,0,0,0,0,0,0,0,0,0,0,0,0,0,0,0,0,0,0,0,0,0,0,0,0,0,0,0,0,0,0,0,0,0,0,0,0,0,0,0,0,0,0,0,0,0,0,0,0,0,0,0,0]}],[{"header":{"parameterUnit":"kt","parameterCategory":2,"dx":1,"dy":1,"la1":29.764190673828125,"la2":30.86408042907715,"lo1":-88.46762084960938,"lo2":-86.9344482421875,"nx":47,"ny":34,"refTime":"2022-09-30T00:00:00:Z","depth":"15","parameterNumber":3,"parameterNumberName":"V-component_of_CURRENTS"},"data":[-0.0251,-0.0101,-0.0027,0.0027,0.0096,0.0133,0.0005,-0.0267,-0.071,-0.1052,-0.1239,-0.1367,-0.1436,-0.141,-0.134,-0.1265,-0.1153,-0.0918,-0.0566,-0.0182,0.0128,0.0299,0.0331,0.0336,0.0497,0.0833,0.0918,0.1046,0.0924,0.0491,0.023,0.0614,0.1719,0.3294,0.4554,0.519,0.5638,0.6124,0.6733,0.7736,0.858,0.9002,0.9247,0.9359,0.9365,0.9178,0.874,-0.0416,-0.0235,-0.0139,-0.0032,0.0096,0.0101,-0.0032,-0.031,-0.0737,-0.0977,-0.11,-0.1212,-0.1297,-0.1319,-0.1297,-0.1255,-0.1159,-0.0956,-0.0657,-0.0299,0.0021,0.0267,0.0432,0.0577,0.078,0.1057,0.095,0.0918,0.0657,-0.0091,-0.063,-0.0304,0.0657,0.2162,0.3817,0.5045,0.5852,0.646,0.7037,0.7726,0.8382,0.8756,0.8906,0.8948,0.8879,0.8665,0.8201,-0.0545,-0.0395,-0.0283,-0.0187,-0.0101,-0.0091,-0.0187,-0.04,-0.0662,-0.0844,-0.0982,-0.1089,-0.1159,-0.1196,-0.1223,-0.1223,-0.1153,-0.0988,-0.0731,-0.0432,-0.0107,0.0224,0.0529,0.0774,0.0908,0.1052,0.0988,0.0886,0.0577,-0.0336,-0.1265,-0.1281,-0.0593,0.0598,0.2248,0.4047,0.5569,0.662,0.7347,0.7907,0.8377,0.8665,0.8783,0.8767,0.8649,0.8393,0.7902,-0.063,-0.0497,-0.04,-0.0331,-0.0288,-0.0288,-0.0368,-0.0534,-0.0715,-0.087,-0.0972,-0.1014,-0.1036,-0.1068,-0.1127,-0.1164,-0.1127,-0.0993,-0.0785,-0.0534,-0.0246,0.0075,0.0422,0.0721,0.0865,0.0956,0.0993,0.0886,0.0619,-0.0117,-0.1116,-0.1757,-0.1703,-0.1062,0.0112,0.197,0.4164,0.6087,0.7363,0.8041,0.8436,0.8628,0.8724,0.8681,0.8537,0.8233,0.7742,-0.0699,-0.0577,-0.0502,-0.0459,-0.0448,-0.0475,-0.0555,-0.0683,-0.0833,-0.0961,-0.102,-0.0998,-0.0956,-0.0961,-0.102,-0.1078,-0.1068,-0.0972,-0.0806,-0.0609,-0.0368,-0.0069,0.0288,0.063,0.0801,0.0865,0.0956,0.0844,0.0598,0.0107,-0.0619,-0.1399,-0.1863,-0.1986,-0.1532,-0.0358,0.1778,0.4351,0.6514,0.771,0.8302,0.8559,0.8628,0.8585,0.8425,0.811,0.7678,-0.0774,-0.0667,-0.0614,-0.0598,-0.0609,-0.0657,-0.0737,-0.0844,-0.0961,-0.1052,-0.1073,-0.102,-0.095,-0.0929,-0.0961,-0.0998,-0.0993,-0.0924,-0.0796,-0.0635,-0.0438,-0.0176,0.0155,0.0502,0.0705,0.0774,0.086,0.0833,0.0545,0.0091,-0.0443,-0.1014,-0.1538,-0.1821,-0.2024,-0.1612,-0.0304,0.1986,0.4581,0.6482,0.7539,0.8158,0.8382,0.8393,0.826,0.7998,0.7651,-0.086,-0.0785,-0.0747,-0.0742,-0.0769,-0.0817,-0.0892,-0.0972,-0.1052,-0.1105,-0.1105,-0.1057,-0.1004,-0.0977,-0.0972,-0.0966,-0.0945,-0.0881,-0.0774,-0.063,-0.0454,-0.0235,0.0043,0.0347,0.0571,0.0683,0.0753,0.0806,0.0619,0.0203,-0.0315,-0.078,-0.1201,-0.1602,-0.1901,-0.1901,-0.1308,0.0224,0.2445,0.4634,0.6231,0.7208,0.7731,0.7961,0.7929,0.7747,0.7459,-0.0945,-0.0913,-0.0902,-0.0902,-0.0918,-0.0961,-0.1014,-0.1068,-0.1111,-0.1132,-0.1121,-0.1089,-0.1057,-0.1036,-0.1009,-0.0982,-0.094,-0.0865,-0.0747,-0.0598,-0.0443,-0.0262,-0.0043,0.0203,0.0416,0.0566,0.0667,0.071,0.0657,0.0422,0.0091,-0.0304,-0.0667,-0.1073,-0.15,-0.1762,-0.1538,-0.0678,0.0833,0.2744,0.4544,0.5932,0.6711,0.7058,0.7272,0.7229,0.6984,-0.1014,-0.103,-0.1052,-0.1057,-0.1062,-0.1078,-0.1111,-0.1143,-0.1169,-0.118,-0.1164,-0.1127,-0.1084,-0.1052,-0.1009,-0.0972,-0.0924,-0.0838,-0.0705,-0.0555,-0.0411,-0.0272,-0.0117,0.0064,0.0256,0.0427,0.0566,0.0646,0.0614,0.0448,0.0214,-0.0037,-0.0251,-0.0518,-0.0854,-0.1185,-0.1303,-0.0972,-0.0133,0.1207,0.2728,0.4245,0.5531,0.6119,0.637,0.6482,0.6391,-0.103,-0.1084,-0.1148,-0.1175,-0.1169,-0.1153,-0.1159,-0.1196,-0.1239,-0.1276,-0.1281,-0.1233,-0.1137,-0.1052,-0.0934,-0.0844,-0.0785,-0.0726,-0.0619,-0.0486,-0.0358,-0.0256,-0.0166,-0.0053,0.0107,0.0283,0.0454,0.0571,0.0587,0.0464,0.0251,0.0011,-0.0192,-0.0347,-0.0486,-0.0582,-0.0747,-0.0763,-0.0481,0.0139,0.1191,0.2301,0.3663,0.4773,0.5382,0.5617,0.5723,-0.0876,-0.0993,-0.1175,-0.1249,-0.1239,-0.1175,-0.1169,-0.1233,-0.1313,-0.1377,-0.1393,-0.1308,-0.1105,-0.0998,-0.0774,-0.0625,-0.0593,-0.0577,-0.0507,-0.0384,-0.0262,-0.0182,-0.0139,-0.0096,-0.0011,0.0139,0.032,0.0464,0.0529,0.0464,0.0294,0.0075,-0.0128,-0.0288,-0.0384,-0.0358,-0.0288,-0.0326,-0.0336,-0.0171,0.0224,0.0854,0.1676,0.2798,0.394,0.4474,0.4661,0,0,-0.134,-0.1436,-0.1303,-0.1105,-0.1089,-0.1244,-0.1351,-0.1452,-0.1532,0,0,0,0,0,0,0,0,0,0,0,0,0,-0.008,0.0021,0.0166,0.032,0.0422,0.0416,0.0299,0.0117,-0.0069,-0.023,-0.0336,-0.0336,-0.0139,0.0064,0.0059,0.0016,0.0069,0.0214,0.0491,0.1073,0.197,0.2856,0.3294,0,0,0,0,0,0,-0.0849,-0.1367,0,0,0,0,0,0,0,0,0,0,0,0,0,0,0,0,0,0,0.0037,0.0176,0.0294,0.032,0.0262,0.0144,-0.0011,-0.0166,-0.0294,-0.0326,-0.016,0.0198,0.0427,0.0384,0.0288,0.0171,0.0133,0.0272,0.0635,0.126,0.1874,0,0,0,0,0,0,0,0,0,0,0,0,0,0,0,0,0,0,0,0,0,0,0,0,0,0,0,0,0.023,0.0219,0.0203,0.0149,0.0043,-0.0096,-0.0256,-0.0331,-0.0208,0.0149,0.0582,0.0705,0.0587,0.0358,0.0176,0.0128,0.024,0.0481,0.0897,0,0,0,0,0,0,0,0,0,0,0,0,0,0,0,0,0,0,0,0,0,0,0,0,0,0,0,0,0,0,0,0,0,0,0,-0.0363,-0.0272,0.0011,0.047,0.0721,0.0753,0.0587,0.0432,0.0368,0.0416,0.0374,0.0518,0,0,0,0,0,0,0,0,0,0,0,0,0,0,0,0,0,0,0,0,0,0,0,0,0,0,0,0,0,0,0,0,0,0,0,0,0,0,0.0347,0.0657,0.0641,0.055,0.0475,0.0507,0.063,0.055,0.0523,0,0,0,0,0,0,0,0,0,0,0,0,0,0,0,0,0,0,0,0,0,0,0,0,0,0,0,0,0,0,0,0,0,0,0,0,0,0,0,0,0,0.0379,0.0299,0.0315,0.0395,0.0571,0.0662,0,0,0,0,0,0,0,0,0,0,0,0,0,0,0,0,0,0,0,0,0,0,0,0,0,0,0,0,0,0,0,0,0,0,0,0,0,0,0,0,0,0,0.0214,0.0203,0.0256,0.0454,0.0897,0,0,0,0,0,0,0,0,0,0,0,0,0,0,0,0,0,0,0,0,0,0,0,0,0,0,0,0,0,0,0,0,0,0,0,0,0,0,0,0,0,0,0,0,0,0,0.1111,0,0,0,0,0,0,0,0,0,0,0,0,0,0,0,0,0,0,0,0,0,0,0,0,0,0,0,0,0,0,0,0,0,0,0,0,0,0,0,0,0,0,0,0,0,0,0,0,0,0,0,0,0,0,0,0,0,0,0,0,0,0,0,0,0,0,0,0,0,0,0,0,0,0,0,0,0,0,0,0,0,0,0,0,0,0,0,0,0,0,0,0,0,0,0,0,0,0,0,0,0,0,0,0,0,0,0,0,0,0,0,0,0,0,0,0,0,0,0,0,0,0,0,0,0,0,0,0,0,0,0,0,0,0,0,0,0,0,0,0,0,0,0,0,0,0,0,0,0,0,0,0,0,0,0,0,0,0,0,0,0,0,0,0,0,0,0,0,0,0,0,0,0,0,0,0,0,0,0,0,0,0,0,0,0,0,0,0,0,0,0,0,0,0,0,0,0,0,0,0,0,0,0,0,0,0,0,0,0,0,0,0,0,0,0,0,0,0,0,0,0,0,0,0,0,0,0,0,0,0,0,0,0,0,0,0,0,0,0,0,0,0,0,0,0,0,0,0,0,0,0,0,0,0,0,0,0,0,0,0,0,0,0,0,0,0,0,0,0,0,0,0,0,0,0,0,0,0,0,0,0,0,0,0,0,0,0,0,0,0,0,0,0,0,0,0,0,0,0,0,0,0,0,0,0,0,0,0,0,0,0,0,0,0,0,0,0,0,0,0,0,0,0,0,0,0,0,0,0,0,0,0,0,0,0,0,0,0,0,0,0,0,0,0,0,0,0,0,0,0,0,0,0,0,0,0,0,0,0,0,0,0,0,0,0,0,0,0,0,0,0,0,0,0,0,0,0,0,0,0,0,0,0,0,0,0,0,0,0,0,0,0,0,0,0,0,0,0,0,0,0,0,0,0,0,0,0,0,0,0,0,0,0,0,0,0,0,0,0,0,0,0,0,0,0,0,0,0,0,0,0,0,0,0,0,0,0,0,0,0,0,0,0,0,0,0,0,0,0,0,0,0,0,0,0,0,0,0,0,0,0,0,0,0,0,0,0,0,0,0,0,0,0,0,0,0,0,0,0,0,0,0,0,0,0,0,0,0,0,0,0,0,0,0,0,0,0,0,0,0,0,0,0,0,0,0,0,0,0,0,0,0,0,0,0,0,0,0,0,0,0,0,0,0,0,0,0,0,0,0,0,0,0,0,0,0,0,0,0,0,0,0,0,0,0,0,0,0,0,0,0,0,0,0,0,0,0,0,0,0,0,0,0,0,0,0,0,0,0,0,0,0,0,0,0,0,0,0,0,0,0,0,0,0,0,0,0,0,0,0,0,0,0,0,0,0,0,0,0,0,0,0,0,0,0,0,0,0,0,0,0,0,0,0,0,0,0,0,0,0,0,0,0,0,0,0,0,0,0,0,0,0,0,0,0,0,0,0,0,0,0,0,0,0,0,0,0,0,0,0,0,0,0,0,0,0,0,0,0,0,0,0,0,0,0,0,0,0,0,0,0,0,0,0,0,0,0,0,0,0,0,0,0,0,0,0,0,0,0,0,0,0,0,0,0,0,0,0,0,0,0,0,0,0,0]}]],[[{"header":{"parameterUnit":"kt","parameterCategory":2,"dx":1,"dy":1,"la1":29.764190673828125,"la2":30.86408042907715,"lo1":-88.46762084960938,"lo2":-86.9344482421875,"nx":47,"ny":34,"refTime":"2022-09-30T00:00:00:Z","depth":"20","parameterNumber":2,"parameterNumberName":"U-component_of_CURRENTS"},"data":[0.0673,0.1095,0.1554,0.1885,0.197,0.1901,0.1863,0.1906,0.2007,0.2098,0.2093,0.2013,0.1938,0.189,0.1879,0.1895,0.1901,0.1906,0.1997,0.2274,0.2702,0.3081,0.3364,0.3593,0.3695,0.3657,0.3524,0.3401,0.3486,0.37,0.3865,0.3882,0.3887,0.3876,0.3764,0.3524,0.3219,0.2936,0.267,0.2488,0.2258,0.2072,0.1751,0.1244,0.0539,-0.0144,-0.063,0.0545,0.0731,0.0961,0.1191,0.1404,0.1618,0.1821,0.2024,0.22,0.2248,0.2189,0.2125,0.2072,0.2034,0.2018,0.2024,0.2034,0.2045,0.2082,0.2216,0.2467,0.2776,0.3038,0.3139,0.3097,0.3118,0.3209,0.3225,0.3348,0.3599,0.3764,0.3673,0.3615,0.362,0.3615,0.3604,0.3444,0.3225,0.307,0.292,0.2616,0.2403,0.2077,0.1591,0.095,0.0256,-0.0256,0.0603,0.071,0.0849,0.1009,0.1212,0.1442,0.1682,0.1911,0.2082,0.2168,0.22,0.22,0.2189,0.2173,0.2168,0.2157,0.2136,0.213,0.2157,0.2232,0.2328,0.2445,0.2552,0.2643,0.2734,0.2915,0.3155,0.3289,0.331,0.3214,0.3097,0.3006,0.2888,0.3043,0.3348,0.3534,0.3577,0.3513,0.3417,0.3305,0.3038,0.2723,0.2424,0.1997,0.1415,0.0758,0.031,0.071,0.079,0.0881,0.1004,0.1169,0.1372,0.1602,0.1815,0.1991,0.2114,0.2205,0.2258,0.229,0.2312,0.2317,0.229,0.2248,0.2216,0.2226,0.228,0.236,0.2456,0.2547,0.2638,0.2744,0.2942,0.323,0.346,0.3545,0.3406,0.3161,0.2894,0.244,0.2237,0.2573,0.3139,0.3502,0.3588,0.362,0.362,0.3454,0.3091,0.283,0.2424,0.197,0.1527,0.1127,0.0785,0.0865,0.0956,0.1078,0.1233,0.142,0.1628,0.1831,0.2007,0.2141,0.2226,0.229,0.2344,0.2397,0.2424,0.2397,0.2333,0.2285,0.2274,0.2296,0.2344,0.2403,0.2483,0.2595,0.2739,0.2958,0.3337,0.3743,0.3972,0.4036,0.393,0.3631,0.3177,0.2547,0.2098,0.2301,0.2926,0.3497,0.3849,0.3956,0.3865,0.3561,0.3241,0.2888,0.2541,0.2152,0.1751,0.0838,0.0929,0.1041,0.1175,0.1329,0.15,0.1682,0.1847,0.1991,0.2093,0.2162,0.2216,0.229,0.2371,0.2413,0.2397,0.2344,0.229,0.2269,0.2269,0.2285,0.2317,0.2381,0.2515,0.2686,0.2872,0.3161,0.3625,0.4052,0.4271,0.4437,0.4533,0.4496,0.386,0.2904,0.2296,0.2435,0.3043,0.3807,0.4266,0.4293,0.41,0.3839,0.3529,0.3166,0.2819,0.2579,0.0886,0.0977,0.1095,0.1233,0.1377,0.1527,0.1671,0.1805,0.1906,0.1981,0.2029,0.2077,0.2136,0.2194,0.2232,0.2242,0.2226,0.22,0.2194,0.2194,0.2205,0.2226,0.2285,0.2403,0.2563,0.2723,0.2872,0.3123,0.3433,0.3705,0.4004,0.4207,0.4453,0.4768,0.4293,0.2953,0.2312,0.2509,0.3193,0.4026,0.4512,0.4597,0.4485,0.4367,0.4106,0.378,0.3657,0.0902,0.0982,0.1095,0.1223,0.1356,0.1484,0.1596,0.1698,0.1773,0.1821,0.1842,0.1858,0.189,0.1927,0.1938,0.1938,0.1943,0.1965,0.1991,0.2007,0.2029,0.2072,0.2152,0.2274,0.2429,0.2573,0.2702,0.2835,0.299,0.3118,0.3187,0.3273,0.3401,0.3625,0.3924,0.3497,0.2306,0.1874,0.2237,0.3081,0.3956,0.4592,0.5083,0.5222,0.5136,0.4981,0.4592,0.0918,0.0966,0.1046,0.1143,0.1244,0.134,0.1415,0.1484,0.1548,0.1628,0.1714,0.1799,0,0,0,0,0,0.1831,0.1826,0.1831,0.1847,0.1874,0.1927,0.2029,0.2189,0.2376,0.2515,0.2632,0.2734,0.2819,0.2867,0.2851,0.2803,0.2771,0.2835,0.3027,0.2638,0.1847,0.1575,0.205,0.299,0.3882,0.4741,0.567,0.6183,0.6268,0.6247,0,0,0,0,0.1148,0.1217,0.1281,0,0,0,0,0,0,0,0,0,0,0,0,0,0,0,0,0,0.197,0.2056,0.2205,0.2371,0.2488,0.2563,0.26,0.26,0.2573,0.2536,0.2477,0.2483,0.267,0.2461,0.1901,0.1682,0.212,0.3001,0.3972,0.4987,0.6113,0.6962,0.7341,0,0,0,0,0,0,0,0,0,0,0,0,0,0,0,0,0,0,0,0,0,0,0,0,0,0,0.1938,0.2024,0.2168,0.2285,0.2344,0.2365,0.2371,0.236,0.2339,0.2306,0.229,0.2621,0.2851,0.2867,0.2371,0.2253,0.2931,0.3919,0.519,0.6471,0.7421,0,0,0,0,0,0,0,0,0,0,0,0,0,0,0,0,0,0,0,0,0,0,0,0,0,0,0,0,0.1847,0.1959,0.2056,0.2114,0.2146,0.2162,0.2178,0.2189,0.2168,0.2066,0.2397,0.2798,0.2899,0.2675,0.2536,0.2899,0.3775,0.527,0.6647,0,0,0,0,0,0,0,0,0,0,0,0,0,0,0,0,0,0,0,0,0,0,0,0,0,0,0,0,0,0.1666,0.1773,0.1858,0.1906,0.1943,0.1975,0.1991,0.2002,0.1901,0.1682,0.1863,0.2146,0.2317,0.2547,0.2883,0.3033,0.3684,0.5067,0,0,0,0,0,0,0,0,0,0,0,0,0,0,0,0,0,0,0,0,0,0,0,0,0,0,0,0,0,0,0,0,0,0,0,0,0,0.1741,0.1655,0.1495,0.1442,0.1532,0.1895,0.2568,0.3161,0.3497,0.3898,0,0,0,0,0,0,0,0,0,0,0,0,0,0,0,0,0,0,0,0,0,0,0,0,0,0,0,0,0,0,0,0,0,0,0,0,0,0,0.1586,0.1612,0.1628,0.166,0.1746,0.1874,0.2509,0.3668,0.456,0,0,0,0,0,0,0,0,0,0,0,0,0,0,0,0,0,0,0,0,0,0,0,0,0,0,0,0,0,0,0,0,0,0,0,0,0,0,0,0,0,0.1911,0.1965,0.1933,0.1847,0.2333,0.2953,0,0,0,0,0,0,0,0,0,0,0,0,0,0,0,0,0,0,0,0,0,0,0,0,0,0,0,0,0,0,0,0,0,0,0,0,0,0,0,0,0,0,0,0,0.1874,0.1559,0.1196,0,0,0,0,0,0,0,0,0,0,0,0,0,0,0,0,0,0,0,0,0,0,0,0,0,0,0,0,0,0,0,0,0,0,0,0,0,0,0,0,0,0,0,0,0,0.2077,0.2013,0,0,0,0,0,0,0,0,0,0,0,0,0,0,0,0,0,0,0,0,0,0,0,0,0,0,0,0,0,0,0,0,0,0,0,0,0,0,0,0,0,0,0,0,0,0,0,0,0,0,0,0,0,0,0,0,0,0,0,0,0,0,0,0,0,0,0,0,0,0,0,0,0,0,0,0,0,0,0,0,0,0,0,0,0,0,0,0,0,0,0,0,0,0,0,0,0,0,0,0,0,0,0,0,0,0,0,0,0,0,0,0,0,0,0,0,0,0,0,0,0,0,0,0,0,0,0,0,0,0,0,0,0,0,0,0,0,0,0,0,0,0,0,0,0,0,0,0,0,0,0,0,0,0,0,0,0,0,0,0,0,0,0,0,0,0,0,0,0,0,0,0,0,0,0,0,0,0,0,0,0,0,0,0,0,0,0,0,0,0,0,0,0,0,0,0,0,0,0,0,0,0,0,0,0,0,0,0,0,0,0,0,0,0,0,0,0,0,0,0,0,0,0,0,0,0,0,0,0,0,0,0,0,0,0,0,0,0,0,0,0,0,0,0,0,0,0,0,0,0,0,0,0,0,0,0,0,0,0,0,0,0,0,0,0,0,0,0,0,0,0,0,0,0,0,0,0,0,0,0,0,0,0,0,0,0,0,0,0,0,0,0,0,0,0,0,0,0,0,0,0,0,0,0,0,0,0,0,0,0,0,0,0,0,0,0,0,0,0,0,0,0,0,0,0,0,0,0,0,0,0,0,0,0,0,0,0,0,0,0,0,0,0,0,0,0,0,0,0,0,0,0,0,0,0,0,0,0,0,0,0,0,0,0,0,0,0,0,0,0,0,0,0,0,0,0,0,0,0,0,0,0,0,0,0,0,0,0,0,0,0,0,0,0,0,0,0,0,0,0,0,0,0,0,0,0,0,0,0,0,0,0,0,0,0,0,0,0,0,0,0,0,0,0,0,0,0,0,0,0,0,0,0,0,0,0,0,0,0,0,0,0,0,0,0,0,0,0,0,0,0,0,0,0,0,0,0,0,0,0,0,0,0,0,0,0,0,0,0,0,0,0,0,0,0,0,0,0,0,0,0,0,0,0,0,0,0,0,0,0,0,0,0,0,0,0,0,0,0,0,0,0,0,0,0,0,0,0,0,0,0,0,0,0,0,0,0,0,0,0,0,0,0,0,0,0,0,0,0,0,0,0,0,0,0,0,0,0,0,0,0,0,0,0,0,0,0,0,0,0,0,0,0,0,0,0,0,0,0,0,0,0,0,0,0,0,0,0,0,0,0,0,0,0,0,0,0,0,0,0,0,0,0,0,0,0,0,0,0,0,0,0,0,0,0,0,0,0,0,0,0,0,0,0,0,0,0,0,0,0,0,0,0,0,0,0,0,0,0,0,0,0,0,0,0,0,0,0,0,0,0,0,0,0,0,0,0,0,0,0,0,0,0,0,0,0,0,0,0,0,0,0,0,0,0,0,0,0,0,0,0,0,0,0,0,0,0,0,0,0,0,0,0,0,0,0,0,0,0,0,0,0,0,0,0,0,0,0,0,0,0,0,0,0,0,0,0,0,0,0,0,0,0,0,0,0,0,0,0,0,0,0,0,0,0,0,0,0,0,0,0,0,0,0,0,0,0,0,0,0,0,0,0,0,0,0,0,0,0,0,0,0,0,0,0,0,0,0,0,0,0,0]}],[{"header":{"parameterUnit":"kt","parameterCategory":2,"dx":1,"dy":1,"la1":29.764190673828125,"la2":30.86408042907715,"lo1":-88.46762084960938,"lo2":-86.9344482421875,"nx":47,"ny":34,"refTime":"2022-09-30T00:00:00:Z","depth":"20","parameterNumber":3,"parameterNumberName":"V-component_of_CURRENTS"},"data":[-0.0203,-0.0043,0.0021,0.0069,0.0144,0.0166,0.0032,-0.023,-0.0657,-0.0998,-0.1196,-0.1329,-0.1404,-0.1372,-0.1297,-0.1217,-0.1111,-0.0876,-0.0534,-0.0149,0.0155,0.0342,0.039,0.0395,0.055,0.0892,0.0961,0.1078,0.0988,0.0539,0.0272,0.0635,0.1725,0.3251,0.4474,0.5109,0.5435,0.5777,0.6642,0.7576,0.8457,0.9007,0.9258,0.937,0.937,0.9135,0.8708,-0.039,-0.0192,-0.0096,0.0011,0.0139,0.0139,0.0005,-0.0262,-0.0673,-0.0918,-0.1062,-0.118,-0.1271,-0.1287,-0.1255,-0.1207,-0.1105,-0.0913,-0.0619,-0.0267,0.0048,0.031,0.0481,0.0619,0.0812,0.1095,0.0998,0.0945,0.0694,-0.0021,-0.0539,-0.0283,0.0662,0.2146,0.3748,0.4827,0.5537,0.5942,0.6407,0.7325,0.8276,0.8735,0.8911,0.8964,0.8895,0.8676,0.8179,-0.0529,-0.0374,-0.0256,-0.0149,-0.0064,-0.0048,-0.0144,-0.0358,-0.0614,-0.0801,-0.0945,-0.1052,-0.1127,-0.1164,-0.1185,-0.1175,-0.1105,-0.094,-0.0694,-0.04,-0.008,0.0251,0.0555,0.0796,0.0924,0.1068,0.1025,0.0913,0.0619,-0.008,-0.0758,-0.1052,-0.0555,0.0625,0.22,0.3817,0.5163,0.6022,0.6423,0.7026,0.7998,0.8649,0.8804,0.8788,0.8671,0.8398,0.7811,-0.0614,-0.0481,-0.0384,-0.031,-0.0262,-0.0256,-0.0336,-0.0497,-0.0683,-0.0838,-0.0934,-0.0982,-0.0993,-0.1025,-0.1073,-0.1105,-0.1068,-0.0945,-0.0747,-0.0502,-0.0219,0.0101,0.0443,0.0737,0.0881,0.0972,0.103,0.0918,0.0657,0.0139,-0.0448,-0.0881,-0.1121,-0.0934,0.0171,0.1895,0.3871,0.559,0.6476,0.6887,0.7598,0.8468,0.8692,0.8697,0.8532,0.8179,0.7571,-0.0678,-0.0561,-0.0486,-0.0448,-0.0432,-0.0459,-0.0534,-0.0662,-0.0806,-0.0929,-0.0982,-0.0956,-0.0902,-0.0902,-0.0956,-0.1014,-0.1009,-0.0918,-0.0769,-0.0577,-0.0342,-0.0048,0.031,0.0646,0.0822,0.0881,0.0988,0.0908,0.0662,0.023,-0.0208,-0.0683,-0.0998,-0.1233,-0.1244,-0.0208,0.1751,0.4074,0.5804,0.6556,0.7042,0.7843,0.8441,0.8596,0.8398,0.8035,0.7571,-0.0747,-0.0646,-0.0598,-0.0582,-0.0593,-0.0641,-0.0715,-0.0817,-0.0924,-0.1004,-0.1014,-0.095,-0.0876,-0.0849,-0.0881,-0.0924,-0.0929,-0.087,-0.0753,-0.0598,-0.0411,-0.0155,0.0176,0.0518,0.0721,0.079,0.0881,0.0956,0.0886,0.0678,0.0246,-0.0374,-0.0801,-0.1068,-0.134,-0.1228,-0.023,0.2002,0.4207,0.5622,0.6316,0.6893,0.763,0.8158,0.8217,0.7993,0.7549,-0.0817,-0.0747,-0.0715,-0.0715,-0.0737,-0.0785,-0.0849,-0.0918,-0.0988,-0.1025,-0.1009,-0.095,-0.0881,-0.0844,-0.0849,-0.0865,-0.086,-0.0812,-0.0715,-0.0587,-0.0422,-0.0208,0.0059,0.0358,0.0582,0.0699,0.0769,0.0881,0.103,0.1089,0.094,0.0646,0.0336,-0.0283,-0.103,-0.1404,-0.1153,0.0326,0.2445,0.4164,0.5296,0.5878,0.6327,0.6978,0.7571,0.7619,0.725,-0.0865,-0.0838,-0.0833,-0.0838,-0.0854,-0.0886,-0.0929,-0.0972,-0.0988,-0.0977,-0.0929,-0.087,-0.0828,-0.0812,-0.0796,-0.079,-0.0774,-0.0731,-0.0641,-0.0518,-0.0379,-0.0219,-0.0021,0.0214,0.0422,0.0571,0.0673,0.0721,0.0715,0.0699,0.071,0.0705,0.0662,0.063,0.0219,-0.0844,-0.1313,-0.0603,0.0892,0.2755,0.4106,0.4949,0.5211,0.5542,0.622,0.6679,0.6813,-0.0833,-0.0849,-0.0876,-0.0886,-0.0897,-0.0908,-0.0918,-0.0924,-0.0929,-0.0934,-0.0929,-0.0913,0,0,0,0,0,-0.0699,-0.0582,-0.0454,-0.0331,-0.0214,-0.0075,0.0085,0.0256,0.0427,0.0566,0.0646,0.0614,0.047,0.0272,0.0155,0.0128,0.0198,0.0278,0.0123,-0.0689,-0.0801,-0.0059,0.1297,0.276,0.3967,0.4586,0.4693,0.4955,0.5259,0.5558,0,0,0,0,-0.0993,-0.0982,-0.0982,0,0,0,0,0,0,0,0,0,0,0,0,0,0,0,0,0,0.0123,0.0283,0.0443,0.0561,0.0582,0.0464,0.0262,0.0037,-0.0149,-0.0278,-0.024,0.0027,0.0208,-0.0224,-0.0032,0.0646,0.1313,0.2344,0.3422,0.4084,0.4437,0.456,0.4602,0,0,0,0,0,0,0,0,0,0,0,0,0,0,0,0,0,0,0,0,0,0,0,0,0,0,0.032,0.0448,0.0518,0.0464,0.0299,0.0096,-0.0101,-0.0256,-0.0347,-0.0278,0.024,0.0662,0.0742,0.0897,0.0844,0.0966,0.1735,0.2766,0.3497,0.3919,0.3908,0,0,0,0,0,0,0,0,0,0,0,0,0,0,0,0,0,0,0,0,0,0,0,0,0,0,0,0,0.0422,0.0416,0.031,0.0144,-0.0037,-0.0182,-0.0278,-0.0278,-0.0053,0.0838,0.1436,0.1468,0.1415,0.0945,0.0657,0.1127,0.2088,0.2734,0.3065,0,0,0,0,0,0,0,0,0,0,0,0,0,0,0,0,0,0,0,0,0,0,0,0,0,0,0,0,0,0.0326,0.0278,0.0176,0.0043,-0.0096,-0.0208,-0.023,-0.008,0.0416,0.141,0.181,0.1789,0.1596,0.1159,0.0865,0.0742,0.1506,0.1981,0,0,0,0,0,0,0,0,0,0,0,0,0,0,0,0,0,0,0,0,0,0,0,0,0,0,0,0,0,0,0,0,0,0,0,0,0,0.0224,0.0854,0.1468,0.1837,0.1895,0.1783,0.1767,0.1522,0.0902,0.1009,0,0,0,0,0,0,0,0,0,0,0,0,0,0,0,0,0,0,0,0,0,0,0,0,0,0,0,0,0,0,0,0,0,0,0,0,0,0,0.0497,0.0806,0.103,0.1111,0.1164,0.1377,0.1981,0.1938,0.1207,0,0,0,0,0,0,0,0,0,0,0,0,0,0,0,0,0,0,0,0,0,0,0,0,0,0,0,0,0,0,0,0,0,0,0,0,0,0,0,0,0,0.0534,0.0507,0.0609,0.0977,0.1532,0.1607,0,0,0,0,0,0,0,0,0,0,0,0,0,0,0,0,0,0,0,0,0,0,0,0,0,0,0,0,0,0,0,0,0,0,0,0,0,0,0,0,0,0,0,0,0.0368,0.0758,0.11,0,0,0,0,0,0,0,0,0,0,0,0,0,0,0,0,0,0,0,0,0,0,0,0,0,0,0,0,0,0,0,0,0,0,0,0,0,0,0,0,0,0,0,0,0,0.0411,0.0849,0,0,0,0,0,0,0,0,0,0,0,0,0,0,0,0,0,0,0,0,0,0,0,0,0,0,0,0,0,0,0,0,0,0,0,0,0,0,0,0,0,0,0,0,0,0,0,0,0,0,0,0,0,0,0,0,0,0,0,0,0,0,0,0,0,0,0,0,0,0,0,0,0,0,0,0,0,0,0,0,0,0,0,0,0,0,0,0,0,0,0,0,0,0,0,0,0,0,0,0,0,0,0,0,0,0,0,0,0,0,0,0,0,0,0,0,0,0,0,0,0,0,0,0,0,0,0,0,0,0,0,0,0,0,0,0,0,0,0,0,0,0,0,0,0,0,0,0,0,0,0,0,0,0,0,0,0,0,0,0,0,0,0,0,0,0,0,0,0,0,0,0,0,0,0,0,0,0,0,0,0,0,0,0,0,0,0,0,0,0,0,0,0,0,0,0,0,0,0,0,0,0,0,0,0,0,0,0,0,0,0,0,0,0,0,0,0,0,0,0,0,0,0,0,0,0,0,0,0,0,0,0,0,0,0,0,0,0,0,0,0,0,0,0,0,0,0,0,0,0,0,0,0,0,0,0,0,0,0,0,0,0,0,0,0,0,0,0,0,0,0,0,0,0,0,0,0,0,0,0,0,0,0,0,0,0,0,0,0,0,0,0,0,0,0,0,0,0,0,0,0,0,0,0,0,0,0,0,0,0,0,0,0,0,0,0,0,0,0,0,0,0,0,0,0,0,0,0,0,0,0,0,0,0,0,0,0,0,0,0,0,0,0,0,0,0,0,0,0,0,0,0,0,0,0,0,0,0,0,0,0,0,0,0,0,0,0,0,0,0,0,0,0,0,0,0,0,0,0,0,0,0,0,0,0,0,0,0,0,0,0,0,0,0,0,0,0,0,0,0,0,0,0,0,0,0,0,0,0,0,0,0,0,0,0,0,0,0,0,0,0,0,0,0,0,0,0,0,0,0,0,0,0,0,0,0,0,0,0,0,0,0,0,0,0,0,0,0,0,0,0,0,0,0,0,0,0,0,0,0,0,0,0,0,0,0,0,0,0,0,0,0,0,0,0,0,0,0,0,0,0,0,0,0,0,0,0,0,0,0,0,0,0,0,0,0,0,0,0,0,0,0,0,0,0,0,0,0,0,0,0,0,0,0,0,0,0,0,0,0,0,0,0,0,0,0,0,0,0,0,0,0,0,0,0,0,0,0,0,0,0,0,0,0,0,0,0,0,0,0,0,0,0,0,0,0,0,0,0,0,0,0,0,0,0,0,0,0,0,0,0,0,0,0,0,0,0,0,0,0,0,0,0,0,0,0,0,0,0,0,0,0,0,0,0,0,0,0,0,0,0,0,0,0,0,0,0,0,0,0,0,0,0,0,0,0,0,0,0,0,0,0,0,0,0,0,0,0,0,0,0,0,0,0,0,0,0,0,0,0,0,0,0,0,0,0,0,0,0,0,0,0,0,0,0,0,0,0,0,0,0,0,0,0,0,0,0,0,0,0,0,0,0,0,0,0,0,0,0,0,0,0,0,0,0,0,0,0,0,0,0,0,0,0,0,0,0,0,0,0,0,0,0,0,0,0,0,0,0,0,0,0,0,0,0,0,0,0,0,0,0,0,0,0,0,0,0,0,0,0,0,0,0,0,0,0,0,0,0,0,0,0,0,0,0,0,0,0,0,0,0,0]}]],[[{"header":{"parameterUnit":"kt","parameterCategory":2,"dx":1,"dy":1,"la1":29.764190673828125,"la2":30.86408042907715,"lo1":-88.46762084960938,"lo2":-86.9344482421875,"nx":47,"ny":34,"refTime":"2022-09-30T00:00:00:Z","depth":"25","parameterNumber":2,"parameterNumberName":"U-component_of_CURRENTS"},"data":[0.0571,0.0902,0.1393,0.1778,0.1901,0.1863,0.1847,0.1906,0.2024,0.2082,0.204,0.1991,0.1917,0.1863,0.1847,0.1853,0.1863,0.1879,0.197,0.2253,0.2702,0.3193,0.3428,0.3278,0.3161,0.3385,0.3529,0.3422,0.3588,0.378,0.3764,0.3823,0.3855,0.4063,0.4058,0.3967,0.3545,0.3145,0.2872,0.2744,0.2589,0.2328,0.1895,0.1297,0.071,0.0352,0.031,0.0539,0.0721,0.094,0.1169,0.1388,0.1602,0.181,0.2013,0.2178,0.221,0.2152,0.2093,0.2045,0.2002,0.1975,0.1965,0.197,0.1991,0.2045,0.2178,0.2392,0.2595,0.2702,0.2702,0.2766,0.2969,0.3187,0.3246,0.3171,0.3075,0.3284,0.3615,0.3588,0.3732,0.386,0.3972,0.3924,0.3641,0.3305,0.3145,0.2931,0.2589,0.2194,0.1794,0.1415,0.118,0.134,0.0603,0.071,0.0844,0.0998,0.1201,0.1431,0.1671,0.1895,0.2056,0.2136,0.2157,0.2157,0.2146,0.2125,0.2093,0.2061,0.2045,0.2056,0.2098,0.2178,0.2285,0.2403,0.2515,0.26,0.2691,0.2872,0.3129,0.3289,0.3187,0.2899,0.2755,0.2766,0.2846,0.3107,0.354,0.3807,0.3999,0.3999,0.3769,0.3534,0.3385,0.3102,0.2782,0.2451,0.2125,0.2002,0.2034,0.071,0.079,0.0881,0.1004,0.1159,0.1356,0.158,0.1794,0.1954,0.2072,0.2157,0.221,0.2242,0.2237,0.2189,0.2141,0.2104,0.2093,0.2125,0.22,0.2296,0.2403,0.2499,0.2589,0.2702,0.2904,0.3187,0.3374,0.338,0.3289,0.3449,0.3417,0.2872,0.2445,0.2723,0.3273,0.3727,0.3935,0.3983,0.3951,0.3833,0.3615,0.3289,0.2958,0.276,0.2648,0.2595,0.078,0.0865,0.0956,0.1073,0.1223,0.1404,0.1602,0.1794,0.1954,0.2077,0.2168,0.2232,0.2274,0.2269,0.2232,0.2178,0.212,0.2088,0.2098,0.2152,0.2242,0.2344,0.2435,0.2541,0.2691,0.2915,0.3182,0.3257,0.3065,0.3059,0.3438,0.402,0.4469,0.378,0.2547,0.2435,0.2915,0.3599,0.4084,0.4335,0.4245,0.4058,0.3855,0.3599,0.3428,0.3342,0.3481,0.0822,0.0918,0.103,0.1159,0.1308,0.1468,0.1628,0.1778,0.1901,0.1991,0.205,0.2088,0.2125,0.2162,0.2189,0.2162,0.2098,0.2045,0.2034,0.2061,0.2114,0.2189,0.2301,0.2445,0.2616,0.2792,0.2894,0.2702,0.2499,0.2605,0.2792,0.3017,0.3599,0.4891,0.5307,0.3038,0.2365,0.2979,0.3839,0.4522,0.4725,0.4528,0.4458,0.441,0.4335,0.417,0.4213,0.0854,0.0945,0.1062,0.1191,0.1329,0.1463,0.158,0.1687,0.1778,0.1842,0.1885,0.1927,0,0,0,0,0,0.1991,0.1991,0.2007,0.2029,0.2056,0.2104,0.2221,0.2392,0.2563,0.2691,0.2659,0.2488,0.2392,0.244,0.2525,0.2541,0.2493,0.3342,0.5077,0.3294,0.2317,0.3102,0.4042,0.4811,0.504,0.5008,0.5056,0.5206,0.5291,0.5408,0.0876,0.0945,0.1052,0.1169,0.1292,0.141,0.1511,0,0,0,0,0,0,0,0,0,0,0,0,0,0,0,0,0.2109,0.2216,0.2312,0.244,0.2573,0.2616,0.2504,0.2317,0.2205,0.2162,0.2045,0.1911,0.2557,0.4335,0.3251,0.1991,0.307,0.4026,0.4923,0.5505,0.5894,0.6012,0.6263,0.6642,0,0,0,0,0,0,0,0,0,0,0,0,0,0,0,0,0,0,0,0,0,0,0,0,0,0,0.2285,0.236,0.244,0.2499,0.2504,0.244,0.229,0.2045,0.1741,0.1618,0.2499,0.4042,0.3321,0.1943,0.2979,0.394,0.5008,0.6001,0.6775,0.7154,0.7507,0,0,0,0,0,0,0,0,0,0,0,0,0,0,0,0,0,0,0,0,0,0,0,0,0,0,0,0,0,0.2328,0.2355,0.2349,0.2312,0.2226,0.2007,0.1591,0.141,0.2344,0.37,0.4079,0.3599,0.3257,0.4095,0.5291,0.6455,0.7475,0.8115,0,0,0,0,0,0,0,0,0,0,0,0,0,0,0,0,0,0,0,0,0,0,0,0,0,0,0,0,0,0,0,0,0,0.2157,0.2109,0.1965,0.1506,0.1095,0.15,0.2216,0.2899,0.3876,0.48,0.4501,0.5435,0.7042,0.8089,0,0,0,0,0,0,0,0,0,0,0,0,0,0,0,0,0,0,0,0,0,0,0,0,0,0,0,0,0,0,0,0,0,0,0,0,0,0.1426,0.0913,0.087,0.1089,0.1548,0.22,0.3919,0.5862,0.5718,0.7368,0,0,0,0,0,0,0,0,0,0,0,0,0,0,0,0,0,0,0,0,0,0,0,0,0,0,0,0,0,0,0,0,0,0,0,0,0,0,0.1335,0.0993,0.1004,0.1207,0.1388,0.1468,0.221,0.4549,0.567,0,0,0,0,0,0,0,0,0,0,0,0,0,0,0,0,0,0,0,0,0,0,0,0,0,0,0,0,0,0,0,0,0,0,0,0,0,0,0,0.1244,0.1121,0.1185,0.1361,0.1377,0.0913,0.0598,0.1095,0,0,0,0,0,0,0,0,0,0,0,0,0,0,0,0,0,0,0,0,0,0,0,0,0,0,0,0,0,0,0,0,0,0,0,0,0,0,0,0,0,0,0,0,0.1009,0.0481,0.04,0,0,0,0,0,0,0,0,0,0,0,0,0,0,0,0,0,0,0,0,0,0,0,0,0,0,0,0,0,0,0,0,0,0,0,0,0,0,0,0,0,0,0,0,0,0,0,0,0,0,0,0,0,0,0,0,0,0,0,0,0,0,0,0,0,0,0,0,0,0,0,0,0,0,0,0,0,0,0,0,0,0,0,0,0,0,0,0,0,0,0,0,0,0,0,0,0,0,0,0,0,0,0,0,0,0,0,0,0,0,0,0,0,0,0,0,0,0,0,0,0,0,0,0,0,0,0,0,0,0,0,0,0,0,0,0,0,0,0,0,0,0,0,0,0,0,0,0,0,0,0,0,0,0,0,0,0,0,0,0,0,0,0,0,0,0,0,0,0,0,0,0,0,0,0,0,0,0,0,0,0,0,0,0,0,0,0,0,0,0,0,0,0,0,0,0,0,0,0,0,0,0,0,0,0,0,0,0,0,0,0,0,0,0,0,0,0,0,0,0,0,0,0,0,0,0,0,0,0,0,0,0,0,0,0,0,0,0,0,0,0,0,0,0,0,0,0,0,0,0,0,0,0,0,0,0,0,0,0,0,0,0,0,0,0,0,0,0,0,0,0,0,0,0,0,0,0,0,0,0,0,0,0,0,0,0,0,0,0,0,0,0,0,0,0,0,0,0,0,0,0,0,0,0,0,0,0,0,0,0,0,0,0,0,0,0,0,0,0,0,0,0,0,0,0,0,0,0,0,0,0,0,0,0,0,0,0,0,0,0,0,0,0,0,0,0,0,0,0,0,0,0,0,0,0,0,0,0,0,0,0,0,0,0,0,0,0,0,0,0,0,0,0,0,0,0,0,0,0,0,0,0,0,0,0,0,0,0,0,0,0,0,0,0,0,0,0,0,0,0,0,0,0,0,0,0,0,0,0,0,0,0,0,0,0,0,0,0,0,0,0,0,0,0,0,0,0,0,0,0,0,0,0,0,0,0,0,0,0,0,0,0,0,0,0,0,0,0,0,0,0,0,0,0,0,0,0,0,0,0,0,0,0,0,0,0,0,0,0,0,0,0,0,0,0,0,0,0,0,0,0,0,0,0,0,0,0,0,0,0,0,0,0,0,0,0,0,0,0,0,0,0,0,0,0,0,0,0,0,0,0,0,0,0,0,0,0,0,0,0,0,0,0,0,0,0,0,0,0,0,0,0,0,0,0,0,0,0,0,0,0,0,0,0,0,0,0,0,0,0,0,0,0,0,0,0,0,0,0,0,0,0,0,0,0,0,0,0,0,0,0,0,0,0,0,0,0,0,0,0,0,0,0,0,0,0,0,0,0,0,0,0,0,0,0,0,0,0,0,0,0,0,0,0,0,0,0,0,0,0,0,0,0,0,0,0,0,0,0,0,0,0,0,0,0,0,0,0,0,0,0,0,0,0,0,0,0,0,0,0,0,0,0,0,0,0,0,0,0,0,0,0,0,0,0,0,0,0,0,0,0,0,0,0,0,0,0,0,0,0,0,0,0,0,0,0,0,0,0,0,0,0,0,0,0,0,0,0,0,0,0,0,0,0,0,0,0,0,0,0,0,0,0,0,0,0,0,0,0,0,0,0,0,0,0,0,0,0,0,0,0,0,0,0,0,0,0,0,0,0,0,0,0,0,0,0,0,0,0,0,0,0,0,0,0,0,0,0,0,0,0,0,0,0,0,0,0,0,0,0,0,0,0,0,0,0,0,0,0,0,0,0,0,0,0,0,0,0,0,0,0,0,0,0,0,0,0,0,0,0,0,0,0,0,0,0,0,0,0,0,0,0,0,0,0,0,0,0,0,0,0,0,0,0,0,0,0,0,0,0,0,0,0,0,0,0,0,0,0,0,0,0,0,0,0,0,0,0,0,0,0,0,0,0,0,0,0,0,0,0,0,0,0,0,0,0,0,0,0,0,0,0,0,0,0,0,0,0,0,0,0,0,0,0,0,0,0,0,0,0,0,0,0,0,0,0,0,0,0,0,0,0,0]}],[{"header":{"parameterUnit":"kt","parameterCategory":2,"dx":1,"dy":1,"la1":29.764190673828125,"la2":30.86408042907715,"lo1":-88.46762084960938,"lo2":-86.9344482421875,"nx":47,"ny":34,"refTime":"2022-09-30T00:00:00:Z","depth":"25","parameterNumber":3,"parameterNumberName":"V-component_of_CURRENTS"},"data":[0.0059,0.039,0.0294,0.024,0.0304,0.0224,0.0064,-0.0187,-0.0529,-0.0838,-0.1111,-0.1287,-0.1361,-0.1324,-0.1233,-0.1143,-0.1036,-0.0822,-0.0475,-0.0048,0.0299,0.0796,0.1265,0.1404,0.1367,0.1239,0.1073,0.1116,0.1255,0.0993,0.0363,0.0667,0.1676,0.2782,0.3534,0.394,0.4154,0.4234,0.457,0.5622,0.7005,0.8147,0.8879,0.9365,0.9269,0.8767,0.7987,-0.0352,-0.0144,-0.0005,0.008,0.0198,0.0182,0.0043,-0.0203,-0.0486,-0.0753,-0.0982,-0.1137,-0.1228,-0.1239,-0.1191,-0.1127,-0.103,-0.0854,-0.0571,-0.023,0.0139,0.0619,0.0966,0.1105,0.1137,0.1207,0.1169,0.0977,0.0913,0.0657,-0.0059,-0.0246,0.0662,0.1821,0.2969,0.3764,0.4111,0.4229,0.4346,0.4997,0.6305,0.7507,0.8457,0.8665,0.8484,0.7902,0.6834,-0.0513,-0.0352,-0.0224,-0.0112,-0.0021,-0.0005,-0.0101,-0.0299,-0.0539,-0.0742,-0.0897,-0.1009,-0.1078,-0.1105,-0.1095,-0.1068,-0.1004,-0.0865,-0.0641,-0.0363,-0.0048,0.0283,0.0582,0.0817,0.094,0.1084,0.1191,0.0988,0.0763,0.055,-0.0059,-0.0481,-0.0352,0.0534,0.1709,0.2947,0.3828,0.4314,0.4357,0.4618,0.5574,0.6935,0.7838,0.8115,0.7993,0.7373,0.6434,-0.0598,-0.0464,-0.0368,-0.0288,-0.023,-0.0224,-0.0299,-0.0454,-0.0641,-0.079,-0.0892,-0.0934,-0.094,-0.0945,-0.095,-0.0966,-0.0945,-0.0849,-0.0678,-0.0454,-0.0187,0.0123,0.0459,0.0753,0.0892,0.0977,0.1207,0.1212,0.1073,0.1159,0.1159,0.0347,-0.031,-0.0267,0.0219,0.1436,0.291,0.401,0.4378,0.449,0.5003,0.6193,0.7309,0.7977,0.7896,0.7309,0.6514,-0.0651,-0.0545,-0.0475,-0.0432,-0.0416,-0.0438,-0.0513,-0.063,-0.0769,-0.0881,-0.0924,-0.0892,-0.0822,-0.078,-0.0801,-0.0849,-0.086,-0.0796,-0.0673,-0.0507,-0.0299,-0.0021,0.0331,0.0667,0.0833,0.0886,0.1132,0.1741,0.1933,0.2061,0.1959,0.1532,0.0742,0.0016,0.0107,0.0144,0.1239,0.3097,0.4036,0.4239,0.4586,0.5366,0.6466,0.7283,0.7379,0.701,0.6247,-0.0699,-0.0614,-0.0577,-0.0566,-0.0577,-0.0614,-0.0683,-0.0769,-0.0854,-0.0908,-0.0892,-0.0812,-0.071,-0.0678,-0.0721,-0.0774,-0.0785,-0.0737,-0.0641,-0.0513,-0.0347,-0.0117,0.0192,0.0529,0.0737,0.0796,0.094,0.1602,0.2152,0.2253,0.2018,0.1789,0.1548,0.094,0.0198,0.0155,0.0358,0.158,0.3075,0.3668,0.3882,0.4367,0.5174,0.6044,0.6572,0.6599,0.6055,-0.0747,-0.0689,-0.0662,-0.0667,-0.0683,-0.0715,-0.0763,-0.0806,-0.0849,-0.0865,-0.0849,-0.0796,0,0,0,0,0,-0.0705,-0.0625,-0.0513,-0.0363,-0.0171,0.008,0.0358,0.0577,0.0694,0.0769,0.0988,0.1393,0.1628,0.1703,0.1575,0.1367,0.141,0.1212,0.0518,-0.0016,0.0822,0.1933,0.3139,0.3454,0.3476,0.3769,0.4544,0.5259,0.5686,0.5558,-0.078,-0.0753,-0.0742,-0.0742,-0.0758,-0.0785,-0.0822,0,0,0,0,0,0,0,0,0,0,0,0,0,0,0,0,0.0208,0.04,0.0539,0.0641,0.0699,0.0731,0.079,0.0886,0.094,0.0977,0.1148,0.1367,0.15,0.0886,-0.0075,0.1361,0.2493,0.3198,0.3481,0.3284,0.3278,0.3946,0.4362,0.4512,0,0,0,0,0,0,0,0,0,0,0,0,0,0,0,0,0,0,0,0,0,0,0,0,0,0,0.0534,0.0603,0.0577,0.0454,0.0304,0.024,0.0267,0.0422,0.0742,0.1329,0.1709,0.1153,0.0603,0.1644,0.2734,0.3139,0.3422,0.3518,0.3396,0.3545,0.3561,0,0,0,0,0,0,0,0,0,0,0,0,0,0,0,0,0,0,0,0,0,0,0,0,0,0,0,0,0,0.0443,0.0256,0.0064,-0.0096,-0.0176,-0.0043,0.0497,0.1388,0.1933,0.173,0.1463,0.1351,0.2184,0.299,0.3481,0.3705,0.3572,0.3358,0,0,0,0,0,0,0,0,0,0,0,0,0,0,0,0,0,0,0,0,0,0,0,0,0,0,0,0,0,0,0,0,0,-0.0214,-0.0288,-0.0166,0.0566,0.1612,0.2253,0.2403,0.2226,0.1842,0.141,0.2072,0.3353,0.3508,0.338,0,0,0,0,0,0,0,0,0,0,0,0,0,0,0,0,0,0,0,0,0,0,0,0,0,0,0,0,0,0,0,0,0,0,0,0,0,0.0934,0.1874,0.2365,0.2397,0.2216,0.1965,0.1538,0.0982,0.2702,0.2856,0,0,0,0,0,0,0,0,0,0,0,0,0,0,0,0,0,0,0,0,0,0,0,0,0,0,0,0,0,0,0,0,0,0,0,0,0,0,0.1377,0.2007,0.2189,0.2104,0.1938,0.1842,0.165,0.0966,0.0881,0,0,0,0,0,0,0,0,0,0,0,0,0,0,0,0,0,0,0,0,0,0,0,0,0,0,0,0,0,0,0,0,0,0,0,0,0,0,0,0.1393,0.1725,0.1805,0.1757,0.1746,0.1895,0.1789,0.1447,0,0,0,0,0,0,0,0,0,0,0,0,0,0,0,0,0,0,0,0,0,0,0,0,0,0,0,0,0,0,0,0,0,0,0,0,0,0,0,0,0,0,0,0,0.1628,0.1874,0.1757,0,0,0,0,0,0,0,0,0,0,0,0,0,0,0,0,0,0,0,0,0,0,0,0,0,0,0,0,0,0,0,0,0,0,0,0,0,0,0,0,0,0,0,0,0,0,0,0,0,0,0,0,0,0,0,0,0,0,0,0,0,0,0,0,0,0,0,0,0,0,0,0,0,0,0,0,0,0,0,0,0,0,0,0,0,0,0,0,0,0,0,0,0,0,0,0,0,0,0,0,0,0,0,0,0,0,0,0,0,0,0,0,0,0,0,0,0,0,0,0,0,0,0,0,0,0,0,0,0,0,0,0,0,0,0,0,0,0,0,0,0,0,0,0,0,0,0,0,0,0,0,0,0,0,0,0,0,0,0,0,0,0,0,0,0,0,0,0,0,0,0,0,0,0,0,0,0,0,0,0,0,0,0,0,0,0,0,0,0,0,0,0,0,0,0,0,0,0,0,0,0,0,0,0,0,0,0,0,0,0,0,0,0,0,0,0,0,0,0,0,0,0,0,0,0,0,0,0,0,0,0,0,0,0,0,0,0,0,0,0,0,0,0,0,0,0,0,0,0,0,0,0,0,0,0,0,0,0,0,0,0,0,0,0,0,0,0,0,0,0,0,0,0,0,0,0,0,0,0,0,0,0,0,0,0,0,0,0,0,0,0,0,0,0,0,0,0,0,0,0,0,0,0,0,0,0,0,0,0,0,0,0,0,0,0,0,0,0,0,0,0,0,0,0,0,0,0,0,0,0,0,0,0,0,0,0,0,0,0,0,0,0,0,0,0,0,0,0,0,0,0,0,0,0,0,0,0,0,0,0,0,0,0,0,0,0,0,0,0,0,0,0,0,0,0,0,0,0,0,0,0,0,0,0,0,0,0,0,0,0,0,0,0,0,0,0,0,0,0,0,0,0,0,0,0,0,0,0,0,0,0,0,0,0,0,0,0,0,0,0,0,0,0,0,0,0,0,0,0,0,0,0,0,0,0,0,0,0,0,0,0,0,0,0,0,0,0,0,0,0,0,0,0,0,0,0,0,0,0,0,0,0,0,0,0,0,0,0,0,0,0,0,0,0,0,0,0,0,0,0,0,0,0,0,0,0,0,0,0,0,0,0,0,0,0,0,0,0,0,0,0,0,0,0,0,0,0,0,0,0,0,0,0,0,0,0,0,0,0,0,0,0,0,0,0,0,0,0,0,0,0,0,0,0,0,0,0,0,0,0,0,0,0,0,0,0,0,0,0,0,0,0,0,0,0,0,0,0,0,0,0,0,0,0,0,0,0,0,0,0,0,0,0,0,0,0,0,0,0,0,0,0,0,0,0,0,0,0,0,0,0,0,0,0,0,0,0,0,0,0,0,0,0,0,0,0,0,0,0,0,0,0,0,0,0,0,0,0,0,0,0,0,0,0,0,0,0,0,0,0,0,0,0,0,0,0,0,0,0,0,0,0,0,0,0,0,0,0,0,0,0,0,0,0,0,0,0,0,0,0,0,0,0,0,0,0,0,0,0,0,0,0,0,0,0,0,0,0,0,0,0,0,0,0,0,0,0,0,0,0,0,0,0,0,0,0,0,0,0,0,0,0,0,0,0,0,0,0,0,0,0,0,0,0,0,0,0,0,0,0,0,0,0,0,0,0,0,0,0,0,0,0,0,0,0,0,0,0,0,0,0,0,0,0,0,0,0,0,0,0,0,0,0,0,0,0,0,0,0,0,0,0,0,0,0,0,0,0,0,0,0,0,0,0,0,0,0,0,0,0,0,0,0,0,0,0,0,0,0,0,0,0,0,0,0,0,0,0,0,0,0,0,0,0,0,0,0,0,0,0,0,0,0,0,0,0,0,0,0,0,0,0,0,0,0,0,0,0,0,0,0,0,0,0,0,0,0,0,0,0,0,0,0,0,0,0,0,0,0,0,0,0,0,0,0,0,0,0,0,0,0,0,0,0,0,0,0,0,0,0,0,0,0,0,0,0,0,0,0,0,0,0,0,0,0,0,0,0,0,0,0,0,0]}]]]